<?xml version='1.0' encoding='UTF-8'?>
<gpx version="1.1" creator="https://www.komoot.de" xmlns="http://www.topografix.com/GPX/1/1" xmlns:xsi="http://www.w3.org/2001/XMLSchema-instance" xsi:schemaLocation="http://www.topografix.com/GPX/1/1 http://www.topografix.com/GPX/1/1/gpx.xsd">
  <metadata>
    <name>70_1200BenkerjAuenstZeih</name>
    <author>
      <link href="https://www.komoot.de">
        <text>komoot</text>
        <type>text/html</type>
      </link>
    </author>
  </metadata>
  <trk>
    <name>70_1200BenkerjAuenstZeih</name>
    <trkseg>
      <trkpt lat="47.541372" lon="7.870822">
        <ele>342.473549</ele>
        <time>2021-11-20T19:49:30.242Z</time>
      </trkpt>
      <trkpt lat="47.540933" lon="7.871187">
        <ele>342.473549</ele>
        <time>2021-11-20T19:49:41.640Z</time>
      </trkpt>
      <trkpt lat="47.540894" lon="7.871220">
        <ele>342.473549</ele>
        <time>2021-11-20T19:49:42.773Z</time>
      </trkpt>
      <trkpt lat="47.540693" lon="7.871390">
        <ele>342.473549</ele>
        <time>2021-11-20T19:49:48.166Z</time>
      </trkpt>
      <trkpt lat="47.540463" lon="7.871584">
        <ele>342.741792</ele>
        <time>2021-11-20T19:49:54.345Z</time>
      </trkpt>
      <trkpt lat="47.540265" lon="7.871808">
        <ele>343.202244</ele>
        <time>2021-11-20T19:49:59.827Z</time>
      </trkpt>
      <trkpt lat="47.540216" lon="7.871851">
        <ele>343.307502</ele>
        <time>2021-11-20T19:50:01.288Z</time>
      </trkpt>
      <trkpt lat="47.540034" lon="7.871970">
        <ele>343.675179</ele>
        <time>2021-11-20T19:50:05.855Z</time>
      </trkpt>
      <trkpt lat="47.539930" lon="7.872041">
        <ele>343.886820</ele>
        <time>2021-11-20T19:50:08.429Z</time>
      </trkpt>
      <trkpt lat="47.539841" lon="7.872151">
        <ele>344.101043</ele>
        <time>2021-11-20T19:50:11.450Z</time>
      </trkpt>
      <trkpt lat="47.539678" lon="7.872430">
        <ele>344.561395</ele>
        <time>2021-11-20T19:50:16.958Z</time>
      </trkpt>
      <trkpt lat="47.539222" lon="7.873416">
        <ele>345.938430</ele>
        <time>2021-11-20T19:50:34.499Z</time>
      </trkpt>
      <trkpt lat="47.538278" lon="7.874319">
        <ele>347.084927</ele>
        <time>2021-11-20T19:50:54.153Z</time>
      </trkpt>
      <trkpt lat="47.537716" lon="7.874966">
        <ele>347.957614</ele>
        <time>2021-11-20T19:51:08.128Z</time>
      </trkpt>
      <trkpt lat="47.537261" lon="7.875237">
        <ele>348.869044</ele>
        <time>2021-11-20T19:51:17.645Z</time>
      </trkpt>
      <trkpt lat="47.537182" lon="7.875293">
        <ele>349.031814</ele>
        <time>2021-11-20T19:51:19.633Z</time>
      </trkpt>
      <trkpt lat="47.536921" lon="7.875537">
        <ele>349.605422</ele>
        <time>2021-11-20T19:51:25.600Z</time>
      </trkpt>
      <trkpt lat="47.536757" lon="7.875759">
        <ele>350.018327</ele>
        <time>2021-11-20T19:51:30.202Z</time>
      </trkpt>
      <trkpt lat="47.536632" lon="7.875912">
        <ele>350.319698</ele>
        <time>2021-11-20T19:51:33.370Z</time>
      </trkpt>
      <trkpt lat="47.536444" lon="7.876177">
        <ele>350.802026</ele>
        <time>2021-11-20T19:51:40.332Z</time>
      </trkpt>
      <trkpt lat="47.535851" lon="7.877319">
        <ele>355.145917</ele>
        <time>2021-11-20T19:52:11.646Z</time>
      </trkpt>
      <trkpt lat="47.535770" lon="7.877432">
        <ele>355.673677</ele>
        <time>2021-11-20T19:52:15.826Z</time>
      </trkpt>
      <trkpt lat="47.535635" lon="7.877484">
        <ele>356.335283</ele>
        <time>2021-11-20T19:52:21.693Z</time>
      </trkpt>
      <trkpt lat="47.535551" lon="7.877487">
        <ele>356.733814</ele>
        <time>2021-11-20T19:52:23.601Z</time>
      </trkpt>
      <trkpt lat="47.535322" lon="7.877590">
        <ele>357.868944</ele>
        <time>2021-11-20T19:52:33.653Z</time>
      </trkpt>
      <trkpt lat="47.535088" lon="7.877742">
        <ele>359.080853</ele>
        <time>2021-11-20T19:52:41.485Z</time>
      </trkpt>
      <trkpt lat="47.534855" lon="7.878090">
        <ele>360.730815</ele>
        <time>2021-11-20T19:52:53.468Z</time>
      </trkpt>
      <trkpt lat="47.534778" lon="7.878270">
        <ele>361.461227</ele>
        <time>2021-11-20T19:53:00.775Z</time>
      </trkpt>
      <trkpt lat="47.534825" lon="7.878414">
        <ele>362.009471</ele>
        <time>2021-11-20T19:53:03.402Z</time>
      </trkpt>
      <trkpt lat="47.534946" lon="7.878790">
        <ele>363.437210</ele>
        <time>2021-11-20T19:53:15.449Z</time>
      </trkpt>
      <trkpt lat="47.534908" lon="7.878975">
        <ele>364.100034</ele>
        <time>2021-11-20T19:53:19.507Z</time>
      </trkpt>
      <trkpt lat="47.534616" lon="7.879490">
        <ele>366.405238</ele>
        <time>2021-11-20T19:53:36.454Z</time>
      </trkpt>
      <trkpt lat="47.533892" lon="7.880353">
        <ele>369.807609</ele>
        <time>2021-11-20T19:54:04.194Z</time>
      </trkpt>
      <trkpt lat="47.533606" lon="7.880961">
        <ele>371.002648</ele>
        <time>2021-11-20T19:54:16.502Z</time>
      </trkpt>
      <trkpt lat="47.533374" lon="7.881639">
        <ele>372.228477</ele>
        <time>2021-11-20T19:54:27.548Z</time>
      </trkpt>
      <trkpt lat="47.533014" lon="7.882949">
        <ele>372.918434</ele>
        <time>2021-11-20T19:54:45.463Z</time>
      </trkpt>
      <trkpt lat="47.532859" lon="7.883508">
        <ele>372.908334</ele>
        <time>2021-11-20T19:54:51.341Z</time>
      </trkpt>
      <trkpt lat="47.532713" lon="7.884122">
        <ele>372.897454</ele>
        <time>2021-11-20T19:54:57.038Z</time>
      </trkpt>
      <trkpt lat="47.532699" lon="7.884224">
        <ele>372.895714</ele>
        <time>2021-11-20T19:54:57.992Z</time>
      </trkpt>
      <trkpt lat="47.532670" lon="7.884773">
        <ele>372.659964</ele>
        <time>2021-11-20T19:55:02.486Z</time>
      </trkpt>
      <trkpt lat="47.532658" lon="7.884989">
        <ele>372.435621</ele>
        <time>2021-11-20T19:55:04.098Z</time>
      </trkpt>
      <trkpt lat="47.532650" lon="7.885569">
        <ele>371.835121</ele>
        <time>2021-11-20T19:55:08.600Z</time>
      </trkpt>
      <trkpt lat="47.532505" lon="7.887120">
        <ele>370.214317</ele>
        <time>2021-11-20T19:55:20.551Z</time>
      </trkpt>
      <trkpt lat="47.532288" lon="7.887728">
        <ele>369.466767</ele>
        <time>2021-11-20T19:55:25.728Z</time>
      </trkpt>
      <trkpt lat="47.532011" lon="7.888896">
        <ele>368.112790</ele>
        <time>2021-11-20T19:55:34.958Z</time>
      </trkpt>
      <trkpt lat="47.531843" lon="7.889349">
        <ele>367.547513</ele>
        <time>2021-11-20T19:55:38.994Z</time>
      </trkpt>
      <trkpt lat="47.531560" lon="7.889776">
        <ele>367.206724</ele>
        <time>2021-11-20T19:55:43.935Z</time>
      </trkpt>
      <trkpt lat="47.531265" lon="7.889937">
        <ele>367.187483</ele>
        <time>2021-11-20T19:55:47.902Z</time>
      </trkpt>
      <trkpt lat="47.531076" lon="7.890029">
        <ele>367.175308</ele>
        <time>2021-11-20T19:55:50.744Z</time>
      </trkpt>
      <trkpt lat="47.530606" lon="7.890373">
        <ele>367.143222</ele>
        <time>2021-11-20T19:55:58.593Z</time>
      </trkpt>
      <trkpt lat="47.530322" lon="7.890690">
        <ele>367.121458</ele>
        <time>2021-11-20T19:56:04.586Z</time>
      </trkpt>
      <trkpt lat="47.529972" lon="7.891210">
        <ele>367.412226</ele>
        <time>2021-11-20T19:56:13.748Z</time>
      </trkpt>
      <trkpt lat="47.529714" lon="7.891609">
        <ele>367.800238</ele>
        <time>2021-11-20T19:56:21.082Z</time>
      </trkpt>
      <trkpt lat="47.529695" lon="7.891638">
        <ele>367.828619</ele>
        <time>2021-11-20T19:56:22.068Z</time>
      </trkpt>
      <trkpt lat="47.529235" lon="7.892158">
        <ele>368.430562</ele>
        <time>2021-11-20T19:56:33.002Z</time>
      </trkpt>
      <trkpt lat="47.528331" lon="7.892682">
        <ele>369.608537</ele>
        <time>2021-11-20T19:56:51.704Z</time>
      </trkpt>
      <trkpt lat="47.528003" lon="7.892732">
        <ele>370.076799</ele>
        <time>2021-11-20T19:56:57.410Z</time>
      </trkpt>
      <trkpt lat="47.527498" lon="7.892650">
        <ele>370.798260</ele>
        <time>2021-11-20T19:57:06.883Z</time>
      </trkpt>
      <trkpt lat="47.527011" lon="7.893061">
        <ele>371.651508</ele>
        <time>2021-11-20T19:57:20.076Z</time>
      </trkpt>
      <trkpt lat="47.526709" lon="7.893617">
        <ele>372.987497</ele>
        <time>2021-11-20T19:57:32.607Z</time>
      </trkpt>
      <trkpt lat="47.526504" lon="7.894030">
        <ele>373.947199</ele>
        <time>2021-11-20T19:57:42.789Z</time>
      </trkpt>
      <trkpt lat="47.526451" lon="7.893983">
        <ele>374.118488</ele>
        <time>2021-11-20T19:57:44.178Z</time>
      </trkpt>
      <trkpt lat="47.526401" lon="7.893964">
        <ele>374.261617</ele>
        <time>2021-11-20T19:57:44.995Z</time>
      </trkpt>
      <trkpt lat="47.526335" lon="7.893960">
        <ele>374.444773</ele>
        <time>2021-11-20T19:57:47.069Z</time>
      </trkpt>
      <trkpt lat="47.526257" lon="7.894278">
        <ele>375.078232</ele>
        <time>2021-11-20T19:57:53.281Z</time>
      </trkpt>
      <trkpt lat="47.525725" lon="7.895110">
        <ele>376.938749</ele>
        <time>2021-11-20T19:58:12.363Z</time>
      </trkpt>
      <trkpt lat="47.525603" lon="7.895265">
        <ele>377.203653</ele>
        <time>2021-11-20T19:58:17.979Z</time>
      </trkpt>
      <trkpt lat="47.525631" lon="7.895442">
        <ele>377.405954</ele>
        <time>2021-11-20T19:58:20.829Z</time>
      </trkpt>
      <trkpt lat="47.525631" lon="7.895583">
        <ele>377.562861</ele>
        <time>2021-11-20T19:58:22.020Z</time>
      </trkpt>
      <trkpt lat="47.525622" lon="7.895944">
        <ele>377.964861</ele>
        <time>2021-11-20T19:58:29.456Z</time>
      </trkpt>
      <trkpt lat="47.525590" lon="7.896117">
        <ele>378.164470</ele>
        <time>2021-11-20T19:58:31.008Z</time>
      </trkpt>
      <trkpt lat="47.525518" lon="7.896336">
        <ele>378.435527</ele>
        <time>2021-11-20T19:58:35.816Z</time>
      </trkpt>
      <trkpt lat="47.524834" lon="7.897636">
        <ele>379.475960</ele>
        <time>2021-11-20T19:58:52.739Z</time>
      </trkpt>
      <trkpt lat="47.524617" lon="7.898216">
        <ele>379.466957</ele>
        <time>2021-11-20T19:58:58.912Z</time>
      </trkpt>
      <trkpt lat="47.524360" lon="7.898951">
        <ele>379.455720</ele>
        <time>2021-11-20T19:59:06.453Z</time>
      </trkpt>
      <trkpt lat="47.524309" lon="7.899115">
        <ele>379.453268</ele>
        <time>2021-11-20T19:59:08.367Z</time>
      </trkpt>
      <trkpt lat="47.523896" lon="7.900001">
        <ele>380.267535</ele>
        <time>2021-11-20T19:59:20.290Z</time>
      </trkpt>
      <trkpt lat="47.523861" lon="7.900049">
        <ele>380.340806</ele>
        <time>2021-11-20T19:59:21.269Z</time>
      </trkpt>
      <trkpt lat="47.523890" lon="7.900131">
        <ele>380.436815</ele>
        <time>2021-11-20T19:59:22.224Z</time>
      </trkpt>
      <trkpt lat="47.523945" lon="7.900256">
        <ele>380.591560</ele>
        <time>2021-11-20T19:59:23.815Z</time>
      </trkpt>
      <trkpt lat="47.523989" lon="7.900340">
        <ele>380.701824</ele>
        <time>2021-11-20T19:59:24.865Z</time>
      </trkpt>
      <trkpt lat="47.523957" lon="7.900371">
        <ele>380.760558</ele>
        <time>2021-11-20T19:59:25.570Z</time>
      </trkpt>
      <trkpt lat="47.523878" lon="7.900445">
        <ele>380.904136</ele>
        <time>2021-11-20T19:59:27.687Z</time>
      </trkpt>
      <trkpt lat="47.523739" lon="7.900557">
        <ele>381.147193</ele>
        <time>2021-11-20T19:59:30.618Z</time>
      </trkpt>
      <trkpt lat="47.523648" lon="7.900606">
        <ele>381.295919</ele>
        <time>2021-11-20T19:59:32.797Z</time>
      </trkpt>
      <trkpt lat="47.523620" lon="7.900698">
        <ele>381.400587</ele>
        <time>2021-11-20T19:59:34.760Z</time>
      </trkpt>
      <trkpt lat="47.523567" lon="7.900820">
        <ele>381.551050</ele>
        <time>2021-11-20T19:59:36.858Z</time>
      </trkpt>
      <trkpt lat="47.523433" lon="7.901043">
        <ele>381.860665</ele>
        <time>2021-11-20T19:59:42.102Z</time>
      </trkpt>
      <trkpt lat="47.523340" lon="7.901197">
        <ele>382.074951</ele>
        <time>2021-11-20T19:59:46.144Z</time>
      </trkpt>
      <trkpt lat="47.523036" lon="7.901580">
        <ele>383.477426</ele>
        <time>2021-11-20T19:59:57.840Z</time>
      </trkpt>
      <trkpt lat="47.522688" lon="7.901843">
        <ele>385.072766</ele>
        <time>2021-11-20T20:00:10.158Z</time>
      </trkpt>
      <trkpt lat="47.522554" lon="7.901999">
        <ele>385.768769</ele>
        <time>2021-11-20T20:00:16.479Z</time>
      </trkpt>
      <trkpt lat="47.522260" lon="7.902356">
        <ele>387.321258</ele>
        <time>2021-11-20T20:00:28.852Z</time>
      </trkpt>
      <trkpt lat="47.522132" lon="7.902476">
        <ele>387.939857</ele>
        <time>2021-11-20T20:00:33.410Z</time>
      </trkpt>
      <trkpt lat="47.522065" lon="7.902526">
        <ele>388.246215</ele>
        <time>2021-11-20T20:00:35.604Z</time>
      </trkpt>
      <trkpt lat="47.522038" lon="7.902562">
        <ele>388.394569</ele>
        <time>2021-11-20T20:00:37.108Z</time>
      </trkpt>
      <trkpt lat="47.522013" lon="7.902637">
        <ele>388.625201</ele>
        <time>2021-11-20T20:00:39.242Z</time>
      </trkpt>
      <trkpt lat="47.521792" lon="7.903347">
        <ele>390.477355</ele>
        <time>2021-11-20T20:00:55.310Z</time>
      </trkpt>
      <trkpt lat="47.521297" lon="7.904312">
        <ele>392.990453</ele>
        <time>2021-11-20T20:01:19.312Z</time>
      </trkpt>
      <trkpt lat="47.520989" lon="7.905130">
        <ele>394.932716</ele>
        <time>2021-11-20T20:01:34.727Z</time>
      </trkpt>
      <trkpt lat="47.520678" lon="7.906050">
        <ele>395.501338</ele>
        <time>2021-11-20T20:01:48.197Z</time>
      </trkpt>
      <trkpt lat="47.520566" lon="7.906668">
        <ele>395.782899</ele>
        <time>2021-11-20T20:01:55.217Z</time>
      </trkpt>
      <trkpt lat="47.520528" lon="7.906930">
        <ele>395.900816</ele>
        <time>2021-11-20T20:01:58.322Z</time>
      </trkpt>
      <trkpt lat="47.520528" lon="7.906930">
        <ele>395.900816</ele>
        <time>2021-11-20T20:01:58.358Z</time>
      </trkpt>
      <trkpt lat="47.520515" lon="7.907103">
        <ele>395.977412</ele>
        <time>2021-11-20T20:02:00.156Z</time>
      </trkpt>
      <trkpt lat="47.520506" lon="7.907236">
        <ele>396.036229</ele>
        <time>2021-11-20T20:02:01.223Z</time>
      </trkpt>
      <trkpt lat="47.520551" lon="7.907422">
        <ele>396.123169</ele>
        <time>2021-11-20T20:02:03.519Z</time>
      </trkpt>
      <trkpt lat="47.520733" lon="7.907655">
        <ele>396.259163</ele>
        <time>2021-11-20T20:02:06.772Z</time>
      </trkpt>
      <trkpt lat="47.520738" lon="7.907839">
        <ele>396.280347</ele>
        <time>2021-11-20T20:02:08.809Z</time>
      </trkpt>
      <trkpt lat="47.520493" lon="7.908683">
        <ele>396.386029</ele>
        <time>2021-11-20T20:02:17.040Z</time>
      </trkpt>
      <trkpt lat="47.519997" lon="7.910833">
        <ele>397.078117</ele>
        <time>2021-11-20T20:02:43.033Z</time>
      </trkpt>
      <trkpt lat="47.519891" lon="7.911129">
        <ele>397.302782</ele>
        <time>2021-11-20T20:02:47.622Z</time>
      </trkpt>
      <trkpt lat="47.519720" lon="7.911522">
        <ele>397.616275</ele>
        <time>2021-11-20T20:02:53.704Z</time>
      </trkpt>
      <trkpt lat="47.519533" lon="7.911882">
        <ele>397.920826</ele>
        <time>2021-11-20T20:02:59.673Z</time>
      </trkpt>
      <trkpt lat="47.519421" lon="7.912098">
        <ele>398.103437</ele>
        <time>2021-11-20T20:03:03.276Z</time>
      </trkpt>
      <trkpt lat="47.517688" lon="7.914418">
        <ele>400.559409</ele>
        <time>2021-11-20T20:03:47.864Z</time>
      </trkpt>
      <trkpt lat="47.517281" lon="7.915238">
        <ele>401.212498</ele>
        <time>2021-11-20T20:04:00.900Z</time>
      </trkpt>
      <trkpt lat="47.517140" lon="7.915259">
        <ele>401.347161</ele>
        <time>2021-11-20T20:04:03.418Z</time>
      </trkpt>
      <trkpt lat="47.516806" lon="7.914896">
        <ele>401.740872</ele>
        <time>2021-11-20T20:04:11.041Z</time>
      </trkpt>
      <trkpt lat="47.516748" lon="7.914873">
        <ele>401.797929</ele>
        <time>2021-11-20T20:04:12.218Z</time>
      </trkpt>
      <trkpt lat="47.516662" lon="7.914835">
        <ele>401.883213</ele>
        <time>2021-11-20T20:04:14.018Z</time>
      </trkpt>
      <trkpt lat="47.516626" lon="7.914830">
        <ele>401.917573</ele>
        <time>2021-11-20T20:04:14.714Z</time>
      </trkpt>
      <trkpt lat="47.516590" lon="7.914840">
        <ele>401.952379</ele>
        <time>2021-11-20T20:04:15.311Z</time>
      </trkpt>
      <trkpt lat="47.516569" lon="7.914864">
        <ele>401.977588</ele>
        <time>2021-11-20T20:04:15.847Z</time>
      </trkpt>
      <trkpt lat="47.516544" lon="7.914936">
        <ele>402.026784</ele>
        <time>2021-11-20T20:04:16.697Z</time>
      </trkpt>
      <trkpt lat="47.516391" lon="7.915243">
        <ele>402.255357</ele>
        <time>2021-11-20T20:04:21.500Z</time>
      </trkpt>
      <trkpt lat="47.515878" lon="7.915909">
        <ele>402.860557</ele>
        <time>2021-11-20T20:04:33.795Z</time>
      </trkpt>
      <trkpt lat="47.515014" lon="7.917030">
        <ele>404.036682</ele>
        <time>2021-11-20T20:04:55.275Z</time>
      </trkpt>
      <trkpt lat="47.514635" lon="7.917349">
        <ele>404.628603</ele>
        <time>2021-11-20T20:05:03.356Z</time>
      </trkpt>
      <trkpt lat="47.514561" lon="7.917409">
        <ele>404.743154</ele>
        <time>2021-11-20T20:05:05.238Z</time>
      </trkpt>
      <trkpt lat="47.514255" lon="7.917714">
        <ele>405.243996</ele>
        <time>2021-11-20T20:05:12.667Z</time>
      </trkpt>
      <trkpt lat="47.513378" lon="7.918393">
        <ele>406.806887</ele>
        <time>2021-11-20T20:05:34.363Z</time>
      </trkpt>
      <trkpt lat="47.513160" lon="7.918764">
        <ele>407.433678</ele>
        <time>2021-11-20T20:05:41.864Z</time>
      </trkpt>
      <trkpt lat="47.513058" lon="7.918896">
        <ele>407.689334</ele>
        <time>2021-11-20T20:05:45.020Z</time>
      </trkpt>
      <trkpt lat="47.512938" lon="7.919052">
        <ele>407.990699</ele>
        <time>2021-11-20T20:05:48.799Z</time>
      </trkpt>
      <trkpt lat="47.512664" lon="7.919306">
        <ele>408.600771</ele>
        <time>2021-11-20T20:05:56.125Z</time>
      </trkpt>
      <trkpt lat="47.512255" lon="7.919538">
        <ele>409.424526</ele>
        <time>2021-11-20T20:06:05.810Z</time>
      </trkpt>
      <trkpt lat="47.512085" lon="7.919732">
        <ele>409.676770</ele>
        <time>2021-11-20T20:06:10.435Z</time>
      </trkpt>
      <trkpt lat="47.511964" lon="7.919989">
        <ele>409.925439</ele>
        <time>2021-11-20T20:06:14.971Z</time>
      </trkpt>
      <trkpt lat="47.511883" lon="7.920133">
        <ele>410.074190</ele>
        <time>2021-11-20T20:06:17.626Z</time>
      </trkpt>
      <trkpt lat="47.511632" lon="7.920105">
        <ele>410.370001</ele>
        <time>2021-11-20T20:06:24.275Z</time>
      </trkpt>
      <trkpt lat="47.511613" lon="7.920183">
        <ele>410.435819</ele>
        <time>2021-11-20T20:06:25.191Z</time>
      </trkpt>
      <trkpt lat="47.511186" lon="7.920984">
        <ele>411.245807</ele>
        <time>2021-11-20T20:06:37.806Z</time>
      </trkpt>
      <trkpt lat="47.511067" lon="7.921207">
        <ele>411.471399</ele>
        <time>2021-11-20T20:06:41.089Z</time>
      </trkpt>
      <trkpt lat="47.511052" lon="7.921232">
        <ele>411.497942</ele>
        <time>2021-11-20T20:06:41.529Z</time>
      </trkpt>
      <trkpt lat="47.510872" lon="7.921477">
        <ele>411.750490</ele>
        <time>2021-11-20T20:06:45.874Z</time>
      </trkpt>
      <trkpt lat="47.510639" lon="7.921796">
        <ele>412.071866</ele>
        <time>2021-11-20T20:06:51.384Z</time>
      </trkpt>
      <trkpt lat="47.509791" lon="7.922527">
        <ele>413.065567</ele>
        <time>2021-11-20T20:07:09.360Z</time>
      </trkpt>
      <trkpt lat="47.509688" lon="7.922616">
        <ele>413.186337</ele>
        <time>2021-11-20T20:07:11.879Z</time>
      </trkpt>
      <trkpt lat="47.509615" lon="7.922742">
        <ele>413.299883</ele>
        <time>2021-11-20T20:07:14.837Z</time>
      </trkpt>
      <trkpt lat="47.509583" lon="7.922962">
        <ele>413.561947</ele>
        <time>2021-11-20T20:07:17.589Z</time>
      </trkpt>
      <trkpt lat="47.509550" lon="7.923245">
        <ele>413.973541</ele>
        <time>2021-11-20T20:07:22.313Z</time>
      </trkpt>
      <trkpt lat="47.509595" lon="7.923295">
        <ele>414.092921</ele>
        <time>2021-11-20T20:07:23.410Z</time>
      </trkpt>
      <trkpt lat="47.509668" lon="7.923400">
        <ele>414.308877</ele>
        <time>2021-11-20T20:07:25.328Z</time>
      </trkpt>
      <trkpt lat="47.509817" lon="7.923703">
        <ele>414.846024</ele>
        <time>2021-11-20T20:07:31.518Z</time>
      </trkpt>
      <trkpt lat="47.509869" lon="7.923971">
        <ele>415.245651</ele>
        <time>2021-11-20T20:07:35.467Z</time>
      </trkpt>
      <trkpt lat="47.509886" lon="7.924134">
        <ele>415.482029</ele>
        <time>2021-11-20T20:07:38.784Z</time>
      </trkpt>
      <trkpt lat="47.509806" lon="7.924174">
        <ele>415.661191</ele>
        <time>2021-11-20T20:07:40.541Z</time>
      </trkpt>
      <trkpt lat="47.509676" lon="7.924247">
        <ele>415.956199</ele>
        <time>2021-11-20T20:07:43.485Z</time>
      </trkpt>
      <trkpt lat="47.509605" lon="7.924290">
        <ele>416.118963</ele>
        <time>2021-11-20T20:07:45.514Z</time>
      </trkpt>
      <trkpt lat="47.509572" lon="7.924311">
        <ele>416.195177</ele>
        <time>2021-11-20T20:07:46.733Z</time>
      </trkpt>
      <trkpt lat="47.509223" lon="7.924628">
        <ele>417.063943</ele>
        <time>2021-11-20T20:07:56.801Z</time>
      </trkpt>
      <trkpt lat="47.509032" lon="7.924863">
        <ele>417.598544</ele>
        <time>2021-11-20T20:08:02.738Z</time>
      </trkpt>
      <trkpt lat="47.509016" lon="7.924882">
        <ele>417.642858</ele>
        <time>2021-11-20T20:08:03.328Z</time>
      </trkpt>
      <trkpt lat="47.508667" lon="7.925295">
        <ele>418.608158</ele>
        <time>2021-11-20T20:08:14.359Z</time>
      </trkpt>
      <trkpt lat="47.508355" lon="7.925609">
        <ele>419.423243</ele>
        <time>2021-11-20T20:08:22.478Z</time>
      </trkpt>
      <trkpt lat="47.508106" lon="7.925799">
        <ele>420.028463</ele>
        <time>2021-11-20T20:08:28.578Z</time>
      </trkpt>
      <trkpt lat="47.508002" lon="7.925879">
        <ele>420.281676</ele>
        <time>2021-11-20T20:08:30.843Z</time>
      </trkpt>
      <trkpt lat="47.507856" lon="7.925990">
        <ele>420.636273</ele>
        <time>2021-11-20T20:08:34.569Z</time>
      </trkpt>
      <trkpt lat="47.506112" lon="7.927414">
        <ele>426.283254</ele>
        <time>2021-11-20T20:09:25.694Z</time>
      </trkpt>
      <trkpt lat="47.505881" lon="7.927601">
        <ele>427.222917</ele>
        <time>2021-11-20T20:09:35.186Z</time>
      </trkpt>
      <trkpt lat="47.505868" lon="7.927611">
        <ele>427.275274</ele>
        <time>2021-11-20T20:09:35.670Z</time>
      </trkpt>
      <trkpt lat="47.505814" lon="7.927657">
        <ele>427.497927</ele>
        <time>2021-11-20T20:09:37.564Z</time>
      </trkpt>
      <trkpt lat="47.505253" lon="7.928170">
        <ele>429.854471</ele>
        <time>2021-11-20T20:09:59.438Z</time>
      </trkpt>
      <trkpt lat="47.504799" lon="7.928777">
        <ele>432.040757</ele>
        <time>2021-11-20T20:10:15.273Z</time>
      </trkpt>
      <trkpt lat="47.504724" lon="7.928871">
        <ele>432.391954</ele>
        <time>2021-11-20T20:10:19.790Z</time>
      </trkpt>
      <trkpt lat="47.504650" lon="7.928941">
        <ele>432.705795</ele>
        <time>2021-11-20T20:10:21.762Z</time>
      </trkpt>
      <trkpt lat="47.504005" lon="7.929312">
        <ele>433.673489</ele>
        <time>2021-11-20T20:10:37.101Z</time>
      </trkpt>
      <trkpt lat="47.503815" lon="7.929426">
        <ele>433.958230</ele>
        <time>2021-11-20T20:10:39.970Z</time>
      </trkpt>
      <trkpt lat="47.503598" lon="7.929585">
        <ele>434.294518</ele>
        <time>2021-11-20T20:10:45.381Z</time>
      </trkpt>
      <trkpt lat="47.503528" lon="7.929650">
        <ele>434.409285</ele>
        <time>2021-11-20T20:10:46.440Z</time>
      </trkpt>
      <trkpt lat="47.503485" lon="7.929688">
        <ele>434.478840</ele>
        <time>2021-11-20T20:10:47.984Z</time>
      </trkpt>
      <trkpt lat="47.503014" lon="7.930220">
        <ele>435.267681</ele>
        <time>2021-11-20T20:10:58.069Z</time>
      </trkpt>
      <trkpt lat="47.502761" lon="7.930610">
        <ele>435.576613</ele>
        <time>2021-11-20T20:11:04.423Z</time>
      </trkpt>
      <trkpt lat="47.502613" lon="7.930856">
        <ele>435.764824</ele>
        <time>2021-11-20T20:11:08.220Z</time>
      </trkpt>
      <trkpt lat="47.502400" lon="7.931256">
        <ele>436.055831</ele>
        <time>2021-11-20T20:11:15.024Z</time>
      </trkpt>
      <trkpt lat="47.502023" lon="7.932158">
        <ele>436.661860</ele>
        <time>2021-11-20T20:11:28.041Z</time>
      </trkpt>
      <trkpt lat="47.501901" lon="7.932351">
        <ele>436.832014</ele>
        <time>2021-11-20T20:11:31.893Z</time>
      </trkpt>
      <trkpt lat="47.501794" lon="7.932466">
        <ele>436.971660</ele>
        <time>2021-11-20T20:11:33.713Z</time>
      </trkpt>
      <trkpt lat="47.501463" lon="7.932668">
        <ele>437.349768</ele>
        <time>2021-11-20T20:11:39.853Z</time>
      </trkpt>
      <trkpt lat="47.501075" lon="7.932885">
        <ele>437.787803</ele>
        <time>2021-11-20T20:11:47.673Z</time>
      </trkpt>
      <trkpt lat="47.500990" lon="7.932950">
        <ele>437.888842</ele>
        <time>2021-11-20T20:11:50.136Z</time>
      </trkpt>
      <trkpt lat="47.500843" lon="7.933102">
        <ele>438.078215</ele>
        <time>2021-11-20T20:11:53.007Z</time>
      </trkpt>
      <trkpt lat="47.500435" lon="7.933872">
        <ele>438.966704</ele>
        <time>2021-11-20T20:12:06.287Z</time>
      </trkpt>
      <trkpt lat="47.500386" lon="7.933937">
        <ele>439.130012</ele>
        <time>2021-11-20T20:12:07.461Z</time>
      </trkpt>
      <trkpt lat="47.500352" lon="7.933976">
        <ele>439.236771</ele>
        <time>2021-11-20T20:12:08.264Z</time>
      </trkpt>
      <trkpt lat="47.500275" lon="7.934029">
        <ele>439.447535</ele>
        <time>2021-11-20T20:12:10.585Z</time>
      </trkpt>
      <trkpt lat="47.500208" lon="7.934071">
        <ele>439.628124</ele>
        <time>2021-11-20T20:12:12.299Z</time>
      </trkpt>
      <trkpt lat="47.500193" lon="7.934023">
        <ele>439.716803</ele>
        <time>2021-11-20T20:12:12.915Z</time>
      </trkpt>
      <trkpt lat="47.500169" lon="7.933984">
        <ele>439.805260</ele>
        <time>2021-11-20T20:12:13.420Z</time>
      </trkpt>
      <trkpt lat="47.500138" lon="7.933956">
        <ele>439.895394</ele>
        <time>2021-11-20T20:12:14.194Z</time>
      </trkpt>
      <trkpt lat="47.500067" lon="7.933946">
        <ele>440.072409</ele>
        <time>2021-11-20T20:12:15.396Z</time>
      </trkpt>
      <trkpt lat="47.500034" lon="7.933965">
        <ele>440.160292</ele>
        <time>2021-11-20T20:12:16.357Z</time>
      </trkpt>
      <trkpt lat="47.500007" lon="7.933994">
        <ele>440.243089</ele>
        <time>2021-11-20T20:12:17.446Z</time>
      </trkpt>
      <trkpt lat="47.499971" lon="7.934127">
        <ele>440.483335</ele>
        <time>2021-11-20T20:12:19.972Z</time>
      </trkpt>
      <trkpt lat="47.499976" lon="7.934175">
        <ele>440.564772</ele>
        <time>2021-11-20T20:12:20.837Z</time>
      </trkpt>
      <trkpt lat="47.499991" lon="7.934221">
        <ele>440.650419</ele>
        <time>2021-11-20T20:12:21.327Z</time>
      </trkpt>
      <trkpt lat="47.500077" lon="7.934300">
        <ele>440.901632</ele>
        <time>2021-11-20T20:12:23.473Z</time>
      </trkpt>
      <trkpt lat="47.500111" lon="7.934299">
        <ele>440.986035</ele>
        <time>2021-11-20T20:12:24.107Z</time>
      </trkpt>
      <trkpt lat="47.500121" lon="7.934400">
        <ele>441.157200</ele>
        <time>2021-11-20T20:12:26.301Z</time>
      </trkpt>
      <trkpt lat="47.500647" lon="7.936766">
        <ele>446.707134</ele>
        <time>2021-11-20T20:13:14.343Z</time>
      </trkpt>
      <trkpt lat="47.500700" lon="7.936982">
        <ele>447.329342</ele>
        <time>2021-11-20T20:13:19.306Z</time>
      </trkpt>
      <trkpt lat="47.500786" lon="7.937295">
        <ele>448.244209</ele>
        <time>2021-11-20T20:13:26.375Z</time>
      </trkpt>
      <trkpt lat="47.500922" lon="7.937675">
        <ele>449.408528</ele>
        <time>2021-11-20T20:13:35.789Z</time>
      </trkpt>
      <trkpt lat="47.501302" lon="7.938421">
        <ele>452.432891</ele>
        <time>2021-11-20T20:13:57.663Z</time>
      </trkpt>
      <trkpt lat="47.503196" lon="7.941586">
        <ele>467.997775</ele>
        <time>2021-11-20T20:15:41.471Z</time>
      </trkpt>
      <trkpt lat="47.503525" lon="7.942511">
        <ele>472.324673</ele>
        <time>2021-11-20T20:16:10.355Z</time>
      </trkpt>
      <trkpt lat="47.503757" lon="7.943678">
        <ele>477.702280</ele>
        <time>2021-11-20T20:16:44.611Z</time>
      </trkpt>
      <trkpt lat="47.503877" lon="7.944221">
        <ele>480.227846</ele>
        <time>2021-11-20T20:17:00.676Z</time>
      </trkpt>
      <trkpt lat="47.504206" lon="7.945339">
        <ele>485.576834</ele>
        <time>2021-11-20T20:17:34.103Z</time>
      </trkpt>
      <trkpt lat="47.504339" lon="7.946127">
        <ele>489.129414</ele>
        <time>2021-11-20T20:17:55.705Z</time>
      </trkpt>
      <trkpt lat="47.504360" lon="7.947339">
        <ele>494.412378</ele>
        <time>2021-11-20T20:18:30.472Z</time>
      </trkpt>
      <trkpt lat="47.504516" lon="7.948210">
        <ele>498.283908</ele>
        <time>2021-11-20T20:18:54.853Z</time>
      </trkpt>
      <trkpt lat="47.504564" lon="7.948438">
        <ele>499.309972</ele>
        <time>2021-11-20T20:19:01.979Z</time>
      </trkpt>
      <trkpt lat="47.504637" lon="7.948756">
        <ele>500.752981</ele>
        <time>2021-11-20T20:19:10.610Z</time>
      </trkpt>
      <trkpt lat="47.504833" lon="7.949650">
        <ele>504.785627</ele>
        <time>2021-11-20T20:19:35.381Z</time>
      </trkpt>
      <trkpt lat="47.505078" lon="7.950674">
        <ele>508.880947</ele>
        <time>2021-11-20T20:20:04.857Z</time>
      </trkpt>
      <trkpt lat="47.505298" lon="7.951312">
        <ele>511.581347</ele>
        <time>2021-11-20T20:20:22.127Z</time>
      </trkpt>
      <trkpt lat="47.505561" lon="7.951903">
        <ele>514.249308</ele>
        <time>2021-11-20T20:20:38.507Z</time>
      </trkpt>
      <trkpt lat="47.505724" lon="7.952248">
        <ele>515.748471</ele>
        <time>2021-11-20T20:20:48.403Z</time>
      </trkpt>
      <trkpt lat="47.506242" lon="7.953373">
        <ele>520.452386</ele>
        <time>2021-11-20T20:21:22.866Z</time>
      </trkpt>
      <trkpt lat="47.506403" lon="7.953752">
        <ele>521.999215</ele>
        <time>2021-11-20T20:21:34.295Z</time>
      </trkpt>
      <trkpt lat="47.506539" lon="7.954325">
        <ele>523.973778</ele>
        <time>2021-11-20T20:21:48.166Z</time>
      </trkpt>
      <trkpt lat="47.506555" lon="7.954505">
        <ele>523.926789</ele>
        <time>2021-11-20T20:21:52.533Z</time>
      </trkpt>
      <trkpt lat="47.506559" lon="7.954699">
        <ele>523.876555</ele>
        <time>2021-11-20T20:21:56.416Z</time>
      </trkpt>
      <trkpt lat="47.506560" lon="7.954845">
        <ele>523.838766</ele>
        <time>2021-11-20T20:21:58.679Z</time>
      </trkpt>
      <trkpt lat="47.506539" lon="7.955130">
        <ele>523.764565</ele>
        <time>2021-11-20T20:22:04.418Z</time>
      </trkpt>
      <trkpt lat="47.506484" lon="7.955438">
        <ele>523.682111</ele>
        <time>2021-11-20T20:22:06.817Z</time>
      </trkpt>
      <trkpt lat="47.506190" lon="7.956344">
        <ele>523.421969</ele>
        <time>2021-11-20T20:22:14.523Z</time>
      </trkpt>
      <trkpt lat="47.506053" lon="7.957072">
        <ele>522.099546</ele>
        <time>2021-11-20T20:22:19.686Z</time>
      </trkpt>
      <trkpt lat="47.506050" lon="7.957299">
        <ele>521.050822</ele>
        <time>2021-11-20T20:22:21.130Z</time>
      </trkpt>
      <trkpt lat="47.506050" lon="7.957397">
        <ele>520.598156</ele>
        <time>2021-11-20T20:22:21.680Z</time>
      </trkpt>
      <trkpt lat="47.506128" lon="7.958087">
        <ele>517.366699</ele>
        <time>2021-11-20T20:22:25.955Z</time>
      </trkpt>
      <trkpt lat="47.506363" lon="7.959196">
        <ele>511.998075</ele>
        <time>2021-11-20T20:22:32.863Z</time>
      </trkpt>
      <trkpt lat="47.506641" lon="7.959810">
        <ele>508.489271</ele>
        <time>2021-11-20T20:22:37.249Z</time>
      </trkpt>
      <trkpt lat="47.506874" lon="7.960127">
        <ele>506.240495</ele>
        <time>2021-11-20T20:22:40.110Z</time>
      </trkpt>
      <trkpt lat="47.507319" lon="7.960495">
        <ele>502.618299</ele>
        <time>2021-11-20T20:22:44.738Z</time>
      </trkpt>
      <trkpt lat="47.509248" lon="7.961556">
        <ele>487.664179</ele>
        <time>2021-11-20T20:23:03.255Z</time>
      </trkpt>
      <trkpt lat="47.509385" lon="7.961632">
        <ele>486.590873</ele>
        <time>2021-11-20T20:23:04.536Z</time>
      </trkpt>
      <trkpt lat="47.509788" lon="7.961854">
        <ele>483.193463</ele>
        <time>2021-11-20T20:23:08.297Z</time>
      </trkpt>
      <trkpt lat="47.510127" lon="7.962072">
        <ele>480.065551</ele>
        <time>2021-11-20T20:23:11.543Z</time>
      </trkpt>
      <trkpt lat="47.510301" lon="7.962209">
        <ele>478.397695</ele>
        <time>2021-11-20T20:23:13.254Z</time>
      </trkpt>
      <trkpt lat="47.510406" lon="7.962296">
        <ele>477.379381</ele>
        <time>2021-11-20T20:23:14.325Z</time>
      </trkpt>
      <trkpt lat="47.510552" lon="7.962453">
        <ele>475.852245</ele>
        <time>2021-11-20T20:23:15.914Z</time>
      </trkpt>
      <trkpt lat="47.510679" lon="7.962576">
        <ele>474.567894</ele>
        <time>2021-11-20T20:23:17.216Z</time>
      </trkpt>
      <trkpt lat="47.510706" lon="7.962606">
        <ele>474.282200</ele>
        <time>2021-11-20T20:23:17.515Z</time>
      </trkpt>
      <trkpt lat="47.510909" lon="7.962826">
        <ele>472.153114</ele>
        <time>2021-11-20T20:23:19.692Z</time>
      </trkpt>
      <trkpt lat="47.511697" lon="7.963783">
        <ele>465.125728</ele>
        <time>2021-11-20T20:23:28.770Z</time>
      </trkpt>
      <trkpt lat="47.511807" lon="7.963896">
        <ele>464.281539</ele>
        <time>2021-11-20T20:23:29.954Z</time>
      </trkpt>
      <trkpt lat="47.511885" lon="7.963977">
        <ele>463.680806</ele>
        <time>2021-11-20T20:23:30.847Z</time>
      </trkpt>
      <trkpt lat="47.512003" lon="7.964065">
        <ele>462.847722</ele>
        <time>2021-11-20T20:23:32.073Z</time>
      </trkpt>
      <trkpt lat="47.512076" lon="7.964120">
        <ele>462.331263</ele>
        <time>2021-11-20T20:23:32.793Z</time>
      </trkpt>
      <trkpt lat="47.512806" lon="7.964495">
        <ele>458.311996</ele>
        <time>2021-11-20T20:23:40.133Z</time>
      </trkpt>
      <trkpt lat="47.513069" lon="7.964710">
        <ele>458.040200</ele>
        <time>2021-11-20T20:23:43.122Z</time>
      </trkpt>
      <trkpt lat="47.513157" lon="7.964839">
        <ele>457.928166</ele>
        <time>2021-11-20T20:23:44.394Z</time>
      </trkpt>
      <trkpt lat="47.513387" lon="7.965176">
        <ele>457.635417</ele>
        <time>2021-11-20T20:23:48.130Z</time>
      </trkpt>
      <trkpt lat="47.513439" lon="7.965284">
        <ele>457.554372</ele>
        <time>2021-11-20T20:23:49.093Z</time>
      </trkpt>
      <trkpt lat="47.513496" lon="7.965435">
        <ele>457.448671</ele>
        <time>2021-11-20T20:23:50.905Z</time>
      </trkpt>
      <trkpt lat="47.513552" lon="7.965694">
        <ele>457.282499</ele>
        <time>2021-11-20T20:23:54.200Z</time>
      </trkpt>
      <trkpt lat="47.513574" lon="7.965795">
        <ele>457.217653</ele>
        <time>2021-11-20T20:23:55.254Z</time>
      </trkpt>
      <trkpt lat="47.513607" lon="7.966067">
        <ele>457.048788</ele>
        <time>2021-11-20T20:23:59.865Z</time>
      </trkpt>
      <trkpt lat="47.513677" lon="7.966493">
        <ele>457.103888</ele>
        <time>2021-11-20T20:24:06.255Z</time>
      </trkpt>
      <trkpt lat="47.513719" lon="7.966609">
        <ele>457.579281</ele>
        <time>2021-11-20T20:24:09.148Z</time>
      </trkpt>
      <trkpt lat="47.513963" lon="7.966968">
        <ele>459.418862</ele>
        <time>2021-11-20T20:24:19.459Z</time>
      </trkpt>
      <trkpt lat="47.514175" lon="7.967361">
        <ele>461.235532</ele>
        <time>2021-11-20T20:24:30.387Z</time>
      </trkpt>
      <trkpt lat="47.514265" lon="7.967596">
        <ele>462.211296</ele>
        <time>2021-11-20T20:24:38.637Z</time>
      </trkpt>
      <trkpt lat="47.514175" lon="7.967704">
        <ele>462.830826</ele>
        <time>2021-11-20T20:24:43.466Z</time>
      </trkpt>
      <trkpt lat="47.514050" lon="7.967928">
        <ele>463.880327</ele>
        <time>2021-11-20T20:24:53.388Z</time>
      </trkpt>
      <trkpt lat="47.513954" lon="7.968241">
        <ele>465.121971</ele>
        <time>2021-11-20T20:25:02.558Z</time>
      </trkpt>
      <trkpt lat="47.513956" lon="7.968306">
        <ele>465.356991</ele>
        <time>2021-11-20T20:25:05.383Z</time>
      </trkpt>
      <trkpt lat="47.514063" lon="7.968503">
        <ele>466.270081</ele>
        <time>2021-11-20T20:25:13.939Z</time>
      </trkpt>
      <trkpt lat="47.514192" lon="7.968881">
        <ele>469.149104</ele>
        <time>2021-11-20T20:25:28.850Z</time>
      </trkpt>
      <trkpt lat="47.514252" lon="7.969247">
        <ele>471.865683</ele>
        <time>2021-11-20T20:25:40.825Z</time>
      </trkpt>
      <trkpt lat="47.514251" lon="7.969369">
        <ele>472.745724</ele>
        <time>2021-11-20T20:25:46.405Z</time>
      </trkpt>
      <trkpt lat="47.514175" lon="7.969716">
        <ele>475.376917</ele>
        <time>2021-11-20T20:26:00.685Z</time>
      </trkpt>
      <trkpt lat="47.514154" lon="7.969822">
        <ele>476.173700</ele>
        <time>2021-11-20T20:26:06.721Z</time>
      </trkpt>
      <trkpt lat="47.514100" lon="7.970085">
        <ele>478.156421</ele>
        <time>2021-11-20T20:26:17.487Z</time>
      </trkpt>
      <trkpt lat="47.514096" lon="7.970598">
        <ele>481.856905</ele>
        <time>2021-11-20T20:26:42.305Z</time>
      </trkpt>
      <trkpt lat="47.514085" lon="7.970901">
        <ele>484.045580</ele>
        <time>2021-11-20T20:26:57.831Z</time>
      </trkpt>
      <trkpt lat="47.514065" lon="7.971024">
        <ele>484.958120</ele>
        <time>2021-11-20T20:27:04.272Z</time>
      </trkpt>
      <trkpt lat="47.513918" lon="7.971521">
        <ele>490.003767</ele>
        <time>2021-11-20T20:27:32.457Z</time>
      </trkpt>
      <trkpt lat="47.513879" lon="7.971681">
        <ele>491.662497</ele>
        <time>2021-11-20T20:27:41.171Z</time>
      </trkpt>
      <trkpt lat="47.513840" lon="7.971891">
        <ele>493.786309</ele>
        <time>2021-11-20T20:27:53.040Z</time>
      </trkpt>
      <trkpt lat="47.513818" lon="7.972354">
        <ele>498.312403</ele>
        <time>2021-11-20T20:28:17.453Z</time>
      </trkpt>
      <trkpt lat="47.513785" lon="7.972598">
        <ele>500.738998</ele>
        <time>2021-11-20T20:28:30.797Z</time>
      </trkpt>
      <trkpt lat="47.513724" lon="7.972836">
        <ele>503.221339</ele>
        <time>2021-11-20T20:28:45.156Z</time>
      </trkpt>
      <trkpt lat="47.513109" lon="7.975074">
        <ele>524.778642</ele>
        <time>2021-11-20T20:30:53.111Z</time>
      </trkpt>
      <trkpt lat="47.512725" lon="7.975715">
        <ele>532.029430</ele>
        <time>2021-11-20T20:31:29.204Z</time>
      </trkpt>
      <trkpt lat="47.512616" lon="7.975859">
        <ele>533.859778</ele>
        <time>2021-11-20T20:31:38.125Z</time>
      </trkpt>
      <trkpt lat="47.512412" lon="7.976165">
        <ele>535.854643</ele>
        <time>2021-11-20T20:31:54.218Z</time>
      </trkpt>
      <trkpt lat="47.512200" lon="7.976779">
        <ele>538.817853</ele>
        <time>2021-11-20T20:32:17.599Z</time>
      </trkpt>
      <trkpt lat="47.512118" lon="7.977012">
        <ele>539.946856</ele>
        <time>2021-11-20T20:32:26.160Z</time>
      </trkpt>
      <trkpt lat="47.511857" lon="7.977310">
        <ele>542.043786</ele>
        <time>2021-11-20T20:32:40.942Z</time>
      </trkpt>
      <trkpt lat="47.511169" lon="7.978482">
        <ele>545.993362</ele>
        <time>2021-11-20T20:33:17.154Z</time>
      </trkpt>
      <trkpt lat="47.511094" lon="7.978570">
        <ele>546.069840</ele>
        <time>2021-11-20T20:33:20.438Z</time>
      </trkpt>
      <trkpt lat="47.511058" lon="7.978612">
        <ele>546.106469</ele>
        <time>2021-11-20T20:33:21.629Z</time>
      </trkpt>
      <trkpt lat="47.510754" lon="7.979067">
        <ele>546.451932</ele>
        <time>2021-11-20T20:33:30.660Z</time>
      </trkpt>
      <trkpt lat="47.510721" lon="7.979135">
        <ele>546.497130</ele>
        <time>2021-11-20T20:33:31.442Z</time>
      </trkpt>
      <trkpt lat="47.510671" lon="7.979251">
        <ele>546.571410</ele>
        <time>2021-11-20T20:33:33.361Z</time>
      </trkpt>
      <trkpt lat="47.510628" lon="7.979350">
        <ele>546.634945</ele>
        <time>2021-11-20T20:33:35.350Z</time>
      </trkpt>
      <trkpt lat="47.510553" lon="7.979575">
        <ele>546.770384</ele>
        <time>2021-11-20T20:33:38.320Z</time>
      </trkpt>
      <trkpt lat="47.510427" lon="7.979928">
        <ele>546.985903</ele>
        <time>2021-11-20T20:33:43.680Z</time>
      </trkpt>
      <trkpt lat="47.510411" lon="7.979962">
        <ele>547.008271</ele>
        <time>2021-11-20T20:33:44.190Z</time>
      </trkpt>
      <trkpt lat="47.510389" lon="7.979980">
        <ele>547.028359</ele>
        <time>2021-11-20T20:33:44.655Z</time>
      </trkpt>
      <trkpt lat="47.510337" lon="7.979978">
        <ele>546.927338</ele>
        <time>2021-11-20T20:33:45.344Z</time>
      </trkpt>
      <trkpt lat="47.509027" lon="7.978788">
        <ele>542.384648</ele>
        <time>2021-11-20T20:34:08.748Z</time>
      </trkpt>
      <trkpt lat="47.508948" lon="7.978799">
        <ele>542.150120</ele>
        <time>2021-11-20T20:34:09.797Z</time>
      </trkpt>
      <trkpt lat="47.508881" lon="7.978903">
        <ele>541.863193</ele>
        <time>2021-11-20T20:34:11.118Z</time>
      </trkpt>
      <trkpt lat="47.508750" lon="7.979260">
        <ele>540.018782</ele>
        <time>2021-11-20T20:34:14.718Z</time>
      </trkpt>
      <trkpt lat="47.508546" lon="7.979750">
        <ele>537.100859</ele>
        <time>2021-11-20T20:34:19.751Z</time>
      </trkpt>
      <trkpt lat="47.508298" lon="7.980362">
        <ele>533.482906</ele>
        <time>2021-11-20T20:34:25.896Z</time>
      </trkpt>
      <trkpt lat="47.508160" lon="7.980614">
        <ele>531.838328</ele>
        <time>2021-11-20T20:34:28.598Z</time>
      </trkpt>
      <trkpt lat="47.507123" lon="7.982752">
        <ele>516.255901</ele>
        <time>2021-11-20T20:34:50.411Z</time>
      </trkpt>
      <trkpt lat="47.507055" lon="7.982858">
        <ele>515.344266</ele>
        <time>2021-11-20T20:34:51.644Z</time>
      </trkpt>
      <trkpt lat="47.507011" lon="7.982902">
        <ele>514.854064</ele>
        <time>2021-11-20T20:34:52.283Z</time>
      </trkpt>
      <trkpt lat="47.506875" lon="7.982899">
        <ele>513.598370</ele>
        <time>2021-11-20T20:34:53.997Z</time>
      </trkpt>
      <trkpt lat="47.506692" lon="7.982561">
        <ele>510.951897</ele>
        <time>2021-11-20T20:34:57.644Z</time>
      </trkpt>
      <trkpt lat="47.506233" lon="7.982148">
        <ele>506.369695</ele>
        <time>2021-11-20T20:35:04.391Z</time>
      </trkpt>
      <trkpt lat="47.505601" lon="7.981812">
        <ele>500.641062</ele>
        <time>2021-11-20T20:35:12.782Z</time>
      </trkpt>
      <trkpt lat="47.505399" lon="7.981833">
        <ele>498.913591</ele>
        <time>2021-11-20T20:35:15.327Z</time>
      </trkpt>
      <trkpt lat="47.505275" lon="7.981948">
        <ele>497.665318</ele>
        <time>2021-11-20T20:35:17.153Z</time>
      </trkpt>
      <trkpt lat="47.505164" lon="7.982187">
        <ele>495.928654</ele>
        <time>2021-11-20T20:35:19.576Z</time>
      </trkpt>
      <trkpt lat="47.505153" lon="7.982527">
        <ele>493.512866</ele>
        <time>2021-11-20T20:35:22.410Z</time>
      </trkpt>
      <trkpt lat="47.505235" lon="7.983158">
        <ele>488.952473</ele>
        <time>2021-11-20T20:35:27.692Z</time>
      </trkpt>
      <trkpt lat="47.505169" lon="7.983598">
        <ele>485.753683</ele>
        <time>2021-11-20T20:35:31.356Z</time>
      </trkpt>
      <trkpt lat="47.505014" lon="7.983996">
        <ele>482.493233</ele>
        <time>2021-11-20T20:35:35.088Z</time>
      </trkpt>
      <trkpt lat="47.504558" lon="7.985032">
        <ele>473.605879</ele>
        <time>2021-11-20T20:35:45.171Z</time>
      </trkpt>
      <trkpt lat="47.504408" lon="7.985264">
        <ele>471.257216</ele>
        <time>2021-11-20T20:35:47.765Z</time>
      </trkpt>
      <trkpt lat="47.503784" lon="7.986110">
        <ele>462.096303</ele>
        <time>2021-11-20T20:35:57.976Z</time>
      </trkpt>
      <trkpt lat="47.502975" lon="7.987226">
        <ele>450.870167</ele>
        <time>2021-11-20T20:36:11.440Z</time>
      </trkpt>
      <trkpt lat="47.502461" lon="7.987886">
        <ele>444.209710</ele>
        <time>2021-11-20T20:36:19.772Z</time>
      </trkpt>
      <trkpt lat="47.501201" lon="7.989503">
        <ele>429.132055</ele>
        <time>2021-11-20T20:36:40.373Z</time>
      </trkpt>
      <trkpt lat="47.498444" lon="7.993225">
        <ele>399.068016</ele>
        <time>2021-11-20T20:37:27.227Z</time>
      </trkpt>
      <trkpt lat="47.498171" lon="7.993563">
        <ele>396.315805</ele>
        <time>2021-11-20T20:37:31.769Z</time>
      </trkpt>
      <trkpt lat="47.497655" lon="7.993896">
        <ele>393.225803</ele>
        <time>2021-11-20T20:37:39.069Z</time>
      </trkpt>
      <trkpt lat="47.497169" lon="7.994210">
        <ele>390.406703</ele>
        <time>2021-11-20T20:37:46.056Z</time>
      </trkpt>
      <trkpt lat="47.495891" lon="7.995038">
        <ele>384.324621</ele>
        <time>2021-11-20T20:38:05.751Z</time>
      </trkpt>
      <trkpt lat="47.495297" lon="7.995227">
        <ele>382.343297</ele>
        <time>2021-11-20T20:38:14.718Z</time>
      </trkpt>
      <trkpt lat="47.494770" lon="7.995288">
        <ele>380.619472</ele>
        <time>2021-11-20T20:38:22.457Z</time>
      </trkpt>
      <trkpt lat="47.494663" lon="7.995312">
        <ele>380.397392</ele>
        <time>2021-11-20T20:38:24.109Z</time>
      </trkpt>
      <trkpt lat="47.494655" lon="7.995343">
        <ele>380.355132</ele>
        <time>2021-11-20T20:38:24.359Z</time>
      </trkpt>
      <trkpt lat="47.494627" lon="7.995447">
        <ele>380.212558</ele>
        <time>2021-11-20T20:38:25.143Z</time>
      </trkpt>
      <trkpt lat="47.494368" lon="7.995845">
        <ele>379.508838</ele>
        <time>2021-11-20T20:38:29.194Z</time>
      </trkpt>
      <trkpt lat="47.494293" lon="7.995952">
        <ele>379.312491</ele>
        <time>2021-11-20T20:38:30.342Z</time>
      </trkpt>
      <trkpt lat="47.494203" lon="7.996025">
        <ele>379.119050</ele>
        <time>2021-11-20T20:38:31.434Z</time>
      </trkpt>
      <trkpt lat="47.493967" lon="7.996177">
        <ele>378.633931</ele>
        <time>2021-11-20T20:38:34.351Z</time>
      </trkpt>
      <trkpt lat="47.493868" lon="7.996295">
        <ele>378.394343</ele>
        <time>2021-11-20T20:38:35.753Z</time>
      </trkpt>
      <trkpt lat="47.493757" lon="7.996428">
        <ele>378.125155</ele>
        <time>2021-11-20T20:38:37.413Z</time>
      </trkpt>
      <trkpt lat="47.493684" lon="7.996562">
        <ele>377.905941</ele>
        <time>2021-11-20T20:38:38.706Z</time>
      </trkpt>
      <trkpt lat="47.493652" lon="7.996488">
        <ele>377.794051</ele>
        <time>2021-11-20T20:38:39.373Z</time>
      </trkpt>
      <trkpt lat="47.493567" lon="7.996156">
        <ele>377.341900</ele>
        <time>2021-11-20T20:38:42.164Z</time>
      </trkpt>
      <trkpt lat="47.493524" lon="7.995985">
        <ele>377.189565</ele>
        <time>2021-11-20T20:38:43.547Z</time>
      </trkpt>
      <trkpt lat="47.493430" lon="7.995894">
        <ele>377.198229</ele>
        <time>2021-11-20T20:38:44.996Z</time>
      </trkpt>
      <trkpt lat="47.492867" lon="7.995700">
        <ele>377.242819</ele>
        <time>2021-11-20T20:38:52.592Z</time>
      </trkpt>
      <trkpt lat="47.492390" lon="7.995213">
        <ele>377.287519</ele>
        <time>2021-11-20T20:39:02.531Z</time>
      </trkpt>
      <trkpt lat="47.492344" lon="7.995171">
        <ele>377.291688</ele>
        <time>2021-11-20T20:39:03.541Z</time>
      </trkpt>
      <trkpt lat="47.492271" lon="7.995104">
        <ele>377.298314</ele>
        <time>2021-11-20T20:39:05.156Z</time>
      </trkpt>
      <trkpt lat="47.492156" lon="7.994971">
        <ele>377.309572</ele>
        <time>2021-11-20T20:39:07.685Z</time>
      </trkpt>
      <trkpt lat="47.491996" lon="7.994807">
        <ele>377.324585</ele>
        <time>2021-11-20T20:39:12.365Z</time>
      </trkpt>
      <trkpt lat="47.491759" lon="7.994592">
        <ele>377.634480</ele>
        <time>2021-11-20T20:39:18.860Z</time>
      </trkpt>
      <trkpt lat="47.491577" lon="7.994479">
        <ele>377.860152</ele>
        <time>2021-11-20T20:39:23.656Z</time>
      </trkpt>
      <trkpt lat="47.491370" lon="7.994298">
        <ele>378.135061</ele>
        <time>2021-11-20T20:39:29.604Z</time>
      </trkpt>
      <trkpt lat="47.490495" lon="7.993473">
        <ele>379.321334</ele>
        <time>2021-11-20T20:39:55.861Z</time>
      </trkpt>
      <trkpt lat="47.490253" lon="7.993147">
        <ele>379.736141</ele>
        <time>2021-11-20T20:40:04.329Z</time>
      </trkpt>
      <trkpt lat="47.490184" lon="7.993055">
        <ele>379.856086</ele>
        <time>2021-11-20T20:40:06.717Z</time>
      </trkpt>
      <trkpt lat="47.489739" lon="7.992457">
        <ele>380.632379</ele>
        <time>2021-11-20T20:40:21.821Z</time>
      </trkpt>
      <trkpt lat="47.489640" lon="7.992334">
        <ele>380.799320</ele>
        <time>2021-11-20T20:40:25.064Z</time>
      </trkpt>
      <trkpt lat="47.489544" lon="7.992214">
        <ele>380.961611</ele>
        <time>2021-11-20T20:40:28.392Z</time>
      </trkpt>
      <trkpt lat="47.489090" lon="7.991643">
        <ele>381.736304</ele>
        <time>2021-11-20T20:40:43.385Z</time>
      </trkpt>
      <trkpt lat="47.488771" lon="7.991233">
        <ele>382.389661</ele>
        <time>2021-11-20T20:40:54.106Z</time>
      </trkpt>
      <trkpt lat="47.488698" lon="7.991149">
        <ele>382.532654</ele>
        <time>2021-11-20T20:40:56.583Z</time>
      </trkpt>
      <trkpt lat="47.487359" lon="7.989771">
        <ele>385.079965</ele>
        <time>2021-11-20T20:41:40.191Z</time>
      </trkpt>
      <trkpt lat="47.487298" lon="7.989709">
        <ele>385.199485</ele>
        <time>2021-11-20T20:41:42.501Z</time>
      </trkpt>
      <trkpt lat="47.487127" lon="7.989547">
        <ele>385.527413</ele>
        <time>2021-11-20T20:41:47.661Z</time>
      </trkpt>
      <trkpt lat="47.486511" lon="7.989012">
        <ele>386.680999</ele>
        <time>2021-11-20T20:42:06.869Z</time>
      </trkpt>
      <trkpt lat="47.486162" lon="7.988596">
        <ele>387.404064</ele>
        <time>2021-11-20T20:42:18.798Z</time>
      </trkpt>
      <trkpt lat="47.485848" lon="7.988106">
        <ele>388.102650</ele>
        <time>2021-11-20T20:42:30.950Z</time>
      </trkpt>
      <trkpt lat="47.485496" lon="7.987549">
        <ele>388.891580</ele>
        <time>2021-11-20T20:42:43.878Z</time>
      </trkpt>
      <trkpt lat="47.484679" lon="7.986270">
        <ele>390.903185</ele>
        <time>2021-11-20T20:43:15.381Z</time>
      </trkpt>
      <trkpt lat="47.484546" lon="7.985963">
        <ele>391.407257</ele>
        <time>2021-11-20T20:43:22.478Z</time>
      </trkpt>
      <trkpt lat="47.484451" lon="7.985647">
        <ele>391.885331</ele>
        <time>2021-11-20T20:43:29.426Z</time>
      </trkpt>
      <trkpt lat="47.484219" lon="7.985842">
        <ele>392.431082</ele>
        <time>2021-11-20T20:43:37.348Z</time>
      </trkpt>
      <trkpt lat="47.484091" lon="7.985948">
        <ele>392.731109</ele>
        <time>2021-11-20T20:43:41.668Z</time>
      </trkpt>
      <trkpt lat="47.484049" lon="7.985980">
        <ele>392.827737</ele>
        <time>2021-11-20T20:43:43.032Z</time>
      </trkpt>
      <trkpt lat="47.483826" lon="7.986159">
        <ele>393.346657</ele>
        <time>2021-11-20T20:43:50.593Z</time>
      </trkpt>
      <trkpt lat="47.483550" lon="7.986378">
        <ele>393.892533</ele>
        <time>2021-11-20T20:43:59.570Z</time>
      </trkpt>
      <trkpt lat="47.483462" lon="7.986151">
        <ele>394.045106</ele>
        <time>2021-11-20T20:44:03.458Z</time>
      </trkpt>
      <trkpt lat="47.483382" lon="7.985915">
        <ele>394.199038</ele>
        <time>2021-11-20T20:44:07.561Z</time>
      </trkpt>
      <trkpt lat="47.483356" lon="7.985963">
        <ele>394.234902</ele>
        <time>2021-11-20T20:44:08.531Z</time>
      </trkpt>
      <trkpt lat="47.483310" lon="7.986188">
        <ele>394.371953</ele>
        <time>2021-11-20T20:44:11.819Z</time>
      </trkpt>
      <trkpt lat="47.483308" lon="7.986306">
        <ele>394.440771</ele>
        <time>2021-11-20T20:44:13.642Z</time>
      </trkpt>
      <trkpt lat="47.483309" lon="7.986795">
        <ele>394.725868</ele>
        <time>2021-11-20T20:44:20.379Z</time>
      </trkpt>
      <trkpt lat="47.483382" lon="7.988556">
        <ele>394.998561</ele>
        <time>2021-11-20T20:44:36.710Z</time>
      </trkpt>
      <trkpt lat="47.483339" lon="7.989304">
        <ele>394.564076</ele>
        <time>2021-11-20T20:44:42.641Z</time>
      </trkpt>
      <trkpt lat="47.483318" lon="7.989442">
        <ele>394.482206</ele>
        <time>2021-11-20T20:44:43.654Z</time>
      </trkpt>
      <trkpt lat="47.483225" lon="7.989955">
        <ele>394.174798</ele>
        <time>2021-11-20T20:44:47.941Z</time>
      </trkpt>
      <trkpt lat="47.483198" lon="7.990097">
        <ele>394.089421</ele>
        <time>2021-11-20T20:44:49.398Z</time>
      </trkpt>
      <trkpt lat="47.483192" lon="7.990129">
        <ele>394.070200</ele>
        <time>2021-11-20T20:44:49.675Z</time>
      </trkpt>
      <trkpt lat="47.483152" lon="7.990327">
        <ele>393.950592</ele>
        <time>2021-11-20T20:44:51.463Z</time>
      </trkpt>
      <trkpt lat="47.483027" lon="7.990927">
        <ele>393.985002</ele>
        <time>2021-11-20T20:44:56.863Z</time>
      </trkpt>
      <trkpt lat="47.483009" lon="7.990995">
        <ele>394.010657</ele>
        <time>2021-11-20T20:44:57.469Z</time>
      </trkpt>
      <trkpt lat="47.482872" lon="7.991012">
        <ele>394.082119</ele>
        <time>2021-11-20T20:44:59.755Z</time>
      </trkpt>
      <trkpt lat="47.482259" lon="7.991194">
        <ele>394.407109</ele>
        <time>2021-11-20T20:45:09.628Z</time>
      </trkpt>
      <trkpt lat="47.481732" lon="7.991480">
        <ele>394.698887</ele>
        <time>2021-11-20T20:45:21.200Z</time>
      </trkpt>
      <trkpt lat="47.481496" lon="7.991617">
        <ele>394.945661</ele>
        <time>2021-11-20T20:45:26.781Z</time>
      </trkpt>
      <trkpt lat="47.481096" lon="7.991850">
        <ele>395.590542</ele>
        <time>2021-11-20T20:45:35.701Z</time>
      </trkpt>
      <trkpt lat="47.480657" lon="7.991988">
        <ele>396.263804</ele>
        <time>2021-11-20T20:45:44.932Z</time>
      </trkpt>
      <trkpt lat="47.480402" lon="7.991988">
        <ele>396.646341</ele>
        <time>2021-11-20T20:45:50.572Z</time>
      </trkpt>
      <trkpt lat="47.479254" lon="7.991575">
        <ele>398.419744</ele>
        <time>2021-11-20T20:46:14.726Z</time>
      </trkpt>
      <trkpt lat="47.479179" lon="7.991567">
        <ele>398.532673</ele>
        <time>2021-11-20T20:46:16.349Z</time>
      </trkpt>
      <trkpt lat="47.479142" lon="7.991563">
        <ele>398.588389</ele>
        <time>2021-11-20T20:46:17.068Z</time>
      </trkpt>
      <trkpt lat="47.478975" lon="7.991551">
        <ele>398.839489</ele>
        <time>2021-11-20T20:46:20.445Z</time>
      </trkpt>
      <trkpt lat="47.477593" lon="7.991455">
        <ele>401.470397</ele>
        <time>2021-11-20T20:46:49.730Z</time>
      </trkpt>
      <trkpt lat="47.477212" lon="7.991382">
        <ele>402.473930</ele>
        <time>2021-11-20T20:46:58.465Z</time>
      </trkpt>
      <trkpt lat="47.476858" lon="7.991285">
        <ele>403.414350</ele>
        <time>2021-11-20T20:47:07.342Z</time>
      </trkpt>
      <trkpt lat="47.476495" lon="7.991119">
        <ele>404.406814</ele>
        <time>2021-11-20T20:47:17.896Z</time>
      </trkpt>
      <trkpt lat="47.475752" lon="7.990844">
        <ele>408.399967</ele>
        <time>2021-11-20T20:47:43.272Z</time>
      </trkpt>
      <trkpt lat="47.475384" lon="7.990744">
        <ele>410.641862</ele>
        <time>2021-11-20T20:47:57.528Z</time>
      </trkpt>
      <trkpt lat="47.474869" lon="7.990750">
        <ele>413.727774</ele>
        <time>2021-11-20T20:48:19.139Z</time>
      </trkpt>
      <trkpt lat="47.473566" lon="7.991189">
        <ele>422.550254</ele>
        <time>2021-11-20T20:49:21.457Z</time>
      </trkpt>
      <trkpt lat="47.473097" lon="7.991272">
        <ele>425.759295</ele>
        <time>2021-11-20T20:49:40.510Z</time>
      </trkpt>
      <trkpt lat="47.472796" lon="7.991311">
        <ele>427.812077</ele>
        <time>2021-11-20T20:49:51.726Z</time>
      </trkpt>
      <trkpt lat="47.472461" lon="7.991354">
        <ele>428.668388</ele>
        <time>2021-11-20T20:50:02.610Z</time>
      </trkpt>
      <trkpt lat="47.471790" lon="7.991484">
        <ele>430.324301</ele>
        <time>2021-11-20T20:50:20.733Z</time>
      </trkpt>
      <trkpt lat="47.471617" lon="7.991535">
        <ele>430.755943</ele>
        <time>2021-11-20T20:50:24.280Z</time>
      </trkpt>
      <trkpt lat="47.470749" lon="7.991887">
        <ele>432.380932</ele>
        <time>2021-11-20T20:50:39.498Z</time>
      </trkpt>
      <trkpt lat="47.470033" lon="7.992305">
        <ele>432.694536</ele>
        <time>2021-11-20T20:50:51.150Z</time>
      </trkpt>
      <trkpt lat="47.469747" lon="7.992506">
        <ele>432.823538</ele>
        <time>2021-11-20T20:50:56.422Z</time>
      </trkpt>
      <trkpt lat="47.469362" lon="7.992773">
        <ele>432.996774</ele>
        <time>2021-11-20T20:51:03.885Z</time>
      </trkpt>
      <trkpt lat="47.468375" lon="7.993424">
        <ele>433.828953</ele>
        <time>2021-11-20T20:51:22.908Z</time>
      </trkpt>
      <trkpt lat="47.468089" lon="7.993593">
        <ele>434.066528</ele>
        <time>2021-11-20T20:51:28.577Z</time>
      </trkpt>
      <trkpt lat="47.467721" lon="7.993817">
        <ele>434.373502</ele>
        <time>2021-11-20T20:51:35.751Z</time>
      </trkpt>
      <trkpt lat="47.467579" lon="7.993896">
        <ele>434.556347</ele>
        <time>2021-11-20T20:51:38.346Z</time>
      </trkpt>
      <trkpt lat="47.467154" lon="7.994150">
        <ele>435.132366</ele>
        <time>2021-11-20T20:51:47.503Z</time>
      </trkpt>
      <trkpt lat="47.466146" lon="7.994726">
        <ele>436.490299</ele>
        <time>2021-11-20T20:52:09.341Z</time>
      </trkpt>
      <trkpt lat="47.465905" lon="7.994879">
        <ele>436.743276</ele>
        <time>2021-11-20T20:52:14.857Z</time>
      </trkpt>
      <trkpt lat="47.465772" lon="7.994973">
        <ele>436.846830</ele>
        <time>2021-11-20T20:52:18.025Z</time>
      </trkpt>
      <trkpt lat="47.465613" lon="7.995104">
        <ele>436.974690</ele>
        <time>2021-11-20T20:52:21.414Z</time>
      </trkpt>
      <trkpt lat="47.465230" lon="7.995479">
        <ele>437.297362</ele>
        <time>2021-11-20T20:52:29.861Z</time>
      </trkpt>
      <trkpt lat="47.465119" lon="7.995595">
        <ele>437.392840</ele>
        <time>2021-11-20T20:52:32.553Z</time>
      </trkpt>
      <trkpt lat="47.465105" lon="7.995610">
        <ele>437.404985</ele>
        <time>2021-11-20T20:52:32.727Z</time>
      </trkpt>
      <trkpt lat="47.464249" lon="7.996297">
        <ele>437.878972</ele>
        <time>2021-11-20T20:52:48.454Z</time>
      </trkpt>
      <trkpt lat="47.464131" lon="7.996368">
        <ele>437.863607</ele>
        <time>2021-11-20T20:52:50.106Z</time>
      </trkpt>
      <trkpt lat="47.463691" lon="7.996686">
        <ele>437.804540</ele>
        <time>2021-11-20T20:52:56.472Z</time>
      </trkpt>
      <trkpt lat="47.463326" lon="7.997031">
        <ele>437.752295</ele>
        <time>2021-11-20T20:53:02.479Z</time>
      </trkpt>
      <trkpt lat="47.463107" lon="7.997172">
        <ele>437.723486</ele>
        <time>2021-11-20T20:53:05.661Z</time>
      </trkpt>
      <trkpt lat="47.463019" lon="7.997210">
        <ele>437.712429</ele>
        <time>2021-11-20T20:53:07.092Z</time>
      </trkpt>
      <trkpt lat="47.462705" lon="7.997285">
        <ele>437.805411</ele>
        <time>2021-11-20T20:53:12.106Z</time>
      </trkpt>
      <trkpt lat="47.462598" lon="7.997285">
        <ele>437.882851</ele>
        <time>2021-11-20T20:53:13.938Z</time>
      </trkpt>
      <trkpt lat="47.462350" lon="7.997293">
        <ele>438.062383</ele>
        <time>2021-11-20T20:53:18.204Z</time>
      </trkpt>
      <trkpt lat="47.462299" lon="7.997298">
        <ele>438.099375</ele>
        <time>2021-11-20T20:53:19.243Z</time>
      </trkpt>
      <trkpt lat="47.461927" lon="7.997527">
        <ele>438.390995</ele>
        <time>2021-11-20T20:53:26.101Z</time>
      </trkpt>
      <trkpt lat="47.461552" lon="7.997973">
        <ele>438.739256</ele>
        <time>2021-11-20T20:53:34.312Z</time>
      </trkpt>
      <trkpt lat="47.461502" lon="7.997997">
        <ele>438.777301</ele>
        <time>2021-11-20T20:53:35.729Z</time>
      </trkpt>
      <trkpt lat="47.461438" lon="7.998032">
        <ele>438.826686</ele>
        <time>2021-11-20T20:53:36.986Z</time>
      </trkpt>
      <trkpt lat="47.461284" lon="7.998059">
        <ele>438.938923</ele>
        <time>2021-11-20T20:53:40.019Z</time>
      </trkpt>
      <trkpt lat="47.461149" lon="7.998038">
        <ele>439.091224</ele>
        <time>2021-11-20T20:53:43.044Z</time>
      </trkpt>
      <trkpt lat="47.461062" lon="7.998039">
        <ele>439.234131</ele>
        <time>2021-11-20T20:53:44.663Z</time>
      </trkpt>
      <trkpt lat="47.460985" lon="7.998062">
        <ele>439.363162</ele>
        <time>2021-11-20T20:53:46.561Z</time>
      </trkpt>
      <trkpt lat="47.460942" lon="7.998082">
        <ele>439.437202</ele>
        <time>2021-11-20T20:53:47.424Z</time>
      </trkpt>
      <trkpt lat="47.460924" lon="7.998094">
        <ele>439.469633</ele>
        <time>2021-11-20T20:53:47.759Z</time>
      </trkpt>
      <trkpt lat="47.460857" lon="7.998139">
        <ele>439.590499</ele>
        <time>2021-11-20T20:53:49.060Z</time>
      </trkpt>
      <trkpt lat="47.460836" lon="7.998161">
        <ele>439.632769</ele>
        <time>2021-11-20T20:53:49.814Z</time>
      </trkpt>
      <trkpt lat="47.460660" lon="7.998379">
        <ele>440.009842</ele>
        <time>2021-11-20T20:53:54.542Z</time>
      </trkpt>
      <trkpt lat="47.460488" lon="7.998555">
        <ele>440.353383</ele>
        <time>2021-11-20T20:53:59.139Z</time>
      </trkpt>
      <trkpt lat="47.460218" lon="7.998745">
        <ele>440.844512</ele>
        <time>2021-11-20T20:54:05.387Z</time>
      </trkpt>
      <trkpt lat="47.459934" lon="7.998910">
        <ele>441.345699</ele>
        <time>2021-11-20T20:54:11.770Z</time>
      </trkpt>
      <trkpt lat="47.459866" lon="7.998934">
        <ele>441.460529</ele>
        <time>2021-11-20T20:54:13.606Z</time>
      </trkpt>
      <trkpt lat="47.459773" lon="7.998935">
        <ele>441.613292</ele>
        <time>2021-11-20T20:54:15.775Z</time>
      </trkpt>
      <trkpt lat="47.459283" lon="7.998698">
        <ele>442.816890</ele>
        <time>2021-11-20T20:54:27.193Z</time>
      </trkpt>
      <trkpt lat="47.459205" lon="7.998672">
        <ele>443.039905</ele>
        <time>2021-11-20T20:54:29.115Z</time>
      </trkpt>
      <trkpt lat="47.459150" lon="7.998657">
        <ele>443.195897</ele>
        <time>2021-11-20T20:54:30.654Z</time>
      </trkpt>
      <trkpt lat="47.459032" lon="7.998632">
        <ele>443.528382</ele>
        <time>2021-11-20T20:54:33.446Z</time>
      </trkpt>
      <trkpt lat="47.458630" lon="7.998609">
        <ele>444.650481</ele>
        <time>2021-11-20T20:54:42.861Z</time>
      </trkpt>
      <trkpt lat="47.458509" lon="7.998633">
        <ele>444.990995</ele>
        <time>2021-11-20T20:54:46.035Z</time>
      </trkpt>
      <trkpt lat="47.458410" lon="7.998658">
        <ele>445.271122</ele>
        <time>2021-11-20T20:54:49.533Z</time>
      </trkpt>
      <trkpt lat="47.457243" lon="7.999411">
        <ele>449.096786</ele>
        <time>2021-11-20T20:55:26.333Z</time>
      </trkpt>
      <trkpt lat="47.457133" lon="7.999505">
        <ele>449.503497</ele>
        <time>2021-11-20T20:55:31.273Z</time>
      </trkpt>
      <trkpt lat="47.457107" lon="7.999528">
        <ele>449.600486</ele>
        <time>2021-11-20T20:55:32.331Z</time>
      </trkpt>
      <trkpt lat="47.456363" lon="8.000219">
        <ele>452.413039</ele>
        <time>2021-11-20T20:55:53.620Z</time>
      </trkpt>
      <trkpt lat="47.456267" lon="8.000301">
        <ele>452.760403</ele>
        <time>2021-11-20T20:55:58.218Z</time>
      </trkpt>
      <trkpt lat="47.455740" lon="8.000709">
        <ele>454.338271</ele>
        <time>2021-11-20T20:56:12.306Z</time>
      </trkpt>
      <trkpt lat="47.455049" lon="8.001106">
        <ele>456.304664</ele>
        <time>2021-11-20T20:56:30.877Z</time>
      </trkpt>
      <trkpt lat="47.454570" lon="8.001381">
        <ele>457.714557</ele>
        <time>2021-11-20T20:56:44.600Z</time>
      </trkpt>
      <trkpt lat="47.454148" lon="8.001857">
        <ele>459.505023</ele>
        <time>2021-11-20T20:56:57.863Z</time>
      </trkpt>
      <trkpt lat="47.454027" lon="8.002090">
        <ele>460.175193</ele>
        <time>2021-11-20T20:57:03.538Z</time>
      </trkpt>
      <trkpt lat="47.453983" lon="8.002195">
        <ele>460.456979</ele>
        <time>2021-11-20T20:57:05.870Z</time>
      </trkpt>
      <trkpt lat="47.453932" lon="8.002372">
        <ele>460.895872</ele>
        <time>2021-11-20T20:57:09.432Z</time>
      </trkpt>
      <trkpt lat="47.453903" lon="8.002487">
        <ele>461.175853</ele>
        <time>2021-11-20T20:57:11.987Z</time>
      </trkpt>
      <trkpt lat="47.453815" lon="8.002812">
        <ele>461.974459</ele>
        <time>2021-11-20T20:57:18.990Z</time>
      </trkpt>
      <trkpt lat="47.453556" lon="8.003416">
        <ele>463.608586</ele>
        <time>2021-11-20T20:57:34.450Z</time>
      </trkpt>
      <trkpt lat="47.452892" lon="8.004632">
        <ele>467.390183</ele>
        <time>2021-11-20T20:58:05.988Z</time>
      </trkpt>
      <trkpt lat="47.452809" lon="8.004791">
        <ele>467.876178</ele>
        <time>2021-11-20T20:58:10.001Z</time>
      </trkpt>
      <trkpt lat="47.452707" lon="8.004978">
        <ele>468.457474</ele>
        <time>2021-11-20T20:58:13.917Z</time>
      </trkpt>
      <trkpt lat="47.452632" lon="8.005093">
        <ele>468.844041</ele>
        <time>2021-11-20T20:58:16.797Z</time>
      </trkpt>
      <trkpt lat="47.452544" lon="8.005204">
        <ele>469.257890</ele>
        <time>2021-11-20T20:58:19.929Z</time>
      </trkpt>
      <trkpt lat="47.452429" lon="8.005350">
        <ele>469.800200</ele>
        <time>2021-11-20T20:58:23.770Z</time>
      </trkpt>
      <trkpt lat="47.452304" lon="8.005472">
        <ele>470.426266</ele>
        <time>2021-11-20T20:58:28.186Z</time>
      </trkpt>
      <trkpt lat="47.451940" lon="8.005767">
        <ele>472.308250</ele>
        <time>2021-11-20T20:58:40.177Z</time>
      </trkpt>
      <trkpt lat="47.451777" lon="8.005920">
        <ele>473.183606</ele>
        <time>2021-11-20T20:58:45.905Z</time>
      </trkpt>
      <trkpt lat="47.451704" lon="8.006006">
        <ele>473.606780</ele>
        <time>2021-11-20T20:58:49.338Z</time>
      </trkpt>
      <trkpt lat="47.451459" lon="8.006532">
        <ele>475.565049</ele>
        <time>2021-11-20T20:59:04.443Z</time>
      </trkpt>
      <trkpt lat="47.451374" lon="8.006835">
        <ele>476.570817</ele>
        <time>2021-11-20T20:59:11.862Z</time>
      </trkpt>
      <trkpt lat="47.451223" lon="8.007424">
        <ele>478.668986</ele>
        <time>2021-11-20T20:59:27.449Z</time>
      </trkpt>
      <trkpt lat="47.451152" lon="8.007815">
        <ele>480.504761</ele>
        <time>2021-11-20T20:59:37.798Z</time>
      </trkpt>
      <trkpt lat="47.451125" lon="8.007964">
        <ele>481.204231</ele>
        <time>2021-11-20T20:59:42.156Z</time>
      </trkpt>
      <trkpt lat="47.451025" lon="8.008518">
        <ele>483.804271</ele>
        <time>2021-11-20T20:59:57.771Z</time>
      </trkpt>
      <trkpt lat="47.450739" lon="8.010629">
        <ele>494.283597</ele>
        <time>2021-11-20T21:01:02.478Z</time>
      </trkpt>
      <trkpt lat="47.450620" lon="8.012203">
        <ele>503.001170</ele>
        <time>2021-11-20T21:01:52.613Z</time>
      </trkpt>
      <trkpt lat="47.450695" lon="8.012685">
        <ele>506.100762</ele>
        <time>2021-11-20T21:02:09.765Z</time>
      </trkpt>
      <trkpt lat="47.450792" lon="8.012931">
        <ele>508.348880</ele>
        <time>2021-11-20T21:02:18.958Z</time>
      </trkpt>
      <trkpt lat="47.451318" lon="8.013628">
        <ele>516.594301</ele>
        <time>2021-11-20T21:03:02.756Z</time>
      </trkpt>
      <trkpt lat="47.451629" lon="8.014256">
        <ele>522.739357</ele>
        <time>2021-11-20T21:03:36.458Z</time>
      </trkpt>
      <trkpt lat="47.451629" lon="8.014270">
        <ele>522.849879</ele>
        <time>2021-11-20T21:03:37.661Z</time>
      </trkpt>
      <trkpt lat="47.451636" lon="8.014477">
        <ele>524.486075</ele>
        <time>2021-11-20T21:03:49.342Z</time>
      </trkpt>
      <trkpt lat="47.451647" lon="8.014819">
        <ele>527.182472</ele>
        <time>2021-11-20T21:04:04.234Z</time>
      </trkpt>
      <trkpt lat="47.451482" lon="8.015245">
        <ele>531.039090</ele>
        <time>2021-11-20T21:04:21.764Z</time>
      </trkpt>
      <trkpt lat="47.451445" lon="8.015298">
        <ele>531.637512</ele>
        <time>2021-11-20T21:04:27.491Z</time>
      </trkpt>
      <trkpt lat="47.451437" lon="8.015310">
        <ele>531.769890</ele>
        <time>2021-11-20T21:04:28.772Z</time>
      </trkpt>
      <trkpt lat="47.451269" lon="8.015462">
        <ele>534.057878</ele>
        <time>2021-11-20T21:04:35.811Z</time>
      </trkpt>
      <trkpt lat="47.450380" lon="8.015953">
        <ele>545.082351</ele>
        <time>2021-11-20T21:05:35.675Z</time>
      </trkpt>
      <trkpt lat="47.449870" lon="8.016383">
        <ele>550.156622</ele>
        <time>2021-11-20T21:06:04.895Z</time>
      </trkpt>
      <trkpt lat="47.449594" lon="8.016517">
        <ele>552.388231</ele>
        <time>2021-11-20T21:06:15.945Z</time>
      </trkpt>
      <trkpt lat="47.449353" lon="8.016588">
        <ele>554.276000</ele>
        <time>2021-11-20T21:06:26.983Z</time>
      </trkpt>
      <trkpt lat="47.449199" lon="8.016667">
        <ele>555.528207</ele>
        <time>2021-11-20T21:06:33.895Z</time>
      </trkpt>
      <trkpt lat="47.449073" lon="8.016786">
        <ele>556.676723</ele>
        <time>2021-11-20T21:06:40.290Z</time>
      </trkpt>
      <trkpt lat="47.448981" lon="8.016904">
        <ele>557.612287</ele>
        <time>2021-11-20T21:06:45.634Z</time>
      </trkpt>
      <trkpt lat="47.448929" lon="8.016978">
        <ele>558.166689</ele>
        <time>2021-11-20T21:06:48.590Z</time>
      </trkpt>
      <trkpt lat="47.448801" lon="8.017178">
        <ele>559.597219</ele>
        <time>2021-11-20T21:06:56.710Z</time>
      </trkpt>
      <trkpt lat="47.448431" lon="8.017568">
        <ele>562.875237</ele>
        <time>2021-11-20T21:07:15.769Z</time>
      </trkpt>
      <trkpt lat="47.448305" lon="8.017672">
        <ele>563.890341</ele>
        <time>2021-11-20T21:07:23.266Z</time>
      </trkpt>
      <trkpt lat="47.448218" lon="8.017755">
        <ele>564.618678</ele>
        <time>2021-11-20T21:07:27.004Z</time>
      </trkpt>
      <trkpt lat="47.448127" lon="8.017842">
        <ele>565.380977</ele>
        <time>2021-11-20T21:07:31.672Z</time>
      </trkpt>
      <trkpt lat="47.447917" lon="8.018256">
        <ele>567.842957</ele>
        <time>2021-11-20T21:07:46.661Z</time>
      </trkpt>
      <trkpt lat="47.447791" lon="8.018721">
        <ele>570.226068</ele>
        <time>2021-11-20T21:08:01.754Z</time>
      </trkpt>
      <trkpt lat="47.447593" lon="8.019200">
        <ele>572.896795</ele>
        <time>2021-11-20T21:08:17.270Z</time>
      </trkpt>
      <trkpt lat="47.447512" lon="8.019351">
        <ele>573.793123</ele>
        <time>2021-11-20T21:08:24.154Z</time>
      </trkpt>
      <trkpt lat="47.447432" lon="8.019478">
        <ele>574.590251</ele>
        <time>2021-11-20T21:08:28.085Z</time>
      </trkpt>
      <trkpt lat="47.446940" lon="8.020031">
        <ele>578.787346</ele>
        <time>2021-11-20T21:08:53.811Z</time>
      </trkpt>
      <trkpt lat="47.446778" lon="8.020358">
        <ele>580.649084</ele>
        <time>2021-11-20T21:09:04.785Z</time>
      </trkpt>
      <trkpt lat="47.446723" lon="8.020643">
        <ele>582.010305</ele>
        <time>2021-11-20T21:09:13.298Z</time>
      </trkpt>
      <trkpt lat="47.446606" lon="8.022220">
        <ele>588.852533</ele>
        <time>2021-11-20T21:09:59.338Z</time>
      </trkpt>
      <trkpt lat="47.446477" lon="8.022664">
        <ele>590.816776</ele>
        <time>2021-11-20T21:10:13.280Z</time>
      </trkpt>
      <trkpt lat="47.446349" lon="8.022919">
        <ele>592.107600</ele>
        <time>2021-11-20T21:10:22.104Z</time>
      </trkpt>
      <trkpt lat="47.446154" lon="8.023202">
        <ele>593.749829</ele>
        <time>2021-11-20T21:10:32.645Z</time>
      </trkpt>
      <trkpt lat="47.445885" lon="8.023440">
        <ele>595.633964</ele>
        <time>2021-11-20T21:10:43.583Z</time>
      </trkpt>
      <trkpt lat="47.445182" lon="8.023668">
        <ele>598.101015</ele>
        <time>2021-11-20T21:11:04.039Z</time>
      </trkpt>
      <trkpt lat="47.445020" lon="8.023772">
        <ele>598.631431</ele>
        <time>2021-11-20T21:11:08.207Z</time>
      </trkpt>
      <trkpt lat="47.444482" lon="8.024455">
        <ele>600.761056</ele>
        <time>2021-11-20T21:11:24.693Z</time>
      </trkpt>
      <trkpt lat="47.444181" lon="8.025029">
        <ele>602.762307</ele>
        <time>2021-11-20T21:11:37.491Z</time>
      </trkpt>
      <trkpt lat="47.444086" lon="8.025459">
        <ele>604.500454</ele>
        <time>2021-11-20T21:11:46.361Z</time>
      </trkpt>
      <trkpt lat="47.444094" lon="8.025849">
        <ele>605.999672</ele>
        <time>2021-11-20T21:11:54.788Z</time>
      </trkpt>
      <trkpt lat="47.444190" lon="8.026300">
        <ele>607.816390</ele>
        <time>2021-11-20T21:12:06.052Z</time>
      </trkpt>
      <trkpt lat="47.444535" lon="8.027371">
        <ele>612.681058</ele>
        <time>2021-11-20T21:12:45.517Z</time>
      </trkpt>
      <trkpt lat="47.444596" lon="8.027836">
        <ele>615.596727</ele>
        <time>2021-11-20T21:12:59.900Z</time>
      </trkpt>
      <trkpt lat="47.444512" lon="8.028362">
        <ele>618.923576</ele>
        <time>2021-11-20T21:13:18.818Z</time>
      </trkpt>
      <trkpt lat="47.444390" lon="8.028577">
        <ele>620.651148</ele>
        <time>2021-11-20T21:13:25.732Z</time>
      </trkpt>
      <trkpt lat="47.444252" lon="8.028702">
        <ele>622.124130</ele>
        <time>2021-11-20T21:13:37.165Z</time>
      </trkpt>
      <trkpt lat="47.444200" lon="8.028735">
        <ele>622.639170</ele>
        <time>2021-11-20T21:13:43.187Z</time>
      </trkpt>
      <trkpt lat="47.444130" lon="8.028762">
        <ele>623.297612</ele>
        <time>2021-11-20T21:13:46.252Z</time>
      </trkpt>
      <trkpt lat="47.444103" lon="8.028769">
        <ele>623.547108</ele>
        <time>2021-11-20T21:13:47.424Z</time>
      </trkpt>
      <trkpt lat="47.444082" lon="8.028771">
        <ele>623.738640</ele>
        <time>2021-11-20T21:13:47.609Z</time>
      </trkpt>
      <trkpt lat="47.443829" lon="8.028756">
        <ele>626.043227</ele>
        <time>2021-11-20T21:14:08.517Z</time>
      </trkpt>
      <trkpt lat="47.443354" lon="8.028536">
        <ele>630.369071</ele>
        <time>2021-11-20T21:14:29.737Z</time>
      </trkpt>
      <trkpt lat="47.442237" lon="8.027604">
        <ele>641.020941</ele>
        <time>2021-11-20T21:15:33.889Z</time>
      </trkpt>
      <trkpt lat="47.441755" lon="8.027353">
        <ele>644.603043</ele>
        <time>2021-11-20T21:15:54.750Z</time>
      </trkpt>
      <trkpt lat="47.441109" lon="8.027297">
        <ele>648.276065</ele>
        <time>2021-11-20T21:16:20.229Z</time>
      </trkpt>
      <trkpt lat="47.440647" lon="8.027439">
        <ele>650.954461</ele>
        <time>2021-11-20T21:16:36.443Z</time>
      </trkpt>
      <trkpt lat="47.440263" lon="8.027666">
        <ele>653.301823</ele>
        <time>2021-11-20T21:16:50.232Z</time>
      </trkpt>
      <trkpt lat="47.439363" lon="8.028350">
        <ele>658.465203</ele>
        <time>2021-11-20T21:17:24.467Z</time>
      </trkpt>
      <trkpt lat="47.439279" lon="8.028420">
        <ele>658.956409</ele>
        <time>2021-11-20T21:17:28.109Z</time>
      </trkpt>
      <trkpt lat="47.438761" lon="8.028824">
        <ele>661.939861</ele>
        <time>2021-11-20T21:17:49.021Z</time>
      </trkpt>
      <trkpt lat="47.437975" lon="8.029310">
        <ele>666.347970</ele>
        <time>2021-11-20T21:18:21.970Z</time>
      </trkpt>
      <trkpt lat="47.436857" lon="8.029750">
        <ele>671.648804</ele>
        <time>2021-11-20T21:19:03.867Z</time>
      </trkpt>
      <trkpt lat="47.436763" lon="8.029782">
        <ele>671.409658</ele>
        <time>2021-11-20T21:19:07.207Z</time>
      </trkpt>
      <trkpt lat="47.436700" lon="8.029803">
        <ele>671.249545</ele>
        <time>2021-11-20T21:19:09.719Z</time>
      </trkpt>
      <trkpt lat="47.436042" lon="8.030035">
        <ele>669.572458</ele>
        <time>2021-11-20T21:19:20.024Z</time>
      </trkpt>
      <trkpt lat="47.435896" lon="8.030060">
        <ele>669.208070</ele>
        <time>2021-11-20T21:19:23.605Z</time>
      </trkpt>
      <trkpt lat="47.435481" lon="8.030087">
        <ele>668.178192</ele>
        <time>2021-11-20T21:19:27.383Z</time>
      </trkpt>
      <trkpt lat="47.435436" lon="8.030087">
        <ele>668.066627</ele>
        <time>2021-11-20T21:19:27.756Z</time>
      </trkpt>
      <trkpt lat="47.434990" lon="8.030088">
        <ele>664.867121</ele>
        <time>2021-11-20T21:19:31.643Z</time>
      </trkpt>
      <trkpt lat="47.434275" lon="8.030088">
        <ele>654.938818</ele>
        <time>2021-11-20T21:19:37.634Z</time>
      </trkpt>
      <trkpt lat="47.434167" lon="8.030147">
        <ele>653.340040</ele>
        <time>2021-11-20T21:19:38.592Z</time>
      </trkpt>
      <trkpt lat="47.434108" lon="8.030185">
        <ele>652.446405</ele>
        <time>2021-11-20T21:19:39.119Z</time>
      </trkpt>
      <trkpt lat="47.433829" lon="8.030548">
        <ele>647.285567</ele>
        <time>2021-11-20T21:19:42.183Z</time>
      </trkpt>
      <trkpt lat="47.433660" lon="8.031143">
        <ele>641.227608</ele>
        <time>2021-11-20T21:19:45.840Z</time>
      </trkpt>
      <trkpt lat="47.433547" lon="8.032532">
        <ele>628.124706</ele>
        <time>2021-11-20T21:19:53.663Z</time>
      </trkpt>
      <trkpt lat="47.433630" lon="8.033110">
        <ele>622.590613</ele>
        <time>2021-11-20T21:19:57.061Z</time>
      </trkpt>
      <trkpt lat="47.433692" lon="8.033363">
        <ele>620.070354</ele>
        <time>2021-11-20T21:19:58.627Z</time>
      </trkpt>
      <trkpt lat="47.433704" lon="8.033446">
        <ele>619.275433</ele>
        <time>2021-11-20T21:19:59.092Z</time>
      </trkpt>
      <trkpt lat="47.433695" lon="8.033652">
        <ele>617.390119</ele>
        <time>2021-11-20T21:20:00.310Z</time>
      </trkpt>
      <trkpt lat="47.433621" lon="8.033768">
        <ele>616.264955</ele>
        <time>2021-11-20T21:20:01.239Z</time>
      </trkpt>
      <trkpt lat="47.433485" lon="8.033776">
        <ele>614.845081</ele>
        <time>2021-11-20T21:20:02.375Z</time>
      </trkpt>
      <trkpt lat="47.433381" lon="8.033653">
        <ele>613.455677</ele>
        <time>2021-11-20T21:20:03.540Z</time>
      </trkpt>
      <trkpt lat="47.432764" lon="8.031627">
        <ele>597.615621</ele>
        <time>2021-11-20T21:20:16.488Z</time>
      </trkpt>
      <trkpt lat="47.432675" lon="8.031189">
        <ele>593.866977</ele>
        <time>2021-11-20T21:20:19.132Z</time>
      </trkpt>
      <trkpt lat="47.432631" lon="8.030656">
        <ele>589.465701</ele>
        <time>2021-11-20T21:20:22.209Z</time>
      </trkpt>
      <trkpt lat="47.432542" lon="8.030469">
        <ele>587.591544</ele>
        <time>2021-11-20T21:20:23.527Z</time>
      </trkpt>
      <trkpt lat="47.432467" lon="8.030406">
        <ele>586.546287</ele>
        <time>2021-11-20T21:20:24.267Z</time>
      </trkpt>
      <trkpt lat="47.432409" lon="8.030404">
        <ele>585.843299</ele>
        <time>2021-11-20T21:20:24.741Z</time>
      </trkpt>
      <trkpt lat="47.432234" lon="8.030524">
        <ele>583.505768</ele>
        <time>2021-11-20T21:20:26.370Z</time>
      </trkpt>
      <trkpt lat="47.432157" lon="8.030749">
        <ele>581.438907</ele>
        <time>2021-11-20T21:20:27.802Z</time>
      </trkpt>
      <trkpt lat="47.432133" lon="8.030906">
        <ele>580.119557</ele>
        <time>2021-11-20T21:20:28.708Z</time>
      </trkpt>
      <trkpt lat="47.432025" lon="8.031663">
        <ele>573.132008</ele>
        <time>2021-11-20T21:20:33.103Z</time>
      </trkpt>
      <trkpt lat="47.431924" lon="8.032307">
        <ele>566.619582</ele>
        <time>2021-11-20T21:20:36.810Z</time>
      </trkpt>
      <trkpt lat="47.431773" lon="8.032676">
        <ele>562.371126</ele>
        <time>2021-11-20T21:20:39.234Z</time>
      </trkpt>
      <trkpt lat="47.430470" lon="8.034052">
        <ele>540.532890</ele>
        <time>2021-11-20T21:20:52.560Z</time>
      </trkpt>
      <trkpt lat="47.430169" lon="8.034362">
        <ele>535.865012</ele>
        <time>2021-11-20T21:20:55.692Z</time>
      </trkpt>
      <trkpt lat="47.430089" lon="8.034453">
        <ele>534.580582</ele>
        <time>2021-11-20T21:20:56.547Z</time>
      </trkpt>
      <trkpt lat="47.429784" lon="8.034795">
        <ele>529.709490</ele>
        <time>2021-11-20T21:20:59.842Z</time>
      </trkpt>
      <trkpt lat="47.429735" lon="8.034851">
        <ele>528.921394</ele>
        <time>2021-11-20T21:21:06.693Z</time>
      </trkpt>
      <trkpt lat="47.429183" lon="8.035457">
        <ele>525.637660</ele>
        <time>2021-11-20T21:21:12.576Z</time>
      </trkpt>
      <trkpt lat="47.429108" lon="8.035534">
        <ele>525.297530</ele>
        <time>2021-11-20T21:21:16.977Z</time>
      </trkpt>
      <trkpt lat="47.428937" lon="8.035687">
        <ele>524.552997</ele>
        <time>2021-11-20T21:21:18.624Z</time>
      </trkpt>
      <trkpt lat="47.428589" lon="8.035948">
        <ele>523.099467</ele>
        <time>2021-11-20T21:21:30.098Z</time>
      </trkpt>
      <trkpt lat="47.428425" lon="8.036042">
        <ele>522.444285</ele>
        <time>2021-11-20T21:21:42.025Z</time>
      </trkpt>
      <trkpt lat="47.428173" lon="8.036125">
        <ele>521.482618</ele>
        <time>2021-11-20T21:21:44.627Z</time>
      </trkpt>
      <trkpt lat="47.428073" lon="8.036147">
        <ele>521.102125</ele>
        <time>2021-11-20T21:21:45.614Z</time>
      </trkpt>
      <trkpt lat="47.427488" lon="8.036131">
        <ele>518.832130</ele>
        <time>2021-11-20T21:21:51.757Z</time>
      </trkpt>
      <trkpt lat="47.427288" lon="8.036127">
        <ele>518.056125</ele>
        <time>2021-11-20T21:21:53.615Z</time>
      </trkpt>
      <trkpt lat="47.426959" lon="8.036087">
        <ele>516.775403</ele>
        <time>2021-11-20T21:21:56.819Z</time>
      </trkpt>
      <trkpt lat="47.426739" lon="8.036025">
        <ele>515.906501</ele>
        <time>2021-11-20T21:21:59.088Z</time>
      </trkpt>
      <trkpt lat="47.426081" lon="8.035824">
        <ele>511.802542</ele>
        <time>2021-11-20T21:22:05.291Z</time>
      </trkpt>
      <trkpt lat="47.426010" lon="8.035820">
        <ele>511.079366</ele>
        <time>2021-11-20T21:22:05.889Z</time>
      </trkpt>
      <trkpt lat="47.425906" lon="8.035815">
        <ele>510.020274</ele>
        <time>2021-11-20T21:22:06.836Z</time>
      </trkpt>
      <trkpt lat="47.425277" lon="8.035886">
        <ele>503.599550</ele>
        <time>2021-11-20T21:22:12.234Z</time>
      </trkpt>
      <trkpt lat="47.425112" lon="8.035869">
        <ele>501.916074</ele>
        <time>2021-11-20T21:22:13.671Z</time>
      </trkpt>
      <trkpt lat="47.425031" lon="8.035847">
        <ele>501.077837</ele>
        <time>2021-11-20T21:22:14.383Z</time>
      </trkpt>
      <trkpt lat="47.424864" lon="8.035811">
        <ele>499.360097</ele>
        <time>2021-11-20T21:22:15.804Z</time>
      </trkpt>
      <trkpt lat="47.424719" lon="8.035799">
        <ele>497.881947</ele>
        <time>2021-11-20T21:22:17.048Z</time>
      </trkpt>
      <trkpt lat="47.424613" lon="8.035824">
        <ele>496.789410</ele>
        <time>2021-11-20T21:22:17.939Z</time>
      </trkpt>
      <trkpt lat="47.424388" lon="8.035926">
        <ele>494.008638</ele>
        <time>2021-11-20T21:22:19.891Z</time>
      </trkpt>
      <trkpt lat="47.424082" lon="8.036169">
        <ele>489.577215</ele>
        <time>2021-11-20T21:22:22.799Z</time>
      </trkpt>
      <trkpt lat="47.423560" lon="8.036763">
        <ele>481.173058</ele>
        <time>2021-11-20T21:22:28.341Z</time>
      </trkpt>
      <trkpt lat="47.423448" lon="8.036933">
        <ele>479.125033</ele>
        <time>2021-11-20T21:22:29.692Z</time>
      </trkpt>
      <trkpt lat="47.423244" lon="8.037267">
        <ele>475.241307</ele>
        <time>2021-11-20T21:22:32.271Z</time>
      </trkpt>
      <trkpt lat="47.422905" lon="8.037963">
        <ele>468.765946</ele>
        <time>2021-11-20T21:22:37.177Z</time>
      </trkpt>
      <trkpt lat="47.422868" lon="8.038042">
        <ele>468.086446</ele>
        <time>2021-11-20T21:22:37.738Z</time>
      </trkpt>
      <trkpt lat="47.422730" lon="8.038382">
        <ele>465.282429</ele>
        <time>2021-11-20T21:22:39.989Z</time>
      </trkpt>
      <trkpt lat="47.422474" lon="8.038973">
        <ele>460.319570</ele>
        <time>2021-11-20T21:22:44.044Z</time>
      </trkpt>
      <trkpt lat="47.422435" lon="8.039041">
        <ele>459.689128</ele>
        <time>2021-11-20T21:22:44.552Z</time>
      </trkpt>
      <trkpt lat="47.422173" lon="8.039494">
        <ele>455.474415</ele>
        <time>2021-11-20T21:22:48.151Z</time>
      </trkpt>
      <trkpt lat="47.422065" lon="8.039680">
        <ele>453.851994</ele>
        <time>2021-11-20T21:22:49.599Z</time>
      </trkpt>
      <trkpt lat="47.421926" lon="8.039862">
        <ele>452.414629</ele>
        <time>2021-11-20T21:22:51.281Z</time>
      </trkpt>
      <trkpt lat="47.421857" lon="8.039952">
        <ele>451.702315</ele>
        <time>2021-11-20T21:22:52.091Z</time>
      </trkpt>
      <trkpt lat="47.421614" lon="8.040268">
        <ele>449.197038</ele>
        <time>2021-11-20T21:22:54.956Z</time>
      </trkpt>
      <trkpt lat="47.421515" lon="8.040542">
        <ele>447.570300</ele>
        <time>2021-11-20T21:22:56.800Z</time>
      </trkpt>
      <trkpt lat="47.421369" lon="8.040943">
        <ele>445.185488</ele>
        <time>2021-11-20T21:22:59.492Z</time>
      </trkpt>
      <trkpt lat="47.421212" lon="8.041305">
        <ele>442.933623</ele>
        <time>2021-11-20T21:23:02.120Z</time>
      </trkpt>
      <trkpt lat="47.421194" lon="8.041345">
        <ele>442.682039</ele>
        <time>2021-11-20T21:23:02.388Z</time>
      </trkpt>
      <trkpt lat="47.421132" lon="8.041487">
        <ele>441.796974</ele>
        <time>2021-11-20T21:23:03.461Z</time>
      </trkpt>
      <trkpt lat="47.420713" lon="8.042016">
        <ele>438.257266</ele>
        <time>2021-11-20T21:23:08.440Z</time>
      </trkpt>
      <trkpt lat="47.420686" lon="8.042054">
        <ele>438.045809</ele>
        <time>2021-11-20T21:23:08.750Z</time>
      </trkpt>
      <trkpt lat="47.420610" lon="8.042144">
        <ele>437.493470</ele>
        <time>2021-11-20T21:23:09.609Z</time>
      </trkpt>
      <trkpt lat="47.420398" lon="8.042394">
        <ele>435.955256</ele>
        <time>2021-11-20T21:23:12.135Z</time>
      </trkpt>
      <trkpt lat="47.420118" lon="8.042829">
        <ele>433.651241</ele>
        <time>2021-11-20T21:23:15.902Z</time>
      </trkpt>
      <trkpt lat="47.420109" lon="8.042846">
        <ele>433.568407</ele>
        <time>2021-11-20T21:23:16.034Z</time>
      </trkpt>
      <trkpt lat="47.419963" lon="8.043060">
        <ele>432.402180</ele>
        <time>2021-11-20T21:23:18.209Z</time>
      </trkpt>
      <trkpt lat="47.419839" lon="8.043244">
        <ele>431.405595</ele>
        <time>2021-11-20T21:23:19.785Z</time>
      </trkpt>
      <trkpt lat="47.419549" lon="8.043696">
        <ele>429.409308</ele>
        <time>2021-11-20T21:23:23.809Z</time>
      </trkpt>
      <trkpt lat="47.419418" lon="8.043891">
        <ele>428.758108</ele>
        <time>2021-11-20T21:23:25.677Z</time>
      </trkpt>
      <trkpt lat="47.419290" lon="8.044087">
        <ele>428.112563</ele>
        <time>2021-11-20T21:23:27.411Z</time>
      </trkpt>
      <trkpt lat="47.419003" lon="8.044708">
        <ele>426.330369</ele>
        <time>2021-11-20T21:23:32.614Z</time>
      </trkpt>
      <trkpt lat="47.418931" lon="8.044951">
        <ele>425.701704</ele>
        <time>2021-11-20T21:23:34.307Z</time>
      </trkpt>
      <trkpt lat="47.418751" lon="8.045723">
        <ele>423.766607</ele>
        <time>2021-11-20T21:23:40.387Z</time>
      </trkpt>
      <trkpt lat="47.418700" lon="8.045929">
        <ele>423.244460</ele>
        <time>2021-11-20T21:23:41.885Z</time>
      </trkpt>
      <trkpt lat="47.418443" lon="8.046572">
        <ele>421.466472</ele>
        <time>2021-11-20T21:23:47.073Z</time>
      </trkpt>
      <trkpt lat="47.418416" lon="8.046623">
        <ele>421.312302</ele>
        <time>2021-11-20T21:23:47.497Z</time>
      </trkpt>
      <trkpt lat="47.418380" lon="8.046691">
        <ele>421.106742</ele>
        <time>2021-11-20T21:23:48.076Z</time>
      </trkpt>
      <trkpt lat="47.418150" lon="8.046912">
        <ele>420.141460</ele>
        <time>2021-11-20T21:23:50.681Z</time>
      </trkpt>
      <trkpt lat="47.418081" lon="8.046958">
        <ele>419.875119</ele>
        <time>2021-11-20T21:23:51.386Z</time>
      </trkpt>
      <trkpt lat="47.417974" lon="8.047018">
        <ele>419.472441</ele>
        <time>2021-11-20T21:23:52.543Z</time>
      </trkpt>
      <trkpt lat="47.417855" lon="8.047064">
        <ele>419.039644</ele>
        <time>2021-11-20T21:23:53.702Z</time>
      </trkpt>
      <trkpt lat="47.417795" lon="8.047088">
        <ele>418.820933</ele>
        <time>2021-11-20T21:23:54.279Z</time>
      </trkpt>
      <trkpt lat="47.417655" lon="8.047116">
        <ele>418.323841</ele>
        <time>2021-11-20T21:23:56.028Z</time>
      </trkpt>
      <trkpt lat="47.417615" lon="8.047155">
        <ele>418.155228</ele>
        <time>2021-11-20T21:23:56.571Z</time>
      </trkpt>
      <trkpt lat="47.417590" lon="8.047205">
        <ele>418.007211</ele>
        <time>2021-11-20T21:23:56.961Z</time>
      </trkpt>
      <trkpt lat="47.417451" lon="8.047152">
        <ele>417.502112</ele>
        <time>2021-11-20T21:23:58.296Z</time>
      </trkpt>
      <trkpt lat="47.417333" lon="8.047125">
        <ele>417.135281</ele>
        <time>2021-11-20T21:23:59.882Z</time>
      </trkpt>
      <trkpt lat="47.417145" lon="8.047144">
        <ele>416.577625</ele>
        <time>2021-11-20T21:24:01.700Z</time>
      </trkpt>
      <trkpt lat="47.417130" lon="8.047145">
        <ele>416.533190</ele>
        <time>2021-11-20T21:24:01.837Z</time>
      </trkpt>
      <trkpt lat="47.417058" lon="8.047168">
        <ele>416.315197</ele>
        <time>2021-11-20T21:24:02.541Z</time>
      </trkpt>
      <trkpt lat="47.417004" lon="8.047190">
        <ele>416.149431</ele>
        <time>2021-11-20T21:24:03.319Z</time>
      </trkpt>
      <trkpt lat="47.416861" lon="8.047252">
        <ele>415.708409</ele>
        <time>2021-11-20T21:24:04.816Z</time>
      </trkpt>
      <trkpt lat="47.416680" lon="8.047368">
        <ele>415.124570</ele>
        <time>2021-11-20T21:24:06.740Z</time>
      </trkpt>
      <trkpt lat="47.416606" lon="8.047423">
        <ele>414.879443</ele>
        <time>2021-11-20T21:24:07.935Z</time>
      </trkpt>
      <trkpt lat="47.416439" lon="8.047556">
        <ele>414.318039</ele>
        <time>2021-11-20T21:24:09.693Z</time>
      </trkpt>
      <trkpt lat="47.416294" lon="8.047671">
        <ele>413.831045</ele>
        <time>2021-11-20T21:24:12.055Z</time>
      </trkpt>
      <trkpt lat="47.416172" lon="8.047770">
        <ele>413.419158</ele>
        <time>2021-11-20T21:24:13.364Z</time>
      </trkpt>
      <trkpt lat="47.416092" lon="8.047830">
        <ele>413.153667</ele>
        <time>2021-11-20T21:24:14.294Z</time>
      </trkpt>
      <trkpt lat="47.415894" lon="8.047980">
        <ele>412.495213</ele>
        <time>2021-11-20T21:24:16.860Z</time>
      </trkpt>
      <trkpt lat="47.415806" lon="8.048043">
        <ele>412.205842</ele>
        <time>2021-11-20T21:24:17.808Z</time>
      </trkpt>
      <trkpt lat="47.415651" lon="8.048153">
        <ele>411.843833</ele>
        <time>2021-11-20T21:24:20.610Z</time>
      </trkpt>
      <trkpt lat="47.415485" lon="8.048228">
        <ele>411.519861</ele>
        <time>2021-11-20T21:24:22.286Z</time>
      </trkpt>
      <trkpt lat="47.415342" lon="8.048265">
        <ele>411.248911</ele>
        <time>2021-11-20T21:24:24.683Z</time>
      </trkpt>
      <trkpt lat="47.415207" lon="8.048280">
        <ele>410.996241</ele>
        <time>2021-11-20T21:24:26.151Z</time>
      </trkpt>
      <trkpt lat="47.415204" lon="8.048501">
        <ele>410.717077</ele>
        <time>2021-11-20T21:24:28.749Z</time>
      </trkpt>
      <trkpt lat="47.415173" lon="8.048677">
        <ele>410.487395</ele>
        <time>2021-11-20T21:24:31.838Z</time>
      </trkpt>
      <trkpt lat="47.415066" lon="8.048847">
        <ele>410.194178</ele>
        <time>2021-11-20T21:24:34.103Z</time>
      </trkpt>
      <trkpt lat="47.415034" lon="8.049054">
        <ele>409.926016</ele>
        <time>2021-11-20T21:24:36.546Z</time>
      </trkpt>
      <trkpt lat="47.415024" lon="8.049102">
        <ele>409.862587</ele>
        <time>2021-11-20T21:24:37.202Z</time>
      </trkpt>
      <trkpt lat="47.414997" lon="8.049151">
        <ele>409.782781</ele>
        <time>2021-11-20T21:24:37.804Z</time>
      </trkpt>
      <trkpt lat="47.414894" lon="8.049271">
        <ele>409.537990</ele>
        <time>2021-11-20T21:24:39.735Z</time>
      </trkpt>
      <trkpt lat="47.414872" lon="8.049314">
        <ele>409.469909</ele>
        <time>2021-11-20T21:24:40.378Z</time>
      </trkpt>
      <trkpt lat="47.414853" lon="8.049350">
        <ele>409.412249</ele>
        <time>2021-11-20T21:24:40.959Z</time>
      </trkpt>
      <trkpt lat="47.414829" lon="8.049416">
        <ele>409.317622</ele>
        <time>2021-11-20T21:24:41.853Z</time>
      </trkpt>
      <trkpt lat="47.414820" lon="8.049459">
        <ele>409.260777</ele>
        <time>2021-11-20T21:24:42.327Z</time>
      </trkpt>
      <trkpt lat="47.414800" lon="8.049553">
        <ele>409.136331</ele>
        <time>2021-11-20T21:24:43.291Z</time>
      </trkpt>
      <trkpt lat="47.414635" lon="8.049963">
        <ele>408.414126</ele>
        <time>2021-11-20T21:24:48.459Z</time>
      </trkpt>
      <trkpt lat="47.414579" lon="8.050081">
        <ele>408.125140</ele>
        <time>2021-11-20T21:24:49.846Z</time>
      </trkpt>
      <trkpt lat="47.414537" lon="8.050163">
        <ele>407.918935</ele>
        <time>2021-11-20T21:24:50.867Z</time>
      </trkpt>
      <trkpt lat="47.414116" lon="8.051267">
        <ele>405.378018</ele>
        <time>2021-11-20T21:25:03.860Z</time>
      </trkpt>
      <trkpt lat="47.414026" lon="8.051355">
        <ele>405.058251</ele>
        <time>2021-11-20T21:25:05.295Z</time>
      </trkpt>
      <trkpt lat="47.414168" lon="8.051800">
        <ele>404.071752</ele>
        <time>2021-11-20T21:25:10.065Z</time>
      </trkpt>
      <trkpt lat="47.413974" lon="8.051951">
        <ele>403.422054</ele>
        <time>2021-11-20T21:25:13.155Z</time>
      </trkpt>
      <trkpt lat="47.413758" lon="8.052151">
        <ele>402.744163</ele>
        <time>2021-11-20T21:25:16.857Z</time>
      </trkpt>
      <trkpt lat="47.413635" lon="8.052265">
        <ele>402.358863</ele>
        <time>2021-11-20T21:25:18.988Z</time>
      </trkpt>
      <trkpt lat="47.413317" lon="8.052581">
        <ele>401.341913</ele>
        <time>2021-11-20T21:25:24.562Z</time>
      </trkpt>
      <trkpt lat="47.413186" lon="8.052656">
        <ele>400.969092</ele>
        <time>2021-11-20T21:25:26.516Z</time>
      </trkpt>
      <trkpt lat="47.413162" lon="8.052742">
        <ele>400.802034</ele>
        <time>2021-11-20T21:25:27.494Z</time>
      </trkpt>
      <trkpt lat="47.413178" lon="8.053085">
        <ele>400.184607</ele>
        <time>2021-11-20T21:25:30.988Z</time>
      </trkpt>
      <trkpt lat="47.413169" lon="8.053324">
        <ele>399.754743</ele>
        <time>2021-11-20T21:25:33.473Z</time>
      </trkpt>
      <trkpt lat="47.413166" lon="8.053493">
        <ele>399.451145</ele>
        <time>2021-11-20T21:25:35.299Z</time>
      </trkpt>
      <trkpt lat="47.413154" lon="8.053586">
        <ele>399.281125</ele>
        <time>2021-11-20T21:25:36.332Z</time>
      </trkpt>
      <trkpt lat="47.413124" lon="8.053817">
        <ele>398.858720</ele>
        <time>2021-11-20T21:25:38.929Z</time>
      </trkpt>
      <trkpt lat="47.413095" lon="8.053912">
        <ele>398.671563</ele>
        <time>2021-11-20T21:25:40.051Z</time>
      </trkpt>
      <trkpt lat="47.413141" lon="8.054110">
        <ele>398.710659</ele>
        <time>2021-11-20T21:25:42.524Z</time>
      </trkpt>
      <trkpt lat="47.413108" lon="8.054809">
        <ele>398.991347</ele>
        <time>2021-11-20T21:25:51.396Z</time>
      </trkpt>
      <trkpt lat="47.413090" lon="8.055181">
        <ele>399.140745</ele>
        <time>2021-11-20T21:25:57.098Z</time>
      </trkpt>
      <trkpt lat="47.413029" lon="8.055478">
        <ele>399.265077</ele>
        <time>2021-11-20T21:26:01.889Z</time>
      </trkpt>
      <trkpt lat="47.412936" lon="8.055688">
        <ele>399.365612</ele>
        <time>2021-11-20T21:26:06.226Z</time>
      </trkpt>
      <trkpt lat="47.412413" lon="8.056424">
        <ele>399.967680</ele>
        <time>2021-11-20T21:26:26.707Z</time>
      </trkpt>
      <trkpt lat="47.411818" lon="8.057645">
        <ele>401.696257</ele>
        <time>2021-11-20T21:26:55.897Z</time>
      </trkpt>
      <trkpt lat="47.411629" lon="8.057877">
        <ele>402.113377</ele>
        <time>2021-11-20T21:27:01.471Z</time>
      </trkpt>
      <trkpt lat="47.411545" lon="8.057958">
        <ele>402.283657</ele>
        <time>2021-11-20T21:27:04.897Z</time>
      </trkpt>
      <trkpt lat="47.411396" lon="8.058058">
        <ele>402.561475</ele>
        <time>2021-11-20T21:27:08.453Z</time>
      </trkpt>
      <trkpt lat="47.411218" lon="8.058271">
        <ele>402.867237</ele>
        <time>2021-11-20T21:27:14.524Z</time>
      </trkpt>
      <trkpt lat="47.410857" lon="8.058864">
        <ele>403.397448</ele>
        <time>2021-11-20T21:27:26.627Z</time>
      </trkpt>
      <trkpt lat="47.410821" lon="8.058941">
        <ele>403.459660</ele>
        <time>2021-11-20T21:27:28.003Z</time>
      </trkpt>
      <trkpt lat="47.410821" lon="8.058941">
        <ele>403.459660</ele>
        <time>2021-11-20T21:27:28.008Z</time>
      </trkpt>
      <trkpt lat="47.410779" lon="8.059157">
        <ele>403.609053</ele>
        <time>2021-11-20T21:27:32.169Z</time>
      </trkpt>
      <trkpt lat="47.410783" lon="8.060536">
        <ele>404.504343</ele>
        <time>2021-11-20T21:27:56.911Z</time>
      </trkpt>
      <trkpt lat="47.410789" lon="8.060894">
        <ele>403.867037</ele>
        <time>2021-11-20T21:28:01.465Z</time>
      </trkpt>
      <trkpt lat="47.410815" lon="8.061194">
        <ele>403.328785</ele>
        <time>2021-11-20T21:28:05.127Z</time>
      </trkpt>
      <trkpt lat="47.410851" lon="8.061363">
        <ele>403.013478</ele>
        <time>2021-11-20T21:28:06.954Z</time>
      </trkpt>
      <trkpt lat="47.410881" lon="8.061443">
        <ele>402.850710</ele>
        <time>2021-11-20T21:28:07.875Z</time>
      </trkpt>
      <trkpt lat="47.411023" lon="8.061464">
        <ele>402.475422</ele>
        <time>2021-11-20T21:28:10.621Z</time>
      </trkpt>
      <trkpt lat="47.411152" lon="8.061490">
        <ele>402.133045</ele>
        <time>2021-11-20T21:28:12.521Z</time>
      </trkpt>
      <trkpt lat="47.411217" lon="8.061524">
        <ele>401.951719</ele>
        <time>2021-11-20T21:28:13.614Z</time>
      </trkpt>
      <trkpt lat="47.411292" lon="8.061644">
        <ele>401.661021</ele>
        <time>2021-11-20T21:28:15.272Z</time>
      </trkpt>
      <trkpt lat="47.411360" lon="8.061902">
        <ele>401.168285</ele>
        <time>2021-11-20T21:28:17.896Z</time>
      </trkpt>
      <trkpt lat="47.411324" lon="8.062373">
        <ele>400.324754</ele>
        <time>2021-11-20T21:28:22.405Z</time>
      </trkpt>
      <trkpt lat="47.411310" lon="8.062557">
        <ele>399.995241</ele>
        <time>2021-11-20T21:28:23.992Z</time>
      </trkpt>
      <trkpt lat="47.411147" lon="8.063820">
        <ele>394.348931</ele>
        <time>2021-11-20T21:28:35.383Z</time>
      </trkpt>
      <trkpt lat="47.411030" lon="8.064234">
        <ele>392.263236</ele>
        <time>2021-11-20T21:28:39.143Z</time>
      </trkpt>
      <trkpt lat="47.411009" lon="8.064289">
        <ele>391.969661</ele>
        <time>2021-11-20T21:28:39.697Z</time>
      </trkpt>
      <trkpt lat="47.411125" lon="8.064353">
        <ele>391.119066</ele>
        <time>2021-11-20T21:28:41.267Z</time>
      </trkpt>
      <trkpt lat="47.411040" lon="8.064796">
        <ele>388.978458</ele>
        <time>2021-11-20T21:28:45.147Z</time>
      </trkpt>
      <trkpt lat="47.411012" lon="8.064966">
        <ele>388.165087</ele>
        <time>2021-11-20T21:28:46.646Z</time>
      </trkpt>
      <trkpt lat="47.410973" lon="8.065575">
        <ele>385.955236</ele>
        <time>2021-11-20T21:28:52.045Z</time>
      </trkpt>
      <trkpt lat="47.411060" lon="8.066219">
        <ele>383.818304</ele>
        <time>2021-11-20T21:28:57.934Z</time>
      </trkpt>
      <trkpt lat="47.411089" lon="8.066312">
        <ele>383.485099</ele>
        <time>2021-11-20T21:28:58.877Z</time>
      </trkpt>
      <trkpt lat="47.411308" lon="8.067009">
        <ele>380.984519</ele>
        <time>2021-11-20T21:29:06.163Z</time>
      </trkpt>
      <trkpt lat="47.411470" lon="8.067506">
        <ele>379.189462</ele>
        <time>2021-11-20T21:29:11.588Z</time>
      </trkpt>
      <trkpt lat="47.411541" lon="8.068096">
        <ele>378.028563</ele>
        <time>2021-11-20T21:29:17.538Z</time>
      </trkpt>
      <trkpt lat="47.411697" lon="8.068608">
        <ele>377.133959</ele>
        <time>2021-11-20T21:29:23.165Z</time>
      </trkpt>
      <trkpt lat="47.411805" lon="8.068819">
        <ele>376.712458</ele>
        <time>2021-11-20T21:29:25.841Z</time>
      </trkpt>
      <trkpt lat="47.411858" lon="8.068922">
        <ele>376.506303</ele>
        <time>2021-11-20T21:29:27.275Z</time>
      </trkpt>
      <trkpt lat="47.411904" lon="8.069127">
        <ele>376.162205</ele>
        <time>2021-11-20T21:29:29.603Z</time>
      </trkpt>
      <trkpt lat="47.412048" lon="8.069786">
        <ele>375.058891</ele>
        <time>2021-11-20T21:29:37.048Z</time>
      </trkpt>
      <trkpt lat="47.412200" lon="8.070334">
        <ele>374.407007</ele>
        <time>2021-11-20T21:29:43.498Z</time>
      </trkpt>
      <trkpt lat="47.412249" lon="8.070484">
        <ele>374.319317</ele>
        <time>2021-11-20T21:29:45.511Z</time>
      </trkpt>
      <trkpt lat="47.412278" lon="8.070617">
        <ele>374.245752</ele>
        <time>2021-11-20T21:29:47.110Z</time>
      </trkpt>
      <trkpt lat="47.412297" lon="8.070819">
        <ele>374.138383</ele>
        <time>2021-11-20T21:29:49.329Z</time>
      </trkpt>
      <trkpt lat="47.412312" lon="8.071009">
        <ele>374.037675</ele>
        <time>2021-11-20T21:29:51.731Z</time>
      </trkpt>
      <trkpt lat="47.412325" lon="8.071183">
        <ele>373.945513</ele>
        <time>2021-11-20T21:29:53.946Z</time>
      </trkpt>
      <trkpt lat="47.412370" lon="8.071607">
        <ele>373.719562</ele>
        <time>2021-11-20T21:29:59.654Z</time>
      </trkpt>
      <trkpt lat="47.412455" lon="8.072516">
        <ele>373.236456</ele>
        <time>2021-11-20T21:30:11.283Z</time>
      </trkpt>
      <trkpt lat="47.412501" lon="8.072764">
        <ele>373.141406</ele>
        <time>2021-11-20T21:30:14.528Z</time>
      </trkpt>
      <trkpt lat="47.412735" lon="8.073330">
        <ele>373.070573</ele>
        <time>2021-11-20T21:30:22.734Z</time>
      </trkpt>
      <trkpt lat="47.412805" lon="8.073508">
        <ele>373.048587</ele>
        <time>2021-11-20T21:30:25.585Z</time>
      </trkpt>
      <trkpt lat="47.412891" lon="8.073728">
        <ele>373.021454</ele>
        <time>2021-11-20T21:30:28.686Z</time>
      </trkpt>
      <trkpt lat="47.412971" lon="8.074232">
        <ele>372.966169</ele>
        <time>2021-11-20T21:30:35.669Z</time>
      </trkpt>
      <trkpt lat="47.413172" lon="8.074761">
        <ele>372.901379</ele>
        <time>2021-11-20T21:30:44.327Z</time>
      </trkpt>
      <trkpt lat="47.413293" lon="8.075248">
        <ele>372.924018</ele>
        <time>2021-11-20T21:30:51.655Z</time>
      </trkpt>
      <trkpt lat="47.413408" lon="8.075571">
        <ele>373.024299</ele>
        <time>2021-11-20T21:30:56.921Z</time>
      </trkpt>
      <trkpt lat="47.413620" lon="8.076062">
        <ele>373.184327</ele>
        <time>2021-11-20T21:31:04.995Z</time>
      </trkpt>
      <trkpt lat="47.413817" lon="8.076562">
        <ele>373.343295</ele>
        <time>2021-11-20T21:31:13.408Z</time>
      </trkpt>
      <trkpt lat="47.413986" lon="8.077590">
        <ele>373.669292</ele>
        <time>2021-11-20T21:31:29.704Z</time>
      </trkpt>
      <trkpt lat="47.414002" lon="8.077706">
        <ele>373.733879</ele>
        <time>2021-11-20T21:31:32.117Z</time>
      </trkpt>
      <trkpt lat="47.414002" lon="8.077706">
        <ele>373.733879</ele>
        <time>2021-11-20T21:31:32.418Z</time>
      </trkpt>
      <trkpt lat="47.414002" lon="8.077706">
        <ele>373.733879</ele>
        <time>2021-11-20T21:31:32.449Z</time>
      </trkpt>
      <trkpt lat="47.413930" lon="8.078329">
        <ele>374.078691</ele>
        <time>2021-11-20T21:31:42.307Z</time>
      </trkpt>
      <trkpt lat="47.413885" lon="8.078419">
        <ele>374.139742</ele>
        <time>2021-11-20T21:31:43.904Z</time>
      </trkpt>
      <trkpt lat="47.413852" lon="8.078433">
        <ele>374.167422</ele>
        <time>2021-11-20T21:31:44.385Z</time>
      </trkpt>
      <trkpt lat="47.413861" lon="8.078615">
        <ele>374.266981</ele>
        <time>2021-11-20T21:31:48.120Z</time>
      </trkpt>
      <trkpt lat="47.413734" lon="8.080361">
        <ele>375.474539</ele>
        <time>2021-11-20T21:32:14.303Z</time>
      </trkpt>
      <trkpt lat="47.413677" lon="8.081136">
        <ele>376.500010</ele>
        <time>2021-11-20T21:32:31.717Z</time>
      </trkpt>
      <trkpt lat="47.413656" lon="8.081309">
        <ele>376.731213</ele>
        <time>2021-11-20T21:32:34.010Z</time>
      </trkpt>
      <trkpt lat="47.413627" lon="8.081504">
        <ele>376.993846</ele>
        <time>2021-11-20T21:32:38.779Z</time>
      </trkpt>
      <trkpt lat="47.413599" lon="8.081785">
        <ele>377.367472</ele>
        <time>2021-11-20T21:32:45.009Z</time>
      </trkpt>
      <trkpt lat="47.413596" lon="8.082128">
        <ele>377.818706</ele>
        <time>2021-11-20T21:32:52.803Z</time>
      </trkpt>
      <trkpt lat="47.413609" lon="8.082416">
        <ele>378.198396</ele>
        <time>2021-11-20T21:32:56.306Z</time>
      </trkpt>
      <trkpt lat="47.413640" lon="8.082556">
        <ele>378.392167</ele>
        <time>2021-11-20T21:32:59.423Z</time>
      </trkpt>
      <trkpt lat="47.413695" lon="8.082730">
        <ele>378.588965</ele>
        <time>2021-11-20T21:33:04.243Z</time>
      </trkpt>
      <trkpt lat="47.413794" lon="8.083040">
        <ele>378.788576</ele>
        <time>2021-11-20T21:33:08.851Z</time>
      </trkpt>
      <trkpt lat="47.413791" lon="8.083121">
        <ele>378.835815</ele>
        <time>2021-11-20T21:33:11.594Z</time>
      </trkpt>
      <trkpt lat="47.413790" lon="8.083144">
        <ele>378.849236</ele>
        <time>2021-11-20T21:33:12.164Z</time>
      </trkpt>
      <trkpt lat="47.413781" lon="8.083242">
        <ele>378.906826</ele>
        <time>2021-11-20T21:33:13.370Z</time>
      </trkpt>
      <trkpt lat="47.413767" lon="8.083362">
        <ele>378.977735</ele>
        <time>2021-11-20T21:33:14.555Z</time>
      </trkpt>
      <trkpt lat="47.413721" lon="8.083537">
        <ele>379.087059</ele>
        <time>2021-11-20T21:33:16.773Z</time>
      </trkpt>
      <trkpt lat="47.413670" lon="8.083685">
        <ele>379.183773</ele>
        <time>2021-11-20T21:33:20.448Z</time>
      </trkpt>
      <trkpt lat="47.413607" lon="8.083830">
        <ele>379.284115</ele>
        <time>2021-11-20T21:33:21.819Z</time>
      </trkpt>
      <trkpt lat="47.413511" lon="8.084039">
        <ele>379.431209</ele>
        <time>2021-11-20T21:33:24.832Z</time>
      </trkpt>
      <trkpt lat="47.413294" lon="8.084553">
        <ele>379.783996</ele>
        <time>2021-11-20T21:33:33.578Z</time>
      </trkpt>
      <trkpt lat="47.413177" lon="8.084992">
        <ele>380.058748</ele>
        <time>2021-11-20T21:33:37.941Z</time>
      </trkpt>
      <trkpt lat="47.413137" lon="8.085779">
        <ele>381.531879</ele>
        <time>2021-11-20T21:33:45.394Z</time>
      </trkpt>
      <trkpt lat="47.413145" lon="8.085887">
        <ele>381.745698</ele>
        <time>2021-11-20T21:33:46.186Z</time>
      </trkpt>
      <trkpt lat="47.413173" lon="8.086079">
        <ele>382.132238</ele>
        <time>2021-11-20T21:33:48.972Z</time>
      </trkpt>
      <trkpt lat="47.413215" lon="8.086271">
        <ele>382.529356</ele>
        <time>2021-11-20T21:33:51.853Z</time>
      </trkpt>
      <trkpt lat="47.413391" lon="8.086974">
        <ele>384.004539</ele>
        <time>2021-11-20T21:34:04.209Z</time>
      </trkpt>
      <trkpt lat="47.413532" lon="8.087788">
        <ele>386.419064</ele>
        <time>2021-11-20T21:34:29.015Z</time>
      </trkpt>
      <trkpt lat="47.413531" lon="8.088154">
        <ele>388.776289</ele>
        <time>2021-11-20T21:34:39.439Z</time>
      </trkpt>
      <trkpt lat="47.413528" lon="8.088231">
        <ele>389.273026</ele>
        <time>2021-11-20T21:34:43.447Z</time>
      </trkpt>
      <trkpt lat="47.413517" lon="8.088629">
        <ele>391.838464</ele>
        <time>2021-11-20T21:34:57.074Z</time>
      </trkpt>
      <trkpt lat="47.413542" lon="8.088830">
        <ele>393.154680</ele>
        <time>2021-11-20T21:35:06.594Z</time>
      </trkpt>
      <trkpt lat="47.413624" lon="8.089064">
        <ele>394.851829</ele>
        <time>2021-11-20T21:35:16.698Z</time>
      </trkpt>
      <trkpt lat="47.413688" lon="8.089155">
        <ele>395.697116</ele>
        <time>2021-11-20T21:35:21.853Z</time>
      </trkpt>
      <trkpt lat="47.413707" lon="8.089172">
        <ele>395.908509</ele>
        <time>2021-11-20T21:35:24.019Z</time>
      </trkpt>
      <trkpt lat="47.413753" lon="8.089216">
        <ele>396.430020</ele>
        <time>2021-11-20T21:35:27.582Z</time>
      </trkpt>
      <trkpt lat="47.413895" lon="8.089286">
        <ele>397.854705</ele>
        <time>2021-11-20T21:35:34.986Z</time>
      </trkpt>
      <trkpt lat="47.413981" lon="8.089320">
        <ele>398.701987</ele>
        <time>2021-11-20T21:35:39.742Z</time>
      </trkpt>
      <trkpt lat="47.414016" lon="8.089354">
        <ele>399.100624</ele>
        <time>2021-11-20T21:35:42.280Z</time>
      </trkpt>
      <trkpt lat="47.414086" lon="8.089557">
        <ele>400.567983</ele>
        <time>2021-11-20T21:35:51.750Z</time>
      </trkpt>
      <trkpt lat="47.414152" lon="8.090034">
        <ele>403.332994</ele>
        <time>2021-11-20T21:36:10.059Z</time>
      </trkpt>
      <trkpt lat="47.414185" lon="8.090104">
        <ele>403.721059</ele>
        <time>2021-11-20T21:36:12.743Z</time>
      </trkpt>
      <trkpt lat="47.414223" lon="8.090148">
        <ele>404.045568</ele>
        <time>2021-11-20T21:36:14.859Z</time>
      </trkpt>
      <trkpt lat="47.414263" lon="8.090177">
        <ele>404.345065</ele>
        <time>2021-11-20T21:36:17.079Z</time>
      </trkpt>
      <trkpt lat="47.414311" lon="8.090206">
        <ele>404.693647</ele>
        <time>2021-11-20T21:36:19.423Z</time>
      </trkpt>
      <trkpt lat="47.414455" lon="8.090224">
        <ele>405.665076</ele>
        <time>2021-11-20T21:36:27.579Z</time>
      </trkpt>
      <trkpt lat="47.414478" lon="8.090226">
        <ele>405.819950</ele>
        <time>2021-11-20T21:36:29.129Z</time>
      </trkpt>
      <trkpt lat="47.414549" lon="8.090243">
        <ele>406.303438</ele>
        <time>2021-11-20T21:36:32.037Z</time>
      </trkpt>
      <trkpt lat="47.414616" lon="8.090305">
        <ele>406.834827</ele>
        <time>2021-11-20T21:36:36.025Z</time>
      </trkpt>
      <trkpt lat="47.414644" lon="8.090357">
        <ele>407.137108</ele>
        <time>2021-11-20T21:36:37.935Z</time>
      </trkpt>
      <trkpt lat="47.414620" lon="8.090763">
        <ele>408.990921</ele>
        <time>2021-11-20T21:36:50.804Z</time>
      </trkpt>
      <trkpt lat="47.414618" lon="8.090799">
        <ele>409.155226</ele>
        <time>2021-11-20T21:36:51.854Z</time>
      </trkpt>
      <trkpt lat="47.414614" lon="8.090877">
        <ele>409.511043</ele>
        <time>2021-11-20T21:36:54.145Z</time>
      </trkpt>
      <trkpt lat="47.414713" lon="8.092540">
        <ele>415.169455</ele>
        <time>2021-11-20T21:37:29.195Z</time>
      </trkpt>
      <trkpt lat="47.414903" lon="8.093941">
        <ele>416.779209</ele>
        <time>2021-11-20T21:37:47.306Z</time>
      </trkpt>
      <trkpt lat="47.414916" lon="8.094068">
        <ele>416.923915</ele>
        <time>2021-11-20T21:37:49.443Z</time>
      </trkpt>
      <trkpt lat="47.414968" lon="8.094524">
        <ele>417.444887</ele>
        <time>2021-11-20T21:37:54.529Z</time>
      </trkpt>
      <trkpt lat="47.415215" lon="8.095887">
        <ele>417.185011</ele>
        <time>2021-11-20T21:38:09.926Z</time>
      </trkpt>
      <trkpt lat="47.415283" lon="8.096239">
        <ele>417.091508</ele>
        <time>2021-11-20T21:38:14.096Z</time>
      </trkpt>
      <trkpt lat="47.415297" lon="8.096293">
        <ele>417.076737</ele>
        <time>2021-11-20T21:38:14.562Z</time>
      </trkpt>
      <trkpt lat="47.415477" lon="8.097066">
        <ele>416.867926</ele>
        <time>2021-11-20T21:38:21.247Z</time>
      </trkpt>
      <trkpt lat="47.415504" lon="8.097256">
        <ele>416.524850</ele>
        <time>2021-11-20T21:38:22.820Z</time>
      </trkpt>
      <trkpt lat="47.415531" lon="8.097443">
        <ele>415.991252</ele>
        <time>2021-11-20T21:38:24.189Z</time>
      </trkpt>
      <trkpt lat="47.415537" lon="8.098107">
        <ele>414.138096</ele>
        <time>2021-11-20T21:38:28.615Z</time>
      </trkpt>
      <trkpt lat="47.415527" lon="8.098358">
        <ele>413.436430</ele>
        <time>2021-11-20T21:38:30.288Z</time>
      </trkpt>
      <trkpt lat="47.415523" lon="8.098469">
        <ele>413.126229</ele>
        <time>2021-11-20T21:38:30.969Z</time>
      </trkpt>
      <trkpt lat="47.415494" lon="8.098736">
        <ele>412.371589</ele>
        <time>2021-11-20T21:38:32.755Z</time>
      </trkpt>
      <trkpt lat="47.415444" lon="8.098950">
        <ele>411.739792</ele>
        <time>2021-11-20T21:38:34.208Z</time>
      </trkpt>
      <trkpt lat="47.415420" lon="8.099037">
        <ele>411.477605</ele>
        <time>2021-11-20T21:38:34.769Z</time>
      </trkpt>
      <trkpt lat="47.415223" lon="8.099531">
        <ele>409.877432</ele>
        <time>2021-11-20T21:38:38.413Z</time>
      </trkpt>
      <trkpt lat="47.415159" lon="8.099742">
        <ele>409.198671</ele>
        <time>2021-11-20T21:38:39.967Z</time>
      </trkpt>
      <trkpt lat="47.415142" lon="8.100043">
        <ele>408.213265</ele>
        <time>2021-11-20T21:38:41.796Z</time>
      </trkpt>
      <trkpt lat="47.415178" lon="8.100941">
        <ele>405.278466</ele>
        <time>2021-11-20T21:38:47.411Z</time>
      </trkpt>
      <trkpt lat="47.415260" lon="8.101494">
        <ele>403.431536</ele>
        <time>2021-11-20T21:38:50.969Z</time>
      </trkpt>
      <trkpt lat="47.415689" lon="8.102575">
        <ele>400.779491</ele>
        <time>2021-11-20T21:38:59.453Z</time>
      </trkpt>
      <trkpt lat="47.415790" lon="8.102844">
        <ele>400.794339</ele>
        <time>2021-11-20T21:39:01.724Z</time>
      </trkpt>
      <trkpt lat="47.415831" lon="8.102972">
        <ele>400.801175</ele>
        <time>2021-11-20T21:39:02.874Z</time>
      </trkpt>
      <trkpt lat="47.415849" lon="8.103052">
        <ele>400.805244</ele>
        <time>2021-11-20T21:39:03.665Z</time>
      </trkpt>
      <trkpt lat="47.416031" lon="8.103825">
        <ele>400.844749</ele>
        <time>2021-11-20T21:39:10.680Z</time>
      </trkpt>
      <trkpt lat="47.416047" lon="8.104088">
        <ele>400.857495</ele>
        <time>2021-11-20T21:39:15.041Z</time>
      </trkpt>
      <trkpt lat="47.416028" lon="8.104385">
        <ele>400.871895</ele>
        <time>2021-11-20T21:39:20.054Z</time>
      </trkpt>
      <trkpt lat="47.416014" lon="8.104593">
        <ele>400.881984</ele>
        <time>2021-11-20T21:39:24.339Z</time>
      </trkpt>
      <trkpt lat="47.416062" lon="8.105399">
        <ele>404.323003</ele>
        <time>2021-11-20T21:39:43.186Z</time>
      </trkpt>
      <trkpt lat="47.416098" lon="8.105876">
        <ele>406.651296</ele>
        <time>2021-11-20T21:39:57.013Z</time>
      </trkpt>
      <trkpt lat="47.416086" lon="8.106072">
        <ele>407.605983</ele>
        <time>2021-11-20T21:40:02.623Z</time>
      </trkpt>
      <trkpt lat="47.416051" lon="8.106404">
        <ele>409.235956</ele>
        <time>2021-11-20T21:40:15.066Z</time>
      </trkpt>
      <trkpt lat="47.415963" lon="8.107311">
        <ele>413.680850</ele>
        <time>2021-11-20T21:40:46.963Z</time>
      </trkpt>
      <trkpt lat="47.415914" lon="8.108288">
        <ele>417.895084</ele>
        <time>2021-11-20T21:41:20.478Z</time>
      </trkpt>
      <trkpt lat="47.415904" lon="8.108426">
        <ele>418.490459</ele>
        <time>2021-11-20T21:41:25.327Z</time>
      </trkpt>
      <trkpt lat="47.415825" lon="8.109168">
        <ele>421.712639</ele>
        <time>2021-11-20T21:41:44.098Z</time>
      </trkpt>
      <trkpt lat="47.415819" lon="8.109294">
        <ele>422.254489</ele>
        <time>2021-11-20T21:41:48.003Z</time>
      </trkpt>
      <trkpt lat="47.415828" lon="8.109519">
        <ele>423.221377</ele>
        <time>2021-11-20T21:41:52.825Z</time>
      </trkpt>
      <trkpt lat="47.415887" lon="8.109940">
        <ele>425.065702</ele>
        <time>2021-11-20T21:42:02.208Z</time>
      </trkpt>
      <trkpt lat="47.416029" lon="8.110430">
        <ele>425.599169</ele>
        <time>2021-11-20T21:42:10.730Z</time>
      </trkpt>
      <trkpt lat="47.416110" lon="8.110685">
        <ele>425.830603</ele>
        <time>2021-11-20T21:42:13.153Z</time>
      </trkpt>
      <trkpt lat="47.416140" lon="8.110825">
        <ele>425.951252</ele>
        <time>2021-11-20T21:42:15.755Z</time>
      </trkpt>
      <trkpt lat="47.416289" lon="8.112654">
        <ele>427.717149</ele>
        <time>2021-11-20T21:42:34.250Z</time>
      </trkpt>
      <trkpt lat="47.416317" lon="8.112836">
        <ele>428.269146</ele>
        <time>2021-11-20T21:42:36.392Z</time>
      </trkpt>
      <trkpt lat="47.416367" lon="8.113057">
        <ele>428.958312</ele>
        <time>2021-11-20T21:42:40.340Z</time>
      </trkpt>
      <trkpt lat="47.416914" lon="8.114547">
        <ele>433.971676</ele>
        <time>2021-11-20T21:43:19.944Z</time>
      </trkpt>
      <trkpt lat="47.417019" lon="8.115079">
        <ele>435.725755</ele>
        <time>2021-11-20T21:43:36.684Z</time>
      </trkpt>
      <trkpt lat="47.417128" lon="8.115588">
        <ele>437.781040</ele>
        <time>2021-11-20T21:43:52.531Z</time>
      </trkpt>
      <trkpt lat="47.417162" lon="8.115799">
        <ele>438.616041</ele>
        <time>2021-11-20T21:43:57.168Z</time>
      </trkpt>
      <trkpt lat="47.417169" lon="8.115967">
        <ele>439.264015</ele>
        <time>2021-11-20T21:44:02.509Z</time>
      </trkpt>
      <trkpt lat="47.417159" lon="8.116098">
        <ele>439.771524</ele>
        <time>2021-11-20T21:44:07.533Z</time>
      </trkpt>
      <trkpt lat="47.417111" lon="8.116280">
        <ele>440.523508</ele>
        <time>2021-11-20T21:44:11.465Z</time>
      </trkpt>
      <trkpt lat="47.416825" lon="8.116822">
        <ele>443.169494</ele>
        <time>2021-11-20T21:44:29.802Z</time>
      </trkpt>
      <trkpt lat="47.416771" lon="8.116964">
        <ele>443.796570</ele>
        <time>2021-11-20T21:44:35.668Z</time>
      </trkpt>
      <trkpt lat="47.416715" lon="8.117196">
        <ele>444.744831</ele>
        <time>2021-11-20T21:44:39.761Z</time>
      </trkpt>
      <trkpt lat="47.416676" lon="8.117709">
        <ele>445.247240</ele>
        <time>2021-11-20T21:44:50.075Z</time>
      </trkpt>
      <trkpt lat="47.416641" lon="8.118223">
        <ele>444.911135</ele>
        <time>2021-11-20T21:44:57.708Z</time>
      </trkpt>
      <trkpt lat="47.416569" lon="8.118732">
        <ele>444.572814</ele>
        <time>2021-11-20T21:45:01.851Z</time>
      </trkpt>
      <trkpt lat="47.416459" lon="8.119431">
        <ele>444.105896</ele>
        <time>2021-11-20T21:45:07.004Z</time>
      </trkpt>
      <trkpt lat="47.416298" lon="8.120228">
        <ele>442.831368</ele>
        <time>2021-11-20T21:45:12.312Z</time>
      </trkpt>
      <trkpt lat="47.416291" lon="8.121196">
        <ele>439.448334</ele>
        <time>2021-11-20T21:45:18.426Z</time>
      </trkpt>
      <trkpt lat="47.416479" lon="8.122061">
        <ele>436.273348</ele>
        <time>2021-11-20T21:45:24.203Z</time>
      </trkpt>
      <trkpt lat="47.416514" lon="8.122219">
        <ele>435.692358</ele>
        <time>2021-11-20T21:45:25.210Z</time>
      </trkpt>
      <trkpt lat="47.416581" lon="8.122489">
        <ele>434.687355</ele>
        <time>2021-11-20T21:45:27.086Z</time>
      </trkpt>
      <trkpt lat="47.416611" lon="8.122801">
        <ele>433.391592</ele>
        <time>2021-11-20T21:45:29.076Z</time>
      </trkpt>
      <trkpt lat="47.416603" lon="8.123016">
        <ele>432.468402</ele>
        <time>2021-11-20T21:45:30.441Z</time>
      </trkpt>
      <trkpt lat="47.416592" lon="8.123486">
        <ele>430.452104</ele>
        <time>2021-11-20T21:45:33.374Z</time>
      </trkpt>
      <trkpt lat="47.416602" lon="8.123985">
        <ele>428.311738</ele>
        <time>2021-11-20T21:45:36.472Z</time>
      </trkpt>
      <trkpt lat="47.416618" lon="8.125016">
        <ele>423.890235</ele>
        <time>2021-11-20T21:45:42.772Z</time>
      </trkpt>
      <trkpt lat="47.416621" lon="8.125394">
        <ele>421.998492</ele>
        <time>2021-11-20T21:45:45.032Z</time>
      </trkpt>
      <trkpt lat="47.416600" lon="8.126042">
        <ele>418.247529</ele>
        <time>2021-11-20T21:45:48.946Z</time>
      </trkpt>
      <trkpt lat="47.416577" lon="8.126284">
        <ele>416.834575</ele>
        <time>2021-11-20T21:45:50.375Z</time>
      </trkpt>
      <trkpt lat="47.416502" lon="8.126735">
        <ele>414.149343</ele>
        <time>2021-11-20T21:45:53.157Z</time>
      </trkpt>
      <trkpt lat="47.416433" lon="8.127309">
        <ele>410.778563</ele>
        <time>2021-11-20T21:45:56.549Z</time>
      </trkpt>
      <trkpt lat="47.416388" lon="8.127799">
        <ele>407.919449</ele>
        <time>2021-11-20T21:45:59.463Z</time>
      </trkpt>
      <trkpt lat="47.416342" lon="8.127992">
        <ele>406.739308</ele>
        <time>2021-11-20T21:46:00.660Z</time>
      </trkpt>
      <trkpt lat="47.416247" lon="8.128328">
        <ele>404.640448</ele>
        <time>2021-11-20T21:46:02.794Z</time>
      </trkpt>
      <trkpt lat="47.416135" lon="8.128791">
        <ele>401.806456</ele>
        <time>2021-11-20T21:46:05.735Z</time>
      </trkpt>
      <trkpt lat="47.416094" lon="8.128954">
        <ele>400.804162</ele>
        <time>2021-11-20T21:46:06.749Z</time>
      </trkpt>
      <trkpt lat="47.416075" lon="8.129039">
        <ele>400.288207</ele>
        <time>2021-11-20T21:46:07.293Z</time>
      </trkpt>
      <trkpt lat="47.416061" lon="8.129132">
        <ele>399.739077</ele>
        <time>2021-11-20T21:46:07.873Z</time>
      </trkpt>
      <trkpt lat="47.416055" lon="8.129260">
        <ele>398.999552</ele>
        <time>2021-11-20T21:46:08.657Z</time>
      </trkpt>
      <trkpt lat="47.416060" lon="8.129331">
        <ele>398.588118</ele>
        <time>2021-11-20T21:46:09.067Z</time>
      </trkpt>
      <trkpt lat="47.416325" lon="8.130531">
        <ele>391.343352</ele>
        <time>2021-11-20T21:46:16.590Z</time>
      </trkpt>
      <trkpt lat="47.416527" lon="8.132520">
        <ele>380.091488</ele>
        <time>2021-11-20T21:46:28.527Z</time>
      </trkpt>
      <trkpt lat="47.416534" lon="8.132698">
        <ele>379.094008</ele>
        <time>2021-11-20T21:46:29.563Z</time>
      </trkpt>
      <trkpt lat="47.416563" lon="8.133578">
        <ele>374.969245</ele>
        <time>2021-11-20T21:46:34.922Z</time>
      </trkpt>
      <trkpt lat="47.416587" lon="8.134102">
        <ele>372.742302</ele>
        <time>2021-11-20T21:46:38.106Z</time>
      </trkpt>
      <trkpt lat="47.416604" lon="8.134318">
        <ele>371.820248</ele>
        <time>2021-11-20T21:46:39.387Z</time>
      </trkpt>
      <trkpt lat="47.416625" lon="8.134534">
        <ele>370.894962</ele>
        <time>2021-11-20T21:46:40.764Z</time>
      </trkpt>
      <trkpt lat="47.416658" lon="8.134672">
        <ele>370.274352</ele>
        <time>2021-11-20T21:46:41.680Z</time>
      </trkpt>
      <trkpt lat="47.416726" lon="8.134959">
        <ele>368.984976</ele>
        <time>2021-11-20T21:46:43.524Z</time>
      </trkpt>
      <trkpt lat="47.416749" lon="8.135179">
        <ele>368.041069</ele>
        <time>2021-11-20T21:46:44.975Z</time>
      </trkpt>
      <trkpt lat="47.416750" lon="8.135267">
        <ele>367.667881</ele>
        <time>2021-11-20T21:46:45.538Z</time>
      </trkpt>
      <trkpt lat="47.416747" lon="8.135379">
        <ele>367.192609</ele>
        <time>2021-11-20T21:46:46.253Z</time>
      </trkpt>
      <trkpt lat="47.416720" lon="8.135730">
        <ele>366.037452</ele>
        <time>2021-11-20T21:46:48.621Z</time>
      </trkpt>
      <trkpt lat="47.416691" lon="8.136112">
        <ele>365.478737</ele>
        <time>2021-11-20T21:46:51.217Z</time>
      </trkpt>
      <trkpt lat="47.416679" lon="8.136263">
        <ele>365.257752</ele>
        <time>2021-11-20T21:46:52.297Z</time>
      </trkpt>
      <trkpt lat="47.416663" lon="8.136694">
        <ele>364.630358</ele>
        <time>2021-11-20T21:46:55.373Z</time>
      </trkpt>
      <trkpt lat="47.416661" lon="8.136761">
        <ele>364.532879</ele>
        <time>2021-11-20T21:46:55.890Z</time>
      </trkpt>
      <trkpt lat="47.416653" lon="8.136955">
        <ele>364.250380</ele>
        <time>2021-11-20T21:46:57.231Z</time>
      </trkpt>
      <trkpt lat="47.416633" lon="8.137189">
        <ele>363.907562</ele>
        <time>2021-11-20T21:46:59.182Z</time>
      </trkpt>
      <trkpt lat="47.416589" lon="8.137547">
        <ele>363.378699</ele>
        <time>2021-11-20T21:47:01.848Z</time>
      </trkpt>
      <trkpt lat="47.416510" lon="8.138093">
        <ele>362.567154</ele>
        <time>2021-11-20T21:47:06.469Z</time>
      </trkpt>
      <trkpt lat="47.416461" lon="8.138482">
        <ele>362.478271</ele>
        <time>2021-11-20T21:47:10.414Z</time>
      </trkpt>
      <trkpt lat="47.416432" lon="8.138879">
        <ele>362.680376</ele>
        <time>2021-11-20T21:47:14.803Z</time>
      </trkpt>
      <trkpt lat="47.416397" lon="8.138974">
        <ele>362.735125</ele>
        <time>2021-11-20T21:47:15.824Z</time>
      </trkpt>
      <trkpt lat="47.416327" lon="8.139061">
        <ele>362.803540</ele>
        <time>2021-11-20T21:47:17.455Z</time>
      </trkpt>
      <trkpt lat="47.416289" lon="8.139081">
        <ele>362.833712</ele>
        <time>2021-11-20T21:47:17.922Z</time>
      </trkpt>
      <trkpt lat="47.416307" lon="8.139144">
        <ele>362.868325</ele>
        <time>2021-11-20T21:47:19.102Z</time>
      </trkpt>
      <trkpt lat="47.416304" lon="8.139422">
        <ele>363.009051</ele>
        <time>2021-11-20T21:47:22.412Z</time>
      </trkpt>
      <trkpt lat="47.416191" lon="8.139979">
        <ele>363.303370</ele>
        <time>2021-11-20T21:47:29.964Z</time>
      </trkpt>
      <trkpt lat="47.416177" lon="8.140095">
        <ele>363.363009</ele>
        <time>2021-11-20T21:47:31.435Z</time>
      </trkpt>
      <trkpt lat="47.416163" lon="8.140318">
        <ele>363.476364</ele>
        <time>2021-11-20T21:47:34.778Z</time>
      </trkpt>
      <trkpt lat="47.416163" lon="8.140356">
        <ele>363.495598</ele>
        <time>2021-11-20T21:47:35.454Z</time>
      </trkpt>
      <trkpt lat="47.416160" lon="8.140586">
        <ele>363.612032</ele>
        <time>2021-11-20T21:47:38.960Z</time>
      </trkpt>
      <trkpt lat="47.416159" lon="8.140657">
        <ele>363.647976</ele>
        <time>2021-11-20T21:47:39.652Z</time>
      </trkpt>
      <trkpt lat="47.416161" lon="8.141080">
        <ele>363.731836</ele>
        <time>2021-11-20T21:47:46.338Z</time>
      </trkpt>
      <trkpt lat="47.416161" lon="8.141192">
        <ele>363.743510</ele>
        <time>2021-11-20T21:47:47.684Z</time>
      </trkpt>
      <trkpt lat="47.416163" lon="8.141430">
        <ele>363.768319</ele>
        <time>2021-11-20T21:47:51.202Z</time>
      </trkpt>
      <trkpt lat="47.416163" lon="8.141465">
        <ele>363.771967</ele>
        <time>2021-11-20T21:47:51.778Z</time>
      </trkpt>
      <trkpt lat="47.416149" lon="8.141961">
        <ele>363.823710</ele>
        <time>2021-11-20T21:47:58.143Z</time>
      </trkpt>
      <trkpt lat="47.416140" lon="8.142099">
        <ele>363.838161</ele>
        <time>2021-11-20T21:48:00.023Z</time>
      </trkpt>
      <trkpt lat="47.416098" lon="8.142501">
        <ele>363.880559</ele>
        <time>2021-11-20T21:48:03.921Z</time>
      </trkpt>
      <trkpt lat="47.416040" lon="8.142873">
        <ele>363.920349</ele>
        <time>2021-11-20T21:48:07.031Z</time>
      </trkpt>
      <trkpt lat="47.415961" lon="8.143285">
        <ele>363.964983</ele>
        <time>2021-11-20T21:48:10.390Z</time>
      </trkpt>
      <trkpt lat="47.415927" lon="8.143455">
        <ele>363.821087</ele>
        <time>2021-11-20T21:48:11.761Z</time>
      </trkpt>
      <trkpt lat="47.415796" lon="8.144212">
        <ele>362.318015</ele>
        <time>2021-11-20T21:48:17.525Z</time>
      </trkpt>
      <trkpt lat="47.415782" lon="8.144293">
        <ele>362.157196</ele>
        <time>2021-11-20T21:48:18.066Z</time>
      </trkpt>
      <trkpt lat="47.415749" lon="8.144559">
        <ele>361.636975</ele>
        <time>2021-11-20T21:48:20.004Z</time>
      </trkpt>
      <trkpt lat="47.415703" lon="8.145094">
        <ele>360.599542</ele>
        <time>2021-11-20T21:48:23.667Z</time>
      </trkpt>
      <trkpt lat="47.415660" lon="8.145467">
        <ele>359.871678</ele>
        <time>2021-11-20T21:48:26.198Z</time>
      </trkpt>
      <trkpt lat="47.415619" lon="8.145817">
        <ele>359.188382</ele>
        <time>2021-11-20T21:48:28.588Z</time>
      </trkpt>
      <trkpt lat="47.415601" lon="8.145965">
        <ele>358.899118</ele>
        <time>2021-11-20T21:48:29.586Z</time>
      </trkpt>
      <trkpt lat="47.415531" lon="8.146555">
        <ele>357.916711</ele>
        <time>2021-11-20T21:48:33.652Z</time>
      </trkpt>
      <trkpt lat="47.415487" lon="8.146937">
        <ele>357.284857</ele>
        <time>2021-11-20T21:48:36.349Z</time>
      </trkpt>
      <trkpt lat="47.415443" lon="8.147291">
        <ele>356.697962</ele>
        <time>2021-11-20T21:48:38.875Z</time>
      </trkpt>
      <trkpt lat="47.415271" lon="8.148640">
        <ele>354.510242</ele>
        <time>2021-11-20T21:48:49.134Z</time>
      </trkpt>
      <trkpt lat="47.415243" lon="8.149157">
        <ele>354.294128</ele>
        <time>2021-11-20T21:48:53.567Z</time>
      </trkpt>
      <trkpt lat="47.415244" lon="8.149230">
        <ele>354.263704</ele>
        <time>2021-11-20T21:48:54.176Z</time>
      </trkpt>
      <trkpt lat="47.415244" lon="8.149230">
        <ele>354.263704</ele>
        <time>2021-11-20T21:48:54.266Z</time>
      </trkpt>
      <trkpt lat="47.415244" lon="8.149230">
        <ele>354.263704</ele>
        <time>2021-11-20T21:48:54.301Z</time>
      </trkpt>
      <trkpt lat="47.415246" lon="8.149567">
        <ele>354.123276</ele>
        <time>2021-11-20T21:48:57.606Z</time>
      </trkpt>
      <trkpt lat="47.415264" lon="8.149983">
        <ele>353.949582</ele>
        <time>2021-11-20T21:49:01.648Z</time>
      </trkpt>
      <trkpt lat="47.415291" lon="8.150310">
        <ele>353.812316</ele>
        <time>2021-11-20T21:49:04.578Z</time>
      </trkpt>
      <trkpt lat="47.415341" lon="8.150705">
        <ele>353.644872</ele>
        <time>2021-11-20T21:49:08.728Z</time>
      </trkpt>
      <trkpt lat="47.415493" lon="8.151582">
        <ele>353.206741</ele>
        <time>2021-11-20T21:49:16.663Z</time>
      </trkpt>
      <trkpt lat="47.415545" lon="8.151791">
        <ele>353.076882</ele>
        <time>2021-11-20T21:49:18.563Z</time>
      </trkpt>
      <trkpt lat="47.415657" lon="8.152225">
        <ele>352.806009</ele>
        <time>2021-11-20T21:49:22.707Z</time>
      </trkpt>
      <trkpt lat="47.415814" lon="8.152754">
        <ele>352.469149</ele>
        <time>2021-11-20T21:49:27.686Z</time>
      </trkpt>
      <trkpt lat="47.415897" lon="8.152993">
        <ele>352.312491</ele>
        <time>2021-11-20T21:49:29.757Z</time>
      </trkpt>
      <trkpt lat="47.416136" lon="8.153630">
        <ele>351.887737</ele>
        <time>2021-11-20T21:49:35.534Z</time>
      </trkpt>
      <trkpt lat="47.416565" lon="8.154411">
        <ele>351.567597</ele>
        <time>2021-11-20T21:49:43.788Z</time>
      </trkpt>
      <trkpt lat="47.416777" lon="8.154683">
        <ele>351.438982</ele>
        <time>2021-11-20T21:49:47.587Z</time>
      </trkpt>
      <trkpt lat="47.417050" lon="8.155013">
        <ele>351.277408</ele>
        <time>2021-11-20T21:49:53.167Z</time>
      </trkpt>
      <trkpt lat="47.417349" lon="8.155387">
        <ele>351.097953</ele>
        <time>2021-11-20T21:49:59.027Z</time>
      </trkpt>
      <trkpt lat="47.417678" lon="8.155825">
        <ele>350.894188</ele>
        <time>2021-11-20T21:50:05.358Z</time>
      </trkpt>
      <trkpt lat="47.417784" lon="8.155967">
        <ele>350.828253</ele>
        <time>2021-11-20T21:50:07.724Z</time>
      </trkpt>
      <trkpt lat="47.417842" lon="8.156043">
        <ele>350.792528</ele>
        <time>2021-11-20T21:50:08.745Z</time>
      </trkpt>
      <trkpt lat="47.417945" lon="8.156210">
        <ele>350.722062</ele>
        <time>2021-11-20T21:50:10.768Z</time>
      </trkpt>
      <trkpt lat="47.418118" lon="8.156488">
        <ele>350.604279</ele>
        <time>2021-11-20T21:50:14.480Z</time>
      </trkpt>
      <trkpt lat="47.418155" lon="8.156547">
        <ele>350.579193</ele>
        <time>2021-11-20T21:50:15.126Z</time>
      </trkpt>
      <trkpt lat="47.418313" lon="8.156805">
        <ele>350.470678</ele>
        <time>2021-11-20T21:50:18.514Z</time>
      </trkpt>
      <trkpt lat="47.418372" lon="8.156901">
        <ele>350.430235</ele>
        <time>2021-11-20T21:50:19.547Z</time>
      </trkpt>
      <trkpt lat="47.418814" lon="8.157624">
        <ele>350.046982</ele>
        <time>2021-11-20T21:50:27.713Z</time>
      </trkpt>
      <trkpt lat="47.419193" lon="8.158226">
        <ele>349.566070</ele>
        <time>2021-11-20T21:50:34.187Z</time>
      </trkpt>
      <trkpt lat="47.419233" lon="8.158285">
        <ele>349.517222</ele>
        <time>2021-11-20T21:50:34.872Z</time>
      </trkpt>
      <trkpt lat="47.419324" lon="8.158381">
        <ele>349.420583</ele>
        <time>2021-11-20T21:50:36.217Z</time>
      </trkpt>
      <trkpt lat="47.419465" lon="8.158501">
        <ele>349.279946</ele>
        <time>2021-11-20T21:50:38.203Z</time>
      </trkpt>
      <trkpt lat="47.419614" lon="8.158620">
        <ele>349.133555</ele>
        <time>2021-11-20T21:50:40.362Z</time>
      </trkpt>
      <trkpt lat="47.419775" lon="8.158714">
        <ele>348.983928</ele>
        <time>2021-11-20T21:50:42.580Z</time>
      </trkpt>
      <trkpt lat="47.419895" lon="8.158784">
        <ele>348.872419</ele>
        <time>2021-11-20T21:50:44.247Z</time>
      </trkpt>
      <trkpt lat="47.420004" lon="8.158855">
        <ele>348.769459</ele>
        <time>2021-11-20T21:50:45.845Z</time>
      </trkpt>
      <trkpt lat="47.420021" lon="8.158866">
        <ele>348.753418</ele>
        <time>2021-11-20T21:50:46.090Z</time>
      </trkpt>
      <trkpt lat="47.420051" lon="8.158886">
        <ele>348.724972</ele>
        <time>2021-11-20T21:50:46.651Z</time>
      </trkpt>
      <trkpt lat="47.420791" lon="8.159468">
        <ele>348.422756</ele>
        <time>2021-11-20T21:50:58.252Z</time>
      </trkpt>
      <trkpt lat="47.421022" lon="8.159550">
        <ele>348.348419</ele>
        <time>2021-11-20T21:51:01.863Z</time>
      </trkpt>
      <trkpt lat="47.421146" lon="8.159582">
        <ele>348.309032</ele>
        <time>2021-11-20T21:51:03.650Z</time>
      </trkpt>
      <trkpt lat="47.421508" lon="8.159635">
        <ele>348.195205</ele>
        <time>2021-11-20T21:51:08.921Z</time>
      </trkpt>
      <trkpt lat="47.421686" lon="8.159661">
        <ele>348.139237</ele>
        <time>2021-11-20T21:51:11.292Z</time>
      </trkpt>
      <trkpt lat="47.422969" lon="8.160283">
        <ele>347.133845</ele>
        <time>2021-11-20T21:51:28.296Z</time>
      </trkpt>
      <trkpt lat="47.423331" lon="8.160349">
        <ele>346.845955</ele>
        <time>2021-11-20T21:51:32.768Z</time>
      </trkpt>
      <trkpt lat="47.423707" lon="8.160329">
        <ele>346.628786</ele>
        <time>2021-11-20T21:51:37.478Z</time>
      </trkpt>
      <trkpt lat="47.423972" lon="8.160266">
        <ele>346.546035</ele>
        <time>2021-11-20T21:51:40.869Z</time>
      </trkpt>
      <trkpt lat="47.424146" lon="8.160232">
        <ele>346.491924</ele>
        <time>2021-11-20T21:51:43.124Z</time>
      </trkpt>
      <trkpt lat="47.424450" lon="8.160184">
        <ele>346.397667</ele>
        <time>2021-11-20T21:51:47.095Z</time>
      </trkpt>
      <trkpt lat="47.424982" lon="8.160076">
        <ele>346.232110</ele>
        <time>2021-11-20T21:51:54.532Z</time>
      </trkpt>
      <trkpt lat="47.425250" lon="8.160026">
        <ele>346.148829</ele>
        <time>2021-11-20T21:51:58.581Z</time>
      </trkpt>
      <trkpt lat="47.425561" lon="8.159911">
        <ele>346.901229</ele>
        <time>2021-11-20T21:52:03.685Z</time>
      </trkpt>
      <trkpt lat="47.425842" lon="8.159776">
        <ele>347.838347</ele>
        <time>2021-11-20T21:52:08.969Z</time>
      </trkpt>
      <trkpt lat="47.425955" lon="8.159702">
        <ele>348.230339</ele>
        <time>2021-11-20T21:52:11.971Z</time>
      </trkpt>
      <trkpt lat="47.426234" lon="8.159476">
        <ele>349.239384</ele>
        <time>2021-11-20T21:52:21.507Z</time>
      </trkpt>
      <trkpt lat="47.426380" lon="8.159332">
        <ele>349.796063</ele>
        <time>2021-11-20T21:52:25.933Z</time>
      </trkpt>
      <trkpt lat="47.426687" lon="8.158983">
        <ele>351.024411</ele>
        <time>2021-11-20T21:52:39.232Z</time>
      </trkpt>
      <trkpt lat="47.426993" lon="8.158713">
        <ele>352.505742</ele>
        <time>2021-11-20T21:52:52.781Z</time>
      </trkpt>
      <trkpt lat="47.427111" lon="8.158647">
        <ele>353.338535</ele>
        <time>2021-11-20T21:52:58.702Z</time>
      </trkpt>
      <trkpt lat="47.427086" lon="8.158436">
        <ele>354.295125</ele>
        <time>2021-11-20T21:53:05.103Z</time>
      </trkpt>
      <trkpt lat="47.427098" lon="8.158353">
        <ele>354.674141</ele>
        <time>2021-11-20T21:53:07.033Z</time>
      </trkpt>
      <trkpt lat="47.427125" lon="8.158289">
        <ele>355.010957</ele>
        <time>2021-11-20T21:53:09.798Z</time>
      </trkpt>
      <trkpt lat="47.427170" lon="8.158221">
        <ele>355.435741</ele>
        <time>2021-11-20T21:53:13.657Z</time>
      </trkpt>
      <trkpt lat="47.427461" lon="8.157918">
        <ele>357.785301</ele>
        <time>2021-11-20T21:53:30.072Z</time>
      </trkpt>
      <trkpt lat="47.427940" lon="8.157515">
        <ele>361.423372</ele>
        <time>2021-11-20T21:53:56.178Z</time>
      </trkpt>
      <trkpt lat="47.428226" lon="8.157266">
        <ele>363.614325</ele>
        <time>2021-11-20T21:54:13.206Z</time>
      </trkpt>
      <trkpt lat="47.428433" lon="8.157043">
        <ele>364.981269</ele>
        <time>2021-11-20T21:54:25.936Z</time>
      </trkpt>
      <trkpt lat="47.428740" lon="8.156837">
        <ele>366.757080</ele>
        <time>2021-11-20T21:54:39.916Z</time>
      </trkpt>
      <trkpt lat="47.428897" lon="8.156756">
        <ele>367.632939</ele>
        <time>2021-11-20T21:54:47.696Z</time>
      </trkpt>
      <trkpt lat="47.429071" lon="8.156623">
        <ele>368.664696</ele>
        <time>2021-11-20T21:54:55.056Z</time>
      </trkpt>
      <trkpt lat="47.429279" lon="8.156487">
        <ele>369.862647</ele>
        <time>2021-11-20T21:55:04.709Z</time>
      </trkpt>
      <trkpt lat="47.430112" lon="8.155879">
        <ele>374.065863</ele>
        <time>2021-11-20T21:55:38.217Z</time>
      </trkpt>
      <trkpt lat="47.430458" lon="8.155541">
        <ele>375.296136</ele>
        <time>2021-11-20T21:55:53.291Z</time>
      </trkpt>
      <trkpt lat="47.431274" lon="8.154416">
        <ele>378.523086</ele>
        <time>2021-11-20T21:56:27.067Z</time>
      </trkpt>
      <trkpt lat="47.431393" lon="8.154256">
        <ele>378.580198</ele>
        <time>2021-11-20T21:56:31.235Z</time>
      </trkpt>
      <trkpt lat="47.431805" lon="8.153533">
        <ele>378.807244</ele>
        <time>2021-11-20T21:56:46.410Z</time>
      </trkpt>
      <trkpt lat="47.431984" lon="8.153231">
        <ele>378.903680</ele>
        <time>2021-11-20T21:56:51.977Z</time>
      </trkpt>
      <trkpt lat="47.432608" lon="8.152330">
        <ele>378.916410</ele>
        <time>2021-11-20T21:57:07.979Z</time>
      </trkpt>
      <trkpt lat="47.432851" lon="8.151844">
        <ele>378.377250</ele>
        <time>2021-11-20T21:57:14.705Z</time>
      </trkpt>
      <trkpt lat="47.432970" lon="8.151627">
        <ele>378.128034</ele>
        <time>2021-11-20T21:57:17.686Z</time>
      </trkpt>
      <trkpt lat="47.433171" lon="8.151237">
        <ele>377.690626</ele>
        <time>2021-11-20T21:57:23.175Z</time>
      </trkpt>
      <trkpt lat="47.433637" lon="8.150773">
        <ele>376.949644</ele>
        <time>2021-11-20T21:57:32.542Z</time>
      </trkpt>
      <trkpt lat="47.433738" lon="8.150719">
        <ele>376.807998</ele>
        <time>2021-11-20T21:57:34.243Z</time>
      </trkpt>
      <trkpt lat="47.433787" lon="8.150557">
        <ele>376.701959</ele>
        <time>2021-11-20T21:57:35.658Z</time>
      </trkpt>
      <trkpt lat="47.433981" lon="8.150197">
        <ele>376.458267</ele>
        <time>2021-11-20T21:57:39.290Z</time>
      </trkpt>
      <trkpt lat="47.434345" lon="8.149712">
        <ele>376.074722</ele>
        <time>2021-11-20T21:57:45.157Z</time>
      </trkpt>
      <trkpt lat="47.435477" lon="8.148648">
        <ele>375.551296</ele>
        <time>2021-11-20T21:58:03.765Z</time>
      </trkpt>
      <trkpt lat="47.435655" lon="8.148462">
        <ele>375.640539</ele>
        <time>2021-11-20T21:58:07.091Z</time>
      </trkpt>
      <trkpt lat="47.435751" lon="8.148349">
        <ele>375.690780</ele>
        <time>2021-11-20T21:58:09.218Z</time>
      </trkpt>
      <trkpt lat="47.435898" lon="8.148174">
        <ele>375.768052</ele>
        <time>2021-11-20T21:58:12.394Z</time>
      </trkpt>
      <trkpt lat="47.436053" lon="8.147987">
        <ele>375.849961</ele>
        <time>2021-11-20T21:58:15.857Z</time>
      </trkpt>
      <trkpt lat="47.436565" lon="8.147678">
        <ele>376.076378</ele>
        <time>2021-11-20T21:58:25.740Z</time>
      </trkpt>
      <trkpt lat="47.436610" lon="8.147666">
        <ele>376.095099</ele>
        <time>2021-11-20T21:58:26.497Z</time>
      </trkpt>
      <trkpt lat="47.436647" lon="8.147472">
        <ele>376.286657</ele>
        <time>2021-11-20T21:58:29.259Z</time>
      </trkpt>
      <trkpt lat="47.436789" lon="8.147229">
        <ele>376.649649</ele>
        <time>2021-11-20T21:58:33.219Z</time>
      </trkpt>
      <trkpt lat="47.436840" lon="8.147218">
        <ele>376.735780</ele>
        <time>2021-11-20T21:58:34.360Z</time>
      </trkpt>
      <trkpt lat="47.436876" lon="8.147206">
        <ele>376.797451</ele>
        <time>2021-11-20T21:58:35.060Z</time>
      </trkpt>
      <trkpt lat="47.437074" lon="8.147140">
        <ele>377.136646</ele>
        <time>2021-11-20T21:58:38.909Z</time>
      </trkpt>
      <trkpt lat="47.437959" lon="8.146894">
        <ele>378.641530</ele>
        <time>2021-11-20T21:58:56.158Z</time>
      </trkpt>
      <trkpt lat="47.438170" lon="8.146818">
        <ele>379.004457</ele>
        <time>2021-11-20T21:59:02.132Z</time>
      </trkpt>
      <trkpt lat="47.438451" lon="8.146713">
        <ele>380.354972</ele>
        <time>2021-11-20T21:59:10.522Z</time>
      </trkpt>
      <trkpt lat="47.438510" lon="8.146691">
        <ele>380.690817</ele>
        <time>2021-11-20T21:59:12.576Z</time>
      </trkpt>
      <trkpt lat="47.438799" lon="8.146584">
        <ele>382.335190</ele>
        <time>2021-11-20T21:59:22.643Z</time>
      </trkpt>
      <trkpt lat="47.438872" lon="8.146541">
        <ele>382.768910</ele>
        <time>2021-11-20T21:59:26.270Z</time>
      </trkpt>
      <trkpt lat="47.438978" lon="8.146396">
        <ele>383.565979</ele>
        <time>2021-11-20T21:59:31.942Z</time>
      </trkpt>
      <trkpt lat="47.439035" lon="8.146242">
        <ele>384.221345</ele>
        <time>2021-11-20T21:59:36.474Z</time>
      </trkpt>
      <trkpt lat="47.439042" lon="8.146081">
        <ele>384.823631</ele>
        <time>2021-11-20T21:59:41.470Z</time>
      </trkpt>
      <trkpt lat="47.438991" lon="8.145854">
        <ele>385.716597</ele>
        <time>2021-11-20T21:59:47.912Z</time>
      </trkpt>
      <trkpt lat="47.438801" lon="8.145435">
        <ele>387.599821</ele>
        <time>2021-11-20T22:00:02.178Z</time>
      </trkpt>
      <trkpt lat="47.438715" lon="8.144871">
        <ele>389.711957</ele>
        <time>2021-11-20T22:00:17.870Z</time>
      </trkpt>
      <trkpt lat="47.438758" lon="8.144614">
        <ele>390.636658</ele>
        <time>2021-11-20T22:00:25.669Z</time>
      </trkpt>
      <trkpt lat="47.438782" lon="8.144495">
        <ele>391.070383</ele>
        <time>2021-11-20T22:00:28.190Z</time>
      </trkpt>
      <trkpt lat="47.438782" lon="8.144495">
        <ele>391.070383</ele>
        <time>2021-11-20T22:00:28.305Z</time>
      </trkpt>
      <trkpt lat="47.438824" lon="8.144295">
        <ele>391.801833</ele>
        <time>2021-11-20T22:00:33.751Z</time>
      </trkpt>
      <trkpt lat="47.438937" lon="8.144018">
        <ele>392.931680</ele>
        <time>2021-11-20T22:00:42.385Z</time>
      </trkpt>
      <trkpt lat="47.439021" lon="8.143799">
        <ele>393.811029</ele>
        <time>2021-11-20T22:00:49.491Z</time>
      </trkpt>
      <trkpt lat="47.439124" lon="8.143531">
        <ele>394.887649</ele>
        <time>2021-11-20T22:00:56.746Z</time>
      </trkpt>
      <trkpt lat="47.439216" lon="8.143281">
        <ele>395.881713</ele>
        <time>2021-11-20T22:01:03.801Z</time>
      </trkpt>
      <trkpt lat="47.439344" lon="8.142648">
        <ele>398.189313</ele>
        <time>2021-11-20T22:01:17.445Z</time>
      </trkpt>
      <trkpt lat="47.439373" lon="8.142503">
        <ele>398.445978</ele>
        <time>2021-11-20T22:01:19.991Z</time>
      </trkpt>
      <trkpt lat="47.439410" lon="8.142333">
        <ele>398.634626</ele>
        <time>2021-11-20T22:01:23.465Z</time>
      </trkpt>
      <trkpt lat="47.439476" lon="8.142040">
        <ele>398.960850</ele>
        <time>2021-11-20T22:01:26.850Z</time>
      </trkpt>
      <trkpt lat="47.439553" lon="8.141724">
        <ele>399.315657</ele>
        <time>2021-11-20T22:01:32.089Z</time>
      </trkpt>
      <trkpt lat="47.439779" lon="8.140647">
        <ele>400.506835</ele>
        <time>2021-11-20T22:01:46.081Z</time>
      </trkpt>
      <trkpt lat="47.439918" lon="8.140057">
        <ele>401.157924</ele>
        <time>2021-11-20T22:01:54.191Z</time>
      </trkpt>
      <trkpt lat="47.439969" lon="8.139888">
        <ele>401.294398</ele>
        <time>2021-11-20T22:01:56.772Z</time>
      </trkpt>
      <trkpt lat="47.440259" lon="8.139001">
        <ele>402.020940</ele>
        <time>2021-11-20T22:02:09.223Z</time>
      </trkpt>
      <trkpt lat="47.440731" lon="8.137532">
        <ele>403.313199</ele>
        <time>2021-11-20T22:02:29.658Z</time>
      </trkpt>
      <trkpt lat="47.440960" lon="8.136820">
        <ele>404.338208</ele>
        <time>2021-11-20T22:02:42.068Z</time>
      </trkpt>
      <trkpt lat="47.441023" lon="8.136600">
        <ele>404.648812</ele>
        <time>2021-11-20T22:02:45.431Z</time>
      </trkpt>
      <trkpt lat="47.441048" lon="8.136493">
        <ele>404.795989</ele>
        <time>2021-11-20T22:02:47.887Z</time>
      </trkpt>
      <trkpt lat="47.441129" lon="8.136076">
        <ele>405.360046</ele>
        <time>2021-11-20T22:02:54.224Z</time>
      </trkpt>
      <trkpt lat="47.441151" lon="8.135898">
        <ele>405.595296</ele>
        <time>2021-11-20T22:02:57.763Z</time>
      </trkpt>
      <trkpt lat="47.441171" lon="8.135712">
        <ele>405.840151</ele>
        <time>2021-11-20T22:03:00.387Z</time>
      </trkpt>
      <trkpt lat="47.441179" lon="8.135579">
        <ele>406.013747</ele>
        <time>2021-11-20T22:03:02.359Z</time>
      </trkpt>
      <trkpt lat="47.441186" lon="8.135414">
        <ele>406.228684</ele>
        <time>2021-11-20T22:03:05.815Z</time>
      </trkpt>
      <trkpt lat="47.441210" lon="8.134656">
        <ele>406.898453</ele>
        <time>2021-11-20T22:03:17.167Z</time>
      </trkpt>
      <trkpt lat="47.441256" lon="8.133234">
        <ele>407.860003</ele>
        <time>2021-11-20T22:03:35.407Z</time>
      </trkpt>
      <trkpt lat="47.441285" lon="8.133039">
        <ele>407.994857</ele>
        <time>2021-11-20T22:03:38.313Z</time>
      </trkpt>
      <trkpt lat="47.441370" lon="8.132424">
        <ele>408.308324</ele>
        <time>2021-11-20T22:03:45.053Z</time>
      </trkpt>
      <trkpt lat="47.441373" lon="8.132396">
        <ele>408.295752</ele>
        <time>2021-11-20T22:03:45.232Z</time>
      </trkpt>
      <trkpt lat="47.441406" lon="8.131816">
        <ele>408.037626</ele>
        <time>2021-11-20T22:03:50.476Z</time>
      </trkpt>
      <trkpt lat="47.441442" lon="8.131718">
        <ele>407.988168</ele>
        <time>2021-11-20T22:03:51.228Z</time>
      </trkpt>
      <trkpt lat="47.441375" lon="8.131552">
        <ele>407.902439</ele>
        <time>2021-11-20T22:03:53.335Z</time>
      </trkpt>
      <trkpt lat="47.441088" lon="8.130997">
        <ele>407.592610</ele>
        <time>2021-11-20T22:03:58.752Z</time>
      </trkpt>
      <trkpt lat="47.441024" lon="8.130926">
        <ele>407.540146</ele>
        <time>2021-11-20T22:04:00.213Z</time>
      </trkpt>
      <trkpt lat="47.441000" lon="8.130897">
        <ele>407.519822</ele>
        <time>2021-11-20T22:04:00.496Z</time>
      </trkpt>
      <trkpt lat="47.440978" lon="8.130862">
        <ele>407.498632</ele>
        <time>2021-11-20T22:04:01.074Z</time>
      </trkpt>
      <trkpt lat="47.440943" lon="8.130809">
        <ele>407.465782</ele>
        <time>2021-11-20T22:04:01.887Z</time>
      </trkpt>
      <trkpt lat="47.440891" lon="8.130708">
        <ele>407.409489</ele>
        <time>2021-11-20T22:04:03.062Z</time>
      </trkpt>
      <trkpt lat="47.440840" lon="8.130492">
        <ele>407.308028</ele>
        <time>2021-11-20T22:04:05.289Z</time>
      </trkpt>
      <trkpt lat="47.440840" lon="8.130427">
        <ele>407.279201</ele>
        <time>2021-11-20T22:04:05.695Z</time>
      </trkpt>
      <trkpt lat="47.440889" lon="8.130164">
        <ele>407.171901</ele>
        <time>2021-11-20T22:04:08.572Z</time>
      </trkpt>
      <trkpt lat="47.440963" lon="8.129769">
        <ele>407.161236</ele>
        <time>2021-11-20T22:04:12.790Z</time>
      </trkpt>
      <trkpt lat="47.440994" lon="8.129640">
        <ele>407.157674</ele>
        <time>2021-11-20T22:04:13.824Z</time>
      </trkpt>
      <trkpt lat="47.441146" lon="8.128500">
        <ele>407.127440</ele>
        <time>2021-11-20T22:04:24.142Z</time>
      </trkpt>
      <trkpt lat="47.441262" lon="8.127516">
        <ele>407.180042</ele>
        <time>2021-11-20T22:04:35.519Z</time>
      </trkpt>
      <trkpt lat="47.441277" lon="8.127183">
        <ele>407.495286</ele>
        <time>2021-11-20T22:04:39.398Z</time>
      </trkpt>
      <trkpt lat="47.441266" lon="8.126867">
        <ele>407.794170</ele>
        <time>2021-11-20T22:04:45.161Z</time>
      </trkpt>
      <trkpt lat="47.441238" lon="8.126576">
        <ele>408.071812</ele>
        <time>2021-11-20T22:04:48.631Z</time>
      </trkpt>
      <trkpt lat="47.441214" lon="8.126456">
        <ele>408.190014</ele>
        <time>2021-11-20T22:04:51.621Z</time>
      </trkpt>
      <trkpt lat="47.441104" lon="8.125606">
        <ele>409.007478</ele>
        <time>2021-11-20T22:05:01.528Z</time>
      </trkpt>
      <trkpt lat="47.441091" lon="8.125443">
        <ele>409.162513</ele>
        <time>2021-11-20T22:05:05.093Z</time>
      </trkpt>
      <trkpt lat="47.441081" lon="8.125303">
        <ele>409.295491</ele>
        <time>2021-11-20T22:05:06.732Z</time>
      </trkpt>
      <trkpt lat="47.441067" lon="8.125024">
        <ele>409.559755</ele>
        <time>2021-11-20T22:05:10.456Z</time>
      </trkpt>
      <trkpt lat="47.441063" lon="8.124846">
        <ele>409.734487</ele>
        <time>2021-11-20T22:05:14.434Z</time>
      </trkpt>
      <trkpt lat="47.441073" lon="8.124657">
        <ele>409.923915</ele>
        <time>2021-11-20T22:05:16.719Z</time>
      </trkpt>
      <trkpt lat="47.441181" lon="8.123600">
        <ele>410.992064</ele>
        <time>2021-11-20T22:05:33.591Z</time>
      </trkpt>
      <trkpt lat="47.441230" lon="8.123139">
        <ele>411.458353</ele>
        <time>2021-11-20T22:05:40.236Z</time>
      </trkpt>
      <trkpt lat="47.441253" lon="8.122860">
        <ele>411.739195</ele>
        <time>2021-11-20T22:05:43.939Z</time>
      </trkpt>
      <trkpt lat="47.441259" lon="8.122119">
        <ele>412.391409</ele>
        <time>2021-11-20T22:05:51.787Z</time>
      </trkpt>
      <trkpt lat="47.441260" lon="8.121851">
        <ele>412.544960</ele>
        <time>2021-11-20T22:05:55.346Z</time>
      </trkpt>
      <trkpt lat="47.441242" lon="8.121608">
        <ele>412.685016</ele>
        <time>2021-11-20T22:05:57.790Z</time>
      </trkpt>
      <trkpt lat="47.441185" lon="8.120992">
        <ele>413.041235</ele>
        <time>2021-11-20T22:06:05.580Z</time>
      </trkpt>
      <trkpt lat="47.441158" lon="8.120592">
        <ele>413.271550</ele>
        <time>2021-11-20T22:06:11.098Z</time>
      </trkpt>
      <trkpt lat="47.441147" lon="8.120369">
        <ele>413.399655</ele>
        <time>2021-11-20T22:06:14.038Z</time>
      </trkpt>
      <trkpt lat="47.441139" lon="8.120050">
        <ele>413.582549</ele>
        <time>2021-11-20T22:06:18.011Z</time>
      </trkpt>
      <trkpt lat="47.441148" lon="8.119325">
        <ele>413.967813</ele>
        <time>2021-11-20T22:06:26.734Z</time>
      </trkpt>
      <trkpt lat="47.441161" lon="8.118889">
        <ele>414.180408</ele>
        <time>2021-11-20T22:06:31.732Z</time>
      </trkpt>
      <trkpt lat="47.441160" lon="8.118632">
        <ele>414.305603</ele>
        <time>2021-11-20T22:06:34.746Z</time>
      </trkpt>
      <trkpt lat="47.441151" lon="8.118249">
        <ele>414.492286</ele>
        <time>2021-11-20T22:06:39.077Z</time>
      </trkpt>
      <trkpt lat="47.441143" lon="8.117969">
        <ele>414.628804</ele>
        <time>2021-11-20T22:06:42.526Z</time>
      </trkpt>
      <trkpt lat="47.441126" lon="8.117583">
        <ele>414.817235</ele>
        <time>2021-11-20T22:06:47.265Z</time>
      </trkpt>
      <trkpt lat="47.441072" lon="8.117175">
        <ele>415.019754</ele>
        <time>2021-11-20T22:06:52.251Z</time>
      </trkpt>
      <trkpt lat="47.441002" lon="8.116649">
        <ele>415.426660</ele>
        <time>2021-11-20T22:06:58.621Z</time>
      </trkpt>
      <trkpt lat="47.440589" lon="8.115040">
        <ele>416.911540</ele>
        <time>2021-11-20T22:07:21.300Z</time>
      </trkpt>
      <trkpt lat="47.440417" lon="8.114455">
        <ele>417.545181</ele>
        <time>2021-11-20T22:07:30.744Z</time>
      </trkpt>
      <trkpt lat="47.440342" lon="8.114157">
        <ele>418.122003</ele>
        <time>2021-11-20T22:07:35.910Z</time>
      </trkpt>
      <trkpt lat="47.440229" lon="8.113672">
        <ele>419.052594</ele>
        <time>2021-11-20T22:07:44.223Z</time>
      </trkpt>
      <trkpt lat="47.440053" lon="8.112608">
        <ele>421.039715</ele>
        <time>2021-11-20T22:08:03.754Z</time>
      </trkpt>
      <trkpt lat="47.439893" lon="8.111132">
        <ele>424.125904</ele>
        <time>2021-11-20T22:08:31.862Z</time>
      </trkpt>
      <trkpt lat="47.439868" lon="8.110864">
        <ele>424.735935</ele>
        <time>2021-11-20T22:08:37.259Z</time>
      </trkpt>
      <trkpt lat="47.439797" lon="8.110143">
        <ele>426.378852</ele>
        <time>2021-11-20T22:08:51.166Z</time>
      </trkpt>
      <trkpt lat="47.439783" lon="8.110028">
        <ele>426.642332</ele>
        <time>2021-11-20T22:08:53.376Z</time>
      </trkpt>
      <trkpt lat="47.439736" lon="8.109646">
        <ele>427.517837</ele>
        <time>2021-11-20T22:09:01.154Z</time>
      </trkpt>
      <trkpt lat="47.439627" lon="8.109005">
        <ele>428.877883</ele>
        <time>2021-11-20T22:09:13.629Z</time>
      </trkpt>
      <trkpt lat="47.439529" lon="8.108595">
        <ele>429.698910</ele>
        <time>2021-11-20T22:09:21.854Z</time>
      </trkpt>
      <trkpt lat="47.439446" lon="8.108296">
        <ele>430.309141</ele>
        <time>2021-11-20T22:09:27.188Z</time>
      </trkpt>
      <trkpt lat="47.439314" lon="8.107942">
        <ele>431.072364</ele>
        <time>2021-11-20T22:09:34.080Z</time>
      </trkpt>
      <trkpt lat="47.439207" lon="8.107635">
        <ele>431.724438</ele>
        <time>2021-11-20T22:09:40.172Z</time>
      </trkpt>
      <trkpt lat="47.438974" lon="8.106907">
        <ele>433.238631</ele>
        <time>2021-11-20T22:09:53.843Z</time>
      </trkpt>
      <trkpt lat="47.438899" lon="8.106626">
        <ele>433.593433</ele>
        <time>2021-11-20T22:09:59.062Z</time>
      </trkpt>
      <trkpt lat="47.438874" lon="8.106523">
        <ele>433.721960</ele>
        <time>2021-11-20T22:10:00.825Z</time>
      </trkpt>
      <trkpt lat="47.438818" lon="8.106296">
        <ele>434.005753</ele>
        <time>2021-11-20T22:10:04.611Z</time>
      </trkpt>
      <trkpt lat="47.438752" lon="8.106005">
        <ele>434.366237</ele>
        <time>2021-11-20T22:10:09.297Z</time>
      </trkpt>
      <trkpt lat="47.438729" lon="8.105870">
        <ele>434.529748</ele>
        <time>2021-11-20T22:10:11.305Z</time>
      </trkpt>
      <trkpt lat="47.438707" lon="8.105651">
        <ele>434.789787</ele>
        <time>2021-11-20T22:10:14.322Z</time>
      </trkpt>
      <trkpt lat="47.438700" lon="8.105458">
        <ele>435.016793</ele>
        <time>2021-11-20T22:10:16.918Z</time>
      </trkpt>
      <trkpt lat="47.438736" lon="8.105033">
        <ele>435.519858</ele>
        <time>2021-11-20T22:10:22.534Z</time>
      </trkpt>
      <trkpt lat="47.438760" lon="8.104786">
        <ele>435.812939</ele>
        <time>2021-11-20T22:10:25.943Z</time>
      </trkpt>
      <trkpt lat="47.438813" lon="8.104797">
        <ele>435.905874</ele>
        <time>2021-11-20T22:10:27.392Z</time>
      </trkpt>
      <trkpt lat="47.439073" lon="8.105954">
        <ele>438.632249</ele>
        <time>2021-11-20T22:10:48.797Z</time>
      </trkpt>
      <trkpt lat="47.439163" lon="8.106335">
        <ele>439.728168</ele>
        <time>2021-11-20T22:10:57.677Z</time>
      </trkpt>
      <trkpt lat="47.439185" lon="8.106426">
        <ele>439.990596</ele>
        <time>2021-11-20T22:10:59.773Z</time>
      </trkpt>
      <trkpt lat="47.439441" lon="8.107093">
        <ele>442.073180</ele>
        <time>2021-11-20T22:11:20.289Z</time>
      </trkpt>
      <trkpt lat="47.439678" lon="8.107507">
        <ele>443.546046</ele>
        <time>2021-11-20T22:11:36.972Z</time>
      </trkpt>
      <trkpt lat="47.439846" lon="8.107679">
        <ele>445.364736</ele>
        <time>2021-11-20T22:11:48.459Z</time>
      </trkpt>
      <trkpt lat="47.439907" lon="8.107724">
        <ele>445.982635</ele>
        <time>2021-11-20T22:11:51.419Z</time>
      </trkpt>
      <trkpt lat="47.440017" lon="8.107818">
        <ele>447.134218</ele>
        <time>2021-11-20T22:11:57.977Z</time>
      </trkpt>
      <trkpt lat="47.440127" lon="8.107870">
        <ele>448.180969</ele>
        <time>2021-11-20T22:12:05.249Z</time>
      </trkpt>
      <trkpt lat="47.440314" lon="8.107933">
        <ele>449.919361</ele>
        <time>2021-11-20T22:12:13.937Z</time>
      </trkpt>
      <trkpt lat="47.440469" lon="8.107972">
        <ele>451.344461</ele>
        <time>2021-11-20T22:12:24.150Z</time>
      </trkpt>
      <trkpt lat="47.440596" lon="8.107972">
        <ele>452.495574</ele>
        <time>2021-11-20T22:12:29.903Z</time>
      </trkpt>
      <trkpt lat="47.441060" lon="8.107957">
        <ele>456.702221</ele>
        <time>2021-11-20T22:12:58.854Z</time>
      </trkpt>
      <trkpt lat="47.441182" lon="8.107948">
        <ele>457.809390</ele>
        <time>2021-11-20T22:13:08.274Z</time>
      </trkpt>
      <trkpt lat="47.441720" lon="8.107942">
        <ele>463.127402</ele>
        <time>2021-11-20T22:13:40.438Z</time>
      </trkpt>
      <trkpt lat="47.442001" lon="8.108074">
        <ele>466.219613</ele>
        <time>2021-11-20T22:13:59.019Z</time>
      </trkpt>
      <trkpt lat="47.442160" lon="8.108211">
        <ele>468.149653</ele>
        <time>2021-11-20T22:14:09.920Z</time>
      </trkpt>
      <trkpt lat="47.442307" lon="8.108385">
        <ele>470.124523</ele>
        <time>2021-11-20T22:14:21.731Z</time>
      </trkpt>
      <trkpt lat="47.442466" lon="8.108505">
        <ele>471.996747</ele>
        <time>2021-11-20T22:14:32.492Z</time>
      </trkpt>
      <trkpt lat="47.442659" lon="8.108648">
        <ele>474.260803</ele>
        <time>2021-11-20T22:14:46.187Z</time>
      </trkpt>
      <trkpt lat="47.442971" lon="8.108644">
        <ele>477.533094</ele>
        <time>2021-11-20T22:15:04.670Z</time>
      </trkpt>
      <trkpt lat="47.443213" lon="8.108540">
        <ele>480.421167</ele>
        <time>2021-11-20T22:15:19.779Z</time>
      </trkpt>
      <trkpt lat="47.443350" lon="8.108462">
        <ele>482.223318</ele>
        <time>2021-11-20T22:15:30.453Z</time>
      </trkpt>
      <trkpt lat="47.444084" lon="8.108009">
        <ele>491.987135</ele>
        <time>2021-11-20T22:16:26.118Z</time>
      </trkpt>
      <trkpt lat="47.444311" lon="8.107879">
        <ele>494.975444</ele>
        <time>2021-11-20T22:16:44.192Z</time>
      </trkpt>
      <trkpt lat="47.444437" lon="8.107791">
        <ele>496.686055</ele>
        <time>2021-11-20T22:16:53.704Z</time>
      </trkpt>
      <trkpt lat="47.444547" lon="8.107680">
        <ele>498.320875</ele>
        <time>2021-11-20T22:17:04.033Z</time>
      </trkpt>
      <trkpt lat="47.444665" lon="8.107474">
        <ele>500.562122</ele>
        <time>2021-11-20T22:17:17.022Z</time>
      </trkpt>
      <trkpt lat="47.444721" lon="8.107308">
        <ele>501.927767</ele>
        <time>2021-11-20T22:17:27.437Z</time>
      </trkpt>
      <trkpt lat="47.444877" lon="8.106575">
        <ele>507.440299</ele>
        <time>2021-11-20T22:18:02.228Z</time>
      </trkpt>
      <trkpt lat="47.445222" lon="8.105663">
        <ele>514.936606</ele>
        <time>2021-11-20T22:18:47.069Z</time>
      </trkpt>
      <trkpt lat="47.445384" lon="8.104372">
        <ele>523.253363</ele>
        <time>2021-11-20T22:19:33.779Z</time>
      </trkpt>
      <trkpt lat="47.445516" lon="8.103896">
        <ele>526.031326</ele>
        <time>2021-11-20T22:19:51.137Z</time>
      </trkpt>
      <trkpt lat="47.445784" lon="8.103632">
        <ele>528.602486</ele>
        <time>2021-11-20T22:20:07.007Z</time>
      </trkpt>
      <trkpt lat="47.446337" lon="8.103649">
        <ele>533.018773</ele>
        <time>2021-11-20T22:20:35.556Z</time>
      </trkpt>
      <trkpt lat="47.446481" lon="8.103583">
        <ele>534.222481</ele>
        <time>2021-11-20T22:20:43.484Z</time>
      </trkpt>
      <trkpt lat="47.446540" lon="8.103496">
        <ele>534.969146</ele>
        <time>2021-11-20T22:20:47.817Z</time>
      </trkpt>
      <trkpt lat="47.446600" lon="8.103410">
        <ele>535.722608</ele>
        <time>2021-11-20T22:20:53.698Z</time>
      </trkpt>
      <trkpt lat="47.446555" lon="8.103111">
        <ele>537.590476</ele>
        <time>2021-11-20T22:21:04.786Z</time>
      </trkpt>
      <trkpt lat="47.446508" lon="8.103055">
        <ele>538.134725</ele>
        <time>2021-11-20T22:21:07.793Z</time>
      </trkpt>
      <trkpt lat="47.446418" lon="8.102948">
        <ele>539.176012</ele>
        <time>2021-11-20T22:21:15.313Z</time>
      </trkpt>
      <trkpt lat="47.446169" lon="8.102790">
        <ele>541.619195</ele>
        <time>2021-11-20T22:21:29.422Z</time>
      </trkpt>
      <trkpt lat="47.445915" lon="8.102630">
        <ele>544.108629</ele>
        <time>2021-11-20T22:21:46.893Z</time>
      </trkpt>
      <trkpt lat="47.445719" lon="8.102466">
        <ele>546.139262</ele>
        <time>2021-11-20T22:22:02.251Z</time>
      </trkpt>
      <trkpt lat="47.445541" lon="8.102255">
        <ele>548.196333</ele>
        <time>2021-11-20T22:22:13.225Z</time>
      </trkpt>
      <trkpt lat="47.445462" lon="8.102139">
        <ele>549.200216</ele>
        <time>2021-11-20T22:22:22.072Z</time>
      </trkpt>
      <trkpt lat="47.445293" lon="8.101950">
        <ele>550.938504</ele>
        <time>2021-11-20T22:22:30.799Z</time>
      </trkpt>
      <trkpt lat="47.444927" lon="8.101811">
        <ele>553.420274</ele>
        <time>2021-11-20T22:22:49.454Z</time>
      </trkpt>
      <trkpt lat="47.444868" lon="8.101755">
        <ele>553.880727</ele>
        <time>2021-11-20T22:22:54.441Z</time>
      </trkpt>
      <trkpt lat="47.444829" lon="8.101664">
        <ele>554.359244</ele>
        <time>2021-11-20T22:22:58.612Z</time>
      </trkpt>
      <trkpt lat="47.444798" lon="8.101417">
        <ele>555.475071</ele>
        <time>2021-11-20T22:23:04.674Z</time>
      </trkpt>
      <trkpt lat="47.444853" lon="8.101203">
        <ele>556.491913</ele>
        <time>2021-11-20T22:23:12.375Z</time>
      </trkpt>
      <trkpt lat="47.444888" lon="8.101135">
        <ele>556.871470</ele>
        <time>2021-11-20T22:23:15.084Z</time>
      </trkpt>
      <trkpt lat="47.445047" lon="8.101092">
        <ele>557.933044</ele>
        <time>2021-11-20T22:23:19.748Z</time>
      </trkpt>
      <trkpt lat="47.445358" lon="8.101030">
        <ele>559.994056</ele>
        <time>2021-11-20T22:23:35.502Z</time>
      </trkpt>
      <trkpt lat="47.445503" lon="8.101140">
        <ele>561.064380</ele>
        <time>2021-11-20T22:23:44.604Z</time>
      </trkpt>
      <trkpt lat="47.445750" lon="8.101336">
        <ele>562.963736</ele>
        <time>2021-11-20T22:23:53.253Z</time>
      </trkpt>
      <trkpt lat="47.446361" lon="8.101612">
        <ele>567.556760</ele>
        <time>2021-11-20T22:24:21.375Z</time>
      </trkpt>
      <trkpt lat="47.446445" lon="8.101608">
        <ele>568.160969</ele>
        <time>2021-11-20T22:24:24.210Z</time>
      </trkpt>
      <trkpt lat="47.446517" lon="8.101594">
        <ele>568.683051</ele>
        <time>2021-11-20T22:24:29.538Z</time>
      </trkpt>
      <trkpt lat="47.446695" lon="8.101455">
        <ele>570.130223</ele>
        <time>2021-11-20T22:24:37.038Z</time>
      </trkpt>
      <trkpt lat="47.446814" lon="8.101074">
        <ele>572.170626</ele>
        <time>2021-11-20T22:24:51.742Z</time>
      </trkpt>
      <trkpt lat="47.446765" lon="8.100748">
        <ele>573.794282</ele>
        <time>2021-11-20T22:25:05.145Z</time>
      </trkpt>
      <trkpt lat="47.446540" lon="8.100064">
        <ele>578.937241</ele>
        <time>2021-11-20T22:25:35.397Z</time>
      </trkpt>
      <trkpt lat="47.446463" lon="8.099344">
        <ele>584.734938</ele>
        <time>2021-11-20T22:26:08.391Z</time>
      </trkpt>
      <trkpt lat="47.446471" lon="8.098693">
        <ele>589.913539</ele>
        <time>2021-11-20T22:26:40.861Z</time>
      </trkpt>
      <trkpt lat="47.446494" lon="8.098088">
        <ele>594.733018</ele>
        <time>2021-11-20T22:27:10.086Z</time>
      </trkpt>
      <trkpt lat="47.446502" lon="8.097618">
        <ele>598.220940</ele>
        <time>2021-11-20T22:27:32.493Z</time>
      </trkpt>
      <trkpt lat="47.446518" lon="8.097394">
        <ele>599.797843</ele>
        <time>2021-11-20T22:27:42.445Z</time>
      </trkpt>
      <trkpt lat="47.446536" lon="8.097261">
        <ele>600.747411</ele>
        <time>2021-11-20T22:27:49.223Z</time>
      </trkpt>
      <trkpt lat="47.446686" lon="8.097097">
        <ele>602.678568</ele>
        <time>2021-11-20T22:28:01.236Z</time>
      </trkpt>
      <trkpt lat="47.446818" lon="8.096990">
        <ele>604.236879</ele>
        <time>2021-11-20T22:28:11.163Z</time>
      </trkpt>
      <trkpt lat="47.446857" lon="8.096977">
        <ele>604.650736</ele>
        <time>2021-11-20T22:28:14.534Z</time>
      </trkpt>
      <trkpt lat="47.447261" lon="8.097036">
        <ele>608.853274</ele>
        <time>2021-11-20T22:28:39.446Z</time>
      </trkpt>
      <trkpt lat="47.448390" lon="8.097811">
        <ele>618.983941</ele>
        <time>2021-11-20T22:29:45.056Z</time>
      </trkpt>
      <trkpt lat="47.448609" lon="8.098034">
        <ele>620.612495</ele>
        <time>2021-11-20T22:29:55.201Z</time>
      </trkpt>
      <trkpt lat="47.448732" lon="8.098162">
        <ele>621.533677</ele>
        <time>2021-11-20T22:30:01.658Z</time>
      </trkpt>
      <trkpt lat="47.448898" lon="8.098398">
        <ele>622.944035</ele>
        <time>2021-11-20T22:30:10.404Z</time>
      </trkpt>
      <trkpt lat="47.449094" lon="8.098917">
        <ele>625.406104</ele>
        <time>2021-11-20T22:30:27.083Z</time>
      </trkpt>
      <trkpt lat="47.449172" lon="8.099049">
        <ele>626.108708</ele>
        <time>2021-11-20T22:30:31.546Z</time>
      </trkpt>
      <trkpt lat="47.449289" lon="8.099119">
        <ele>626.734602</ele>
        <time>2021-11-20T22:30:36.546Z</time>
      </trkpt>
      <trkpt lat="47.449419" lon="8.099114">
        <ele>627.379492</ele>
        <time>2021-11-20T22:30:42.320Z</time>
      </trkpt>
      <trkpt lat="47.449730" lon="8.099057">
        <ele>628.933546</ele>
        <time>2021-11-20T22:31:00.001Z</time>
      </trkpt>
      <trkpt lat="47.450335" lon="8.099063">
        <ele>631.933817</ele>
        <time>2021-11-20T22:31:32.895Z</time>
      </trkpt>
      <trkpt lat="47.450346" lon="8.099071">
        <ele>631.994606</ele>
        <time>2021-11-20T22:31:34.262Z</time>
      </trkpt>
      <trkpt lat="47.451072" lon="8.099594">
        <ele>635.642325</ele>
        <time>2021-11-20T22:32:23.047Z</time>
      </trkpt>
      <trkpt lat="47.451809" lon="8.099983">
        <ele>638.229154</ele>
        <time>2021-11-20T22:33:01.064Z</time>
      </trkpt>
      <trkpt lat="47.452046" lon="8.100178">
        <ele>639.125701</ele>
        <time>2021-11-20T22:33:15.240Z</time>
      </trkpt>
      <trkpt lat="47.452383" lon="8.100515">
        <ele>640.470510</ele>
        <time>2021-11-20T22:33:35.719Z</time>
      </trkpt>
      <trkpt lat="47.452462" lon="8.100606">
        <ele>640.801534</ele>
        <time>2021-11-20T22:33:38.233Z</time>
      </trkpt>
      <trkpt lat="47.452547" lon="8.100436">
        <ele>640.717432</ele>
        <time>2021-11-20T22:33:47.967Z</time>
      </trkpt>
      <trkpt lat="47.452621" lon="8.100146">
        <ele>640.445553</ele>
        <time>2021-11-20T22:33:55.250Z</time>
      </trkpt>
      <trkpt lat="47.452628" lon="8.099741">
        <ele>640.090196</ele>
        <time>2021-11-20T22:34:10.522Z</time>
      </trkpt>
      <trkpt lat="47.452550" lon="8.098497">
        <ele>638.994353</ele>
        <time>2021-11-20T22:34:36.003Z</time>
      </trkpt>
      <trkpt lat="47.452540" lon="8.098021">
        <ele>638.576633</ele>
        <time>2021-11-20T22:34:45.484Z</time>
      </trkpt>
      <trkpt lat="47.452427" lon="8.097435">
        <ele>635.962019</ele>
        <time>2021-11-20T22:34:51.019Z</time>
      </trkpt>
      <trkpt lat="47.452289" lon="8.096834">
        <ele>633.084801</ele>
        <time>2021-11-20T22:34:56.601Z</time>
      </trkpt>
      <trkpt lat="47.452224" lon="8.096532">
        <ele>631.648108</ele>
        <time>2021-11-20T22:34:59.342Z</time>
      </trkpt>
      <trkpt lat="47.452164" lon="8.096245">
        <ele>630.286327</ele>
        <time>2021-11-20T22:35:04.463Z</time>
      </trkpt>
      <trkpt lat="47.451946" lon="8.095203">
        <ele>625.617368</ele>
        <time>2021-11-20T22:35:23.048Z</time>
      </trkpt>
      <trkpt lat="47.451813" lon="8.094131">
        <ele>621.869217</ele>
        <time>2021-11-20T22:35:42.025Z</time>
      </trkpt>
      <trkpt lat="47.451856" lon="8.093496">
        <ele>619.674525</ele>
        <time>2021-11-20T22:35:55.296Z</time>
      </trkpt>
      <trkpt lat="47.451992" lon="8.092939">
        <ele>617.637954</ele>
        <time>2021-11-20T22:36:07.797Z</time>
      </trkpt>
      <trkpt lat="47.452039" lon="8.092803">
        <ele>617.140554</ele>
        <time>2021-11-20T22:36:10.649Z</time>
      </trkpt>
      <trkpt lat="47.452144" lon="8.092529">
        <ele>616.192546</ele>
        <time>2021-11-20T22:36:17.497Z</time>
      </trkpt>
      <trkpt lat="47.452185" lon="8.092377">
        <ele>615.699950</ele>
        <time>2021-11-20T22:36:20.822Z</time>
      </trkpt>
      <trkpt lat="47.452299" lon="8.092109">
        <ele>614.746899</ele>
        <time>2021-11-20T22:36:27.370Z</time>
      </trkpt>
      <trkpt lat="47.452406" lon="8.091960">
        <ele>614.092662</ele>
        <time>2021-11-20T22:36:31.880Z</time>
      </trkpt>
      <trkpt lat="47.452552" lon="8.091846">
        <ele>613.357717</ele>
        <time>2021-11-20T22:36:34.354Z</time>
      </trkpt>
      <trkpt lat="47.452687" lon="8.091702">
        <ele>612.616756</ele>
        <time>2021-11-20T22:36:37.029Z</time>
      </trkpt>
      <trkpt lat="47.452885" lon="8.091073">
        <ele>610.528313</ele>
        <time>2021-11-20T22:36:49.672Z</time>
      </trkpt>
      <trkpt lat="47.453084" lon="8.090459">
        <ele>606.613626</ele>
        <time>2021-11-20T22:37:01.663Z</time>
      </trkpt>
      <trkpt lat="47.453427" lon="8.089778">
        <ele>598.452569</ele>
        <time>2021-11-20T22:37:15.256Z</time>
      </trkpt>
      <trkpt lat="47.453614" lon="8.089441">
        <ele>594.262806</ele>
        <time>2021-11-20T22:37:22.057Z</time>
      </trkpt>
      <trkpt lat="47.453817" lon="8.089139">
        <ele>590.170271</ele>
        <time>2021-11-20T22:37:28.577Z</time>
      </trkpt>
      <trkpt lat="47.453949" lon="8.088877">
        <ele>587.030181</ele>
        <time>2021-11-20T22:37:33.587Z</time>
      </trkpt>
      <trkpt lat="47.454007" lon="8.088592">
        <ele>584.169782</ele>
        <time>2021-11-20T22:37:38.173Z</time>
      </trkpt>
      <trkpt lat="47.454014" lon="8.088492">
        <ele>583.165822</ele>
        <time>2021-11-20T22:37:39.679Z</time>
      </trkpt>
      <trkpt lat="47.454055" lon="8.088369">
        <ele>581.759249</ele>
        <time>2021-11-20T22:37:41.828Z</time>
      </trkpt>
      <trkpt lat="47.454367" lon="8.088192">
        <ele>576.690268</ele>
        <time>2021-11-20T22:37:49.363Z</time>
      </trkpt>
      <trkpt lat="47.454440" lon="8.088070">
        <ele>575.019326</ele>
        <time>2021-11-20T22:37:51.864Z</time>
      </trkpt>
      <trkpt lat="47.454505" lon="8.087849">
        <ele>572.547400</ele>
        <time>2021-11-20T22:37:55.499Z</time>
      </trkpt>
      <trkpt lat="47.454576" lon="8.087620">
        <ele>569.963431</ele>
        <time>2021-11-20T22:37:57.490Z</time>
      </trkpt>
      <trkpt lat="47.454752" lon="8.087222">
        <ele>565.085720</ele>
        <time>2021-11-20T22:38:01.258Z</time>
      </trkpt>
      <trkpt lat="47.455192" lon="8.086692">
        <ele>556.479393</ele>
        <time>2021-11-20T22:38:08.028Z</time>
      </trkpt>
      <trkpt lat="47.455443" lon="8.086426">
        <ele>553.889681</ele>
        <time>2021-11-20T22:38:11.780Z</time>
      </trkpt>
      <trkpt lat="47.455713" lon="8.086247">
        <ele>551.408175</ele>
        <time>2021-11-20T22:38:15.429Z</time>
      </trkpt>
      <trkpt lat="47.455929" lon="8.086169">
        <ele>549.543435</ele>
        <time>2021-11-20T22:38:18.354Z</time>
      </trkpt>
      <trkpt lat="47.456058" lon="8.086163">
        <ele>548.461019</ele>
        <time>2021-11-20T22:38:20.066Z</time>
      </trkpt>
      <trkpt lat="47.456335" lon="8.086211">
        <ele>546.122018</ele>
        <time>2021-11-20T22:38:23.747Z</time>
      </trkpt>
      <trkpt lat="47.456732" lon="8.086172">
        <ele>542.785171</ele>
        <time>2021-11-20T22:38:28.788Z</time>
      </trkpt>
      <trkpt lat="47.457101" lon="8.086047">
        <ele>539.240261</ele>
        <time>2021-11-20T22:38:33.495Z</time>
      </trkpt>
      <trkpt lat="47.457844" lon="8.085524">
        <ele>530.909613</ele>
        <time>2021-11-20T22:38:43.493Z</time>
      </trkpt>
      <trkpt lat="47.458074" lon="8.085331">
        <ele>528.232413</ele>
        <time>2021-11-20T22:38:46.683Z</time>
      </trkpt>
      <trkpt lat="47.458174" lon="8.085121">
        <ele>526.474199</ele>
        <time>2021-11-20T22:38:48.760Z</time>
      </trkpt>
      <trkpt lat="47.458370" lon="8.084552">
        <ele>522.357832</ele>
        <time>2021-11-20T22:38:54.013Z</time>
      </trkpt>
      <trkpt lat="47.458485" lon="8.084264">
        <ele>520.606424</ele>
        <time>2021-11-20T22:38:56.743Z</time>
      </trkpt>
      <trkpt lat="47.458600" lon="8.084069">
        <ele>519.251506</ele>
        <time>2021-11-20T22:38:58.876Z</time>
      </trkpt>
      <trkpt lat="47.458780" lon="8.083846">
        <ele>517.433049</ele>
        <time>2021-11-20T22:39:01.712Z</time>
      </trkpt>
      <trkpt lat="47.458959" lon="8.083721">
        <ele>515.900022</ele>
        <time>2021-11-20T22:39:04.197Z</time>
      </trkpt>
      <trkpt lat="47.459355" lon="8.083651">
        <ele>512.811351</ele>
        <time>2021-11-20T22:39:09.334Z</time>
      </trkpt>
      <trkpt lat="47.459674" lon="8.083680">
        <ele>510.336175</ele>
        <time>2021-11-20T22:39:13.757Z</time>
      </trkpt>
      <trkpt lat="47.459853" lon="8.083756">
        <ele>509.027372</ele>
        <time>2021-11-20T22:39:16.294Z</time>
      </trkpt>
      <trkpt lat="47.460206" lon="8.083943">
        <ele>507.189028</ele>
        <time>2021-11-20T22:39:21.743Z</time>
      </trkpt>
      <trkpt lat="47.460689" lon="8.084064">
        <ele>504.787253</ele>
        <time>2021-11-20T22:39:28.625Z</time>
      </trkpt>
      <trkpt lat="47.461288" lon="8.084046">
        <ele>501.849875</ele>
        <time>2021-11-20T22:39:36.729Z</time>
      </trkpt>
      <trkpt lat="47.461543" lon="8.084041">
        <ele>500.599554</ele>
        <time>2021-11-20T22:39:40.184Z</time>
      </trkpt>
      <trkpt lat="47.461704" lon="8.084025">
        <ele>499.416531</ele>
        <time>2021-11-20T22:39:42.203Z</time>
      </trkpt>
      <trkpt lat="47.462086" lon="8.084041">
        <ele>496.378957</ele>
        <time>2021-11-20T22:39:47.069Z</time>
      </trkpt>
      <trkpt lat="47.462537" lon="8.084155">
        <ele>492.742178</ele>
        <time>2021-11-20T22:39:52.771Z</time>
      </trkpt>
      <trkpt lat="47.463130" lon="8.084333">
        <ele>487.932593</ele>
        <time>2021-11-20T22:40:00.212Z</time>
      </trkpt>
      <trkpt lat="47.463805" lon="8.084529">
        <ele>483.435684</ele>
        <time>2021-11-20T22:40:08.944Z</time>
      </trkpt>
      <trkpt lat="47.463971" lon="8.084597">
        <ele>482.427959</ele>
        <time>2021-11-20T22:40:11.157Z</time>
      </trkpt>
      <trkpt lat="47.464419" lon="8.084815">
        <ele>479.668786</ele>
        <time>2021-11-20T22:40:17.327Z</time>
      </trkpt>
      <trkpt lat="47.464774" lon="8.084973">
        <ele>477.499906</ele>
        <time>2021-11-20T22:40:22.407Z</time>
      </trkpt>
      <trkpt lat="47.464937" lon="8.085050">
        <ele>476.498837</ele>
        <time>2021-11-20T22:40:24.741Z</time>
      </trkpt>
      <trkpt lat="47.465099" lon="8.085104">
        <ele>475.573883</ele>
        <time>2021-11-20T22:40:27.160Z</time>
      </trkpt>
      <trkpt lat="47.465460" lon="8.085074">
        <ele>474.524248</ele>
        <time>2021-11-20T22:40:32.510Z</time>
      </trkpt>
      <trkpt lat="47.465655" lon="8.085165">
        <ele>473.930660</ele>
        <time>2021-11-20T22:40:35.533Z</time>
      </trkpt>
      <trkpt lat="47.465714" lon="8.085219">
        <ele>473.729248</ele>
        <time>2021-11-20T22:40:36.513Z</time>
      </trkpt>
      <trkpt lat="47.465715" lon="8.085396">
        <ele>473.381870</ele>
        <time>2021-11-20T22:40:38.470Z</time>
      </trkpt>
      <trkpt lat="47.465762" lon="8.085475">
        <ele>473.175344</ele>
        <time>2021-11-20T22:40:39.523Z</time>
      </trkpt>
      <trkpt lat="47.465899" lon="8.085583">
        <ele>472.724680</ele>
        <time>2021-11-20T22:40:41.757Z</time>
      </trkpt>
      <trkpt lat="47.466078" lon="8.085633">
        <ele>472.195860</ele>
        <time>2021-11-20T22:40:44.660Z</time>
      </trkpt>
      <trkpt lat="47.466123" lon="8.085646">
        <ele>472.062757</ele>
        <time>2021-11-20T22:40:45.274Z</time>
      </trkpt>
      <trkpt lat="47.466871" lon="8.085735">
        <ele>469.940701</ele>
        <time>2021-11-20T22:40:56.713Z</time>
      </trkpt>
      <trkpt lat="47.466978" lon="8.085740">
        <ele>469.664027</ele>
        <time>2021-11-20T22:40:58.253Z</time>
      </trkpt>
      <trkpt lat="47.467107" lon="8.085730">
        <ele>469.330175</ele>
        <time>2021-11-20T22:41:00.343Z</time>
      </trkpt>
      <trkpt lat="47.467360" lon="8.085700">
        <ele>468.674211</ele>
        <time>2021-11-20T22:41:04.143Z</time>
      </trkpt>
      <trkpt lat="47.467423" lon="8.085681">
        <ele>468.508041</ele>
        <time>2021-11-20T22:41:05.142Z</time>
      </trkpt>
      <trkpt lat="47.467666" lon="8.085607">
        <ele>467.866850</ele>
        <time>2021-11-20T22:41:08.848Z</time>
      </trkpt>
      <trkpt lat="47.468410" lon="8.085335">
        <ele>465.886165</ele>
        <time>2021-11-20T22:41:20.355Z</time>
      </trkpt>
      <trkpt lat="47.468855" lon="8.085090">
        <ele>464.707536</ele>
        <time>2021-11-20T22:41:27.714Z</time>
      </trkpt>
      <trkpt lat="47.469201" lon="8.084715">
        <ele>463.648312</ele>
        <time>2021-11-20T22:41:34.358Z</time>
      </trkpt>
      <trkpt lat="47.469271" lon="8.084606">
        <ele>463.397333</ele>
        <time>2021-11-20T22:41:35.840Z</time>
      </trkpt>
      <trkpt lat="47.469474" lon="8.084350">
        <ele>462.738595</ele>
        <time>2021-11-20T22:41:40.028Z</time>
      </trkpt>
      <trkpt lat="47.470120" lon="8.083775">
        <ele>460.813954</ele>
        <time>2021-11-20T22:41:51.344Z</time>
      </trkpt>
      <trkpt lat="47.471176" lon="8.082983">
        <ele>457.464121</ele>
        <time>2021-11-20T22:42:08.829Z</time>
      </trkpt>
      <trkpt lat="47.471499" lon="8.082733">
        <ele>456.432719</ele>
        <time>2021-11-20T22:42:14.266Z</time>
      </trkpt>
      <trkpt lat="47.471817" lon="8.082485">
        <ele>455.458285</ele>
        <time>2021-11-20T22:42:19.680Z</time>
      </trkpt>
      <trkpt lat="47.472080" lon="8.082388">
        <ele>454.732112</ele>
        <time>2021-11-20T22:42:23.890Z</time>
      </trkpt>
      <trkpt lat="47.472182" lon="8.082379">
        <ele>454.458356</ele>
        <time>2021-11-20T22:42:25.340Z</time>
      </trkpt>
      <trkpt lat="47.472243" lon="8.082374">
        <ele>454.294680</ele>
        <time>2021-11-20T22:42:26.226Z</time>
      </trkpt>
      <trkpt lat="47.472467" lon="8.082423">
        <ele>453.688033</ele>
        <time>2021-11-20T22:42:29.753Z</time>
      </trkpt>
      <trkpt lat="47.473259" lon="8.082972">
        <ele>451.338761</ele>
        <time>2021-11-20T22:42:42.708Z</time>
      </trkpt>
      <trkpt lat="47.473472" lon="8.083074">
        <ele>450.673592</ele>
        <time>2021-11-20T22:42:46.253Z</time>
      </trkpt>
      <trkpt lat="47.473676" lon="8.083091">
        <ele>450.066528</ele>
        <time>2021-11-20T22:42:49.219Z</time>
      </trkpt>
      <trkpt lat="47.473894" lon="8.083088">
        <ele>449.418802</ele>
        <time>2021-11-20T22:42:52.833Z</time>
      </trkpt>
      <trkpt lat="47.474251" lon="8.083086">
        <ele>448.358115</ele>
        <time>2021-11-20T22:42:58.462Z</time>
      </trkpt>
      <trkpt lat="47.474348" lon="8.083085">
        <ele>448.069912</ele>
        <time>2021-11-20T22:42:59.881Z</time>
      </trkpt>
      <trkpt lat="47.474963" lon="8.083258">
        <ele>446.209955</ele>
        <time>2021-11-20T22:43:08.471Z</time>
      </trkpt>
      <trkpt lat="47.475100" lon="8.083306">
        <ele>445.806257</ele>
        <time>2021-11-20T22:43:10.420Z</time>
      </trkpt>
      <trkpt lat="47.475215" lon="8.083355">
        <ele>445.470305</ele>
        <time>2021-11-20T22:43:13.525Z</time>
      </trkpt>
      <trkpt lat="47.475254" lon="8.083373">
        <ele>445.355619</ele>
        <time>2021-11-20T22:43:14.009Z</time>
      </trkpt>
      <trkpt lat="47.475513" lon="8.083417">
        <ele>444.623770</ele>
        <time>2021-11-20T22:43:18.125Z</time>
      </trkpt>
      <trkpt lat="47.475639" lon="8.083505">
        <ele>444.232630</ele>
        <time>2021-11-20T22:43:20.097Z</time>
      </trkpt>
      <trkpt lat="47.475842" lon="8.083634">
        <ele>443.612421</ele>
        <time>2021-11-20T22:43:23.534Z</time>
      </trkpt>
      <trkpt lat="47.475902" lon="8.083659">
        <ele>443.437435</ele>
        <time>2021-11-20T22:43:24.970Z</time>
      </trkpt>
      <trkpt lat="47.475914" lon="8.083632">
        <ele>443.376122</ele>
        <time>2021-11-20T22:43:25.151Z</time>
      </trkpt>
      <trkpt lat="47.475976" lon="8.083576">
        <ele>443.172204</ele>
        <time>2021-11-20T22:43:26.594Z</time>
      </trkpt>
      <trkpt lat="47.476183" lon="8.083476">
        <ele>442.560915</ele>
        <time>2021-11-20T22:43:29.092Z</time>
      </trkpt>
      <trkpt lat="47.476458" lon="8.083344">
        <ele>441.749317</ele>
        <time>2021-11-20T22:43:31.981Z</time>
      </trkpt>
      <trkpt lat="47.476520" lon="8.083301">
        <ele>441.557095</ele>
        <time>2021-11-20T22:43:33.770Z</time>
      </trkpt>
      <trkpt lat="47.476582" lon="8.083243">
        <ele>441.351174</ele>
        <time>2021-11-20T22:43:34.416Z</time>
      </trkpt>
      <trkpt lat="47.476627" lon="8.083189">
        <ele>441.188522</ele>
        <time>2021-11-20T22:43:35.743Z</time>
      </trkpt>
      <trkpt lat="47.476671" lon="8.083122">
        <ele>441.011273</ele>
        <time>2021-11-20T22:43:36.429Z</time>
      </trkpt>
      <trkpt lat="47.476711" lon="8.083045">
        <ele>440.920013</ele>
        <time>2021-11-20T22:43:37.076Z</time>
      </trkpt>
      <trkpt lat="47.476862" lon="8.082473">
        <ele>440.356370</ele>
        <time>2021-11-20T22:43:41.685Z</time>
      </trkpt>
      <trkpt lat="47.476884" lon="8.082262">
        <ele>440.160411</ele>
        <time>2021-11-20T22:43:43.131Z</time>
      </trkpt>
      <trkpt lat="47.477235" lon="8.082227">
        <ele>439.682668</ele>
        <time>2021-11-20T22:43:47.515Z</time>
      </trkpt>
      <trkpt lat="47.477544" lon="8.082234">
        <ele>439.262994</ele>
        <time>2021-11-20T22:43:53.430Z</time>
      </trkpt>
      <trkpt lat="47.477616" lon="8.082223">
        <ele>439.164698</ele>
        <time>2021-11-20T22:43:54.281Z</time>
      </trkpt>
      <trkpt lat="47.477722" lon="8.082181">
        <ele>439.015676</ele>
        <time>2021-11-20T22:43:55.478Z</time>
      </trkpt>
      <trkpt lat="47.477822" lon="8.082067">
        <ele>438.844240</ele>
        <time>2021-11-20T22:43:56.867Z</time>
      </trkpt>
      <trkpt lat="47.478231" lon="8.081453">
        <ele>437.834041</ele>
        <time>2021-11-20T22:44:03.644Z</time>
      </trkpt>
      <trkpt lat="47.478462" lon="8.081099">
        <ele>437.189127</ele>
        <time>2021-11-20T22:44:07.424Z</time>
      </trkpt>
      <trkpt lat="47.479043" lon="8.080208">
        <ele>435.566478</ele>
        <time>2021-11-20T22:44:16.407Z</time>
      </trkpt>
      <trkpt lat="47.479342" lon="8.079816">
        <ele>434.797744</ele>
        <time>2021-11-20T22:44:20.661Z</time>
      </trkpt>
      <trkpt lat="47.479645" lon="8.079484">
        <ele>434.081852</ele>
        <time>2021-11-20T22:44:24.711Z</time>
      </trkpt>
      <trkpt lat="47.479948" lon="8.079192">
        <ele>433.395269</ele>
        <time>2021-11-20T22:44:28.690Z</time>
      </trkpt>
      <trkpt lat="47.480493" lon="8.078716">
        <ele>432.193630</ele>
        <time>2021-11-20T22:44:35.744Z</time>
      </trkpt>
      <trkpt lat="47.480717" lon="8.078508">
        <ele>431.691498</ele>
        <time>2021-11-20T22:44:38.739Z</time>
      </trkpt>
      <trkpt lat="47.481210" lon="8.078069">
        <ele>430.961215</ele>
        <time>2021-11-20T22:44:45.735Z</time>
      </trkpt>
      <trkpt lat="47.481574" lon="8.077775">
        <ele>430.442228</ele>
        <time>2021-11-20T22:44:51.078Z</time>
      </trkpt>
      <trkpt lat="47.481888" lon="8.077545">
        <ele>430.003751</ele>
        <time>2021-11-20T22:44:55.418Z</time>
      </trkpt>
      <trkpt lat="47.482606" lon="8.077102">
        <ele>428.706898</ele>
        <time>2021-11-20T22:45:04.231Z</time>
      </trkpt>
      <trkpt lat="47.482846" lon="8.076901">
        <ele>428.068467</ele>
        <time>2021-11-20T22:45:07.191Z</time>
      </trkpt>
      <trkpt lat="47.483204" lon="8.076386">
        <ele>426.912576</ele>
        <time>2021-11-20T22:45:12.487Z</time>
      </trkpt>
      <trkpt lat="47.483442" lon="8.075992">
        <ele>426.085805</ele>
        <time>2021-11-20T22:45:16.278Z</time>
      </trkpt>
      <trkpt lat="47.483708" lon="8.075503">
        <ele>425.111818</ele>
        <time>2021-11-20T22:45:20.638Z</time>
      </trkpt>
      <trkpt lat="47.483940" lon="8.075218">
        <ele>424.453333</ele>
        <time>2021-11-20T22:45:23.758Z</time>
      </trkpt>
      <trkpt lat="47.484460" lon="8.074477">
        <ele>422.876796</ele>
        <time>2021-11-20T22:45:31.338Z</time>
      </trkpt>
      <trkpt lat="47.484546" lon="8.074390">
        <ele>422.649293</ele>
        <time>2021-11-20T22:45:32.426Z</time>
      </trkpt>
      <trkpt lat="47.484749" lon="8.074215">
        <ele>422.136234</ele>
        <time>2021-11-20T22:45:35.075Z</time>
      </trkpt>
      <trkpt lat="47.485670" lon="8.073279">
        <ele>420.701720</ele>
        <time>2021-11-20T22:45:48.458Z</time>
      </trkpt>
      <trkpt lat="47.485914" lon="8.073024">
        <ele>420.453625</ele>
        <time>2021-11-20T22:45:52.135Z</time>
      </trkpt>
      <trkpt lat="47.486053" lon="8.072916">
        <ele>420.323234</ele>
        <time>2021-11-20T22:45:54.160Z</time>
      </trkpt>
      <trkpt lat="47.486697" lon="8.072574">
        <ele>419.816168</ele>
        <time>2021-11-20T22:46:03.303Z</time>
      </trkpt>
      <trkpt lat="47.487572" lon="8.071962">
        <ele>419.715389</ele>
        <time>2021-11-20T22:46:17.680Z</time>
      </trkpt>
      <trkpt lat="47.487825" lon="8.071796">
        <ele>419.686570</ele>
        <time>2021-11-20T22:46:21.929Z</time>
      </trkpt>
      <trkpt lat="47.488398" lon="8.071466">
        <ele>419.527697</ele>
        <time>2021-11-20T22:46:31.404Z</time>
      </trkpt>
      <trkpt lat="47.489580" lon="8.070655">
        <ele>418.540003</ele>
        <time>2021-11-20T22:46:47.979Z</time>
      </trkpt>
      <trkpt lat="47.490102" lon="8.070230">
        <ele>417.868853</ele>
        <time>2021-11-20T22:46:54.993Z</time>
      </trkpt>
      <trkpt lat="47.490253" lon="8.070056">
        <ele>417.552346</ele>
        <time>2021-11-20T22:46:57.075Z</time>
      </trkpt>
      <trkpt lat="47.490515" lon="8.069809">
        <ele>417.038588</ele>
        <time>2021-11-20T22:47:00.626Z</time>
      </trkpt>
      <trkpt lat="47.490739" lon="8.069606">
        <ele>416.604185</ele>
        <time>2021-11-20T22:47:03.708Z</time>
      </trkpt>
      <trkpt lat="47.492282" lon="8.068118">
        <ele>412.930522</ele>
        <time>2021-11-20T22:47:24.086Z</time>
      </trkpt>
      <trkpt lat="47.492751" lon="8.067366">
        <ele>411.374551</ele>
        <time>2021-11-20T22:47:31.281Z</time>
      </trkpt>
      <trkpt lat="47.493032" lon="8.066764">
        <ele>410.101128</ele>
        <time>2021-11-20T22:47:36.459Z</time>
      </trkpt>
      <trkpt lat="47.493208" lon="8.066419">
        <ele>409.337010</ele>
        <time>2021-11-20T22:47:39.455Z</time>
      </trkpt>
      <trkpt lat="47.493543" lon="8.065948">
        <ele>408.128227</ele>
        <time>2021-11-20T22:47:44.290Z</time>
      </trkpt>
      <trkpt lat="47.493759" lon="8.065762">
        <ele>407.474475</ele>
        <time>2021-11-20T22:47:46.866Z</time>
      </trkpt>
      <trkpt lat="47.494846" lon="8.065397">
        <ele>404.566491</ele>
        <time>2021-11-20T22:47:58.855Z</time>
      </trkpt>
      <trkpt lat="47.495120" lon="8.065246">
        <ele>403.804666</ele>
        <time>2021-11-20T22:48:02.047Z</time>
      </trkpt>
      <trkpt lat="47.495626" lon="8.064806">
        <ele>402.275510</ele>
        <time>2021-11-20T22:48:08.241Z</time>
      </trkpt>
      <trkpt lat="47.496545" lon="8.063506">
        <ele>397.157516</ele>
        <time>2021-11-20T22:48:20.689Z</time>
      </trkpt>
      <trkpt lat="47.497823" lon="8.061938">
        <ele>390.302704</ele>
        <time>2021-11-20T22:48:36.347Z</time>
      </trkpt>
      <trkpt lat="47.498382" lon="8.061234">
        <ele>387.323754</ele>
        <time>2021-11-20T22:48:43.660Z</time>
      </trkpt>
      <trkpt lat="47.498687" lon="8.060849">
        <ele>386.673774</ele>
        <time>2021-11-20T22:48:47.994Z</time>
      </trkpt>
      <trkpt lat="47.498745" lon="8.060776">
        <ele>386.605198</ele>
        <time>2021-11-20T22:48:48.868Z</time>
      </trkpt>
      <trkpt lat="47.499133" lon="8.060191">
        <ele>386.106329</ele>
        <time>2021-11-20T22:48:55.685Z</time>
      </trkpt>
      <trkpt lat="47.499412" lon="8.059771">
        <ele>385.747893</ele>
        <time>2021-11-20T22:49:01.302Z</time>
      </trkpt>
      <trkpt lat="47.499896" lon="8.058937">
        <ele>385.035471</ele>
        <time>2021-11-20T22:49:13.910Z</time>
      </trkpt>
      <trkpt lat="47.500311" lon="8.058239">
        <ele>384.372844</ele>
        <time>2021-11-20T22:49:21.647Z</time>
      </trkpt>
      <trkpt lat="47.500413" lon="8.058068">
        <ele>384.210279</ele>
        <time>2021-11-20T22:49:23.309Z</time>
      </trkpt>
      <trkpt lat="47.500613" lon="8.057724">
        <ele>383.886849</ele>
        <time>2021-11-20T22:49:26.784Z</time>
      </trkpt>
      <trkpt lat="47.500657" lon="8.057647">
        <ele>383.814979</ele>
        <time>2021-11-20T22:49:27.537Z</time>
      </trkpt>
      <trkpt lat="47.500865" lon="8.057376">
        <ele>383.522681</ele>
        <time>2021-11-20T22:49:30.688Z</time>
      </trkpt>
      <trkpt lat="47.500885" lon="8.057373">
        <ele>383.501475</ele>
        <time>2021-11-20T22:49:30.915Z</time>
      </trkpt>
      <trkpt lat="47.501083" lon="8.057348">
        <ele>383.228944</ele>
        <time>2021-11-20T22:49:33.250Z</time>
      </trkpt>
      <trkpt lat="47.501197" lon="8.057405">
        <ele>383.046240</ele>
        <time>2021-11-20T22:49:34.570Z</time>
      </trkpt>
      <trkpt lat="47.501190" lon="8.057442">
        <ele>383.006826</ele>
        <time>2021-11-20T22:49:34.809Z</time>
      </trkpt>
      <trkpt lat="47.501236" lon="8.057572">
        <ele>382.856290</ele>
        <time>2021-11-20T22:49:35.965Z</time>
      </trkpt>
      <trkpt lat="47.501265" lon="8.057592">
        <ele>382.807712</ele>
        <time>2021-11-20T22:49:36.277Z</time>
      </trkpt>
      <trkpt lat="47.501139" lon="8.058076">
        <ele>382.275648</ele>
        <time>2021-11-20T22:49:40.287Z</time>
      </trkpt>
      <trkpt lat="47.500919" lon="8.058927">
        <ele>381.340975</ele>
        <time>2021-11-20T22:49:47.221Z</time>
      </trkpt>
      <trkpt lat="47.500708" lon="8.059752">
        <ele>380.953490</ele>
        <time>2021-11-20T22:49:54.249Z</time>
      </trkpt>
      <trkpt lat="47.500604" lon="8.060344">
        <ele>381.537824</ele>
        <time>2021-11-20T22:49:59.880Z</time>
      </trkpt>
      <trkpt lat="47.501242" lon="8.060602">
        <ele>382.473025</ele>
        <time>2021-11-20T22:50:17.658Z</time>
      </trkpt>
      <trkpt lat="47.501541" lon="8.060732">
        <ele>382.913676</ele>
        <time>2021-11-20T22:50:28.023Z</time>
      </trkpt>
      <trkpt lat="47.501802" lon="8.060823">
        <ele>383.432352</ele>
        <time>2021-11-20T22:50:36.965Z</time>
      </trkpt>
      <trkpt lat="47.502009" lon="8.060892">
        <ele>384.651731</ele>
        <time>2021-11-20T22:50:43.790Z</time>
      </trkpt>
      <trkpt lat="47.502612" lon="8.061128">
        <ele>388.236139</ele>
        <time>2021-11-20T22:51:08.537Z</time>
      </trkpt>
      <trkpt lat="47.502725" lon="8.061108">
        <ele>388.890155</ele>
        <time>2021-11-20T22:51:12.936Z</time>
      </trkpt>
      <trkpt lat="47.502780" lon="8.061071">
        <ele>389.237339</ele>
        <time>2021-11-20T22:51:15.786Z</time>
      </trkpt>
      <trkpt lat="47.502857" lon="8.060989">
        <ele>389.782459</ele>
        <time>2021-11-20T22:51:21.347Z</time>
      </trkpt>
      <trkpt lat="47.503219" lon="8.060489">
        <ele>392.627778</ele>
        <time>2021-11-20T22:51:45.036Z</time>
      </trkpt>
      <trkpt lat="47.503370" lon="8.060338">
        <ele>393.693023</ele>
        <time>2021-11-20T22:51:55.346Z</time>
      </trkpt>
      <trkpt lat="47.503390" lon="8.060324">
        <ele>393.845278</ele>
        <time>2021-11-20T22:51:56.837Z</time>
      </trkpt>
      <trkpt lat="47.503788" lon="8.060053">
        <ele>396.860213</ele>
        <time>2021-11-20T22:52:19.587Z</time>
      </trkpt>
      <trkpt lat="47.503958" lon="8.059935">
        <ele>398.152397</ele>
        <time>2021-11-20T22:52:27.643Z</time>
      </trkpt>
      <trkpt lat="47.504078" lon="8.059826">
        <ele>399.121324</ele>
        <time>2021-11-20T22:52:35.532Z</time>
      </trkpt>
      <trkpt lat="47.504169" lon="8.059693">
        <ele>400.001404</ele>
        <time>2021-11-20T22:52:40.149Z</time>
      </trkpt>
      <trkpt lat="47.504282" lon="8.059500">
        <ele>401.188785</ele>
        <time>2021-11-20T22:52:48.300Z</time>
      </trkpt>
      <trkpt lat="47.505291" lon="8.057302">
        <ele>413.662085</ele>
        <time>2021-11-20T22:54:11.580Z</time>
      </trkpt>
      <trkpt lat="47.505423" lon="8.056514">
        <ele>417.495488</ele>
        <time>2021-11-20T22:54:35.791Z</time>
      </trkpt>
      <trkpt lat="47.505441" lon="8.056483">
        <ele>417.688502</ele>
        <time>2021-11-20T22:54:37.488Z</time>
      </trkpt>
      <trkpt lat="47.505475" lon="8.056464">
        <ele>417.942522</ele>
        <time>2021-11-20T22:54:41.524Z</time>
      </trkpt>
      <trkpt lat="47.505625" lon="8.056515">
        <ele>419.289749</ele>
        <time>2021-11-20T22:54:48.358Z</time>
      </trkpt>
      <trkpt lat="47.505677" lon="8.056765">
        <ele>421.217477</ele>
        <time>2021-11-20T22:54:57.190Z</time>
      </trkpt>
      <trkpt lat="47.505517" lon="8.058346">
        <ele>432.998648</ele>
        <time>2021-11-20T22:56:08.674Z</time>
      </trkpt>
      <trkpt lat="47.505451" lon="8.058764">
        <ele>436.162125</ele>
        <time>2021-11-20T22:56:29.615Z</time>
      </trkpt>
      <trkpt lat="47.505424" lon="8.058918">
        <ele>437.334630</ele>
        <time>2021-11-20T22:56:37.015Z</time>
      </trkpt>
      <trkpt lat="47.505387" lon="8.059133">
        <ele>439.040802</ele>
        <time>2021-11-20T22:56:47.280Z</time>
      </trkpt>
      <trkpt lat="47.505370" lon="8.059258">
        <ele>440.062632</ele>
        <time>2021-11-20T22:56:52.613Z</time>
      </trkpt>
      <trkpt lat="47.505307" lon="8.059618">
        <ele>443.042854</ele>
        <time>2021-11-20T22:57:10.495Z</time>
      </trkpt>
      <trkpt lat="47.504942" lon="8.061411">
        <ele>458.050005</ele>
        <time>2021-11-20T22:58:38.755Z</time>
      </trkpt>
      <trkpt lat="47.503369" lon="8.065330">
        <ele>488.576175</ele>
        <time>2021-11-20T23:01:38.842Z</time>
      </trkpt>
      <trkpt lat="47.503323" lon="8.065713">
        <ele>491.170347</ele>
        <time>2021-11-20T23:01:54.531Z</time>
      </trkpt>
      <trkpt lat="47.503327" lon="8.066232">
        <ele>494.631640</ele>
        <time>2021-11-20T23:02:16.774Z</time>
      </trkpt>
      <trkpt lat="47.503405" lon="8.066731">
        <ele>498.050507</ele>
        <time>2021-11-20T23:02:38.696Z</time>
      </trkpt>
      <trkpt lat="47.503534" lon="8.067213">
        <ele>501.511448</ele>
        <time>2021-11-20T23:03:00.026Z</time>
      </trkpt>
      <trkpt lat="47.503632" lon="8.067340">
        <ele>502.798531</ele>
        <time>2021-11-20T23:03:08.193Z</time>
      </trkpt>
      <trkpt lat="47.503779" lon="8.067381">
        <ele>504.276710</ele>
        <time>2021-11-20T23:03:16.707Z</time>
      </trkpt>
      <trkpt lat="47.504036" lon="8.067372">
        <ele>506.817033</ele>
        <time>2021-11-20T23:03:33.170Z</time>
      </trkpt>
      <trkpt lat="47.504101" lon="8.067367">
        <ele>507.460214</ele>
        <time>2021-11-20T23:03:36.455Z</time>
      </trkpt>
      <trkpt lat="47.504397" lon="8.067358">
        <ele>510.385832</ele>
        <time>2021-11-20T23:03:54.555Z</time>
      </trkpt>
      <trkpt lat="47.505081" lon="8.067225">
        <ele>515.511560</ele>
        <time>2021-11-20T23:04:32.009Z</time>
      </trkpt>
      <trkpt lat="47.505473" lon="8.067198">
        <ele>517.944648</ele>
        <time>2021-11-20T23:04:51.750Z</time>
      </trkpt>
      <trkpt lat="47.505540" lon="8.066896">
        <ele>519.275989</ele>
        <time>2021-11-20T23:05:04.149Z</time>
      </trkpt>
      <trkpt lat="47.505605" lon="8.066628">
        <ele>520.468613</ele>
        <time>2021-11-20T23:05:15.685Z</time>
      </trkpt>
      <trkpt lat="47.506010" lon="8.064980">
        <ele>524.470943</ele>
        <time>2021-11-20T23:06:16.601Z</time>
      </trkpt>
      <trkpt lat="47.506078" lon="8.064758">
        <ele>524.638452</ele>
        <time>2021-11-20T23:06:24.347Z</time>
      </trkpt>
      <trkpt lat="47.506276" lon="8.063954">
        <ele>525.226530</ele>
        <time>2021-11-20T23:06:46.063Z</time>
      </trkpt>
      <trkpt lat="47.506664" lon="8.062340">
        <ele>523.311673</ele>
        <time>2021-11-20T23:07:22.189Z</time>
      </trkpt>
      <trkpt lat="47.506799" lon="8.061960">
        <ele>522.405011</ele>
        <time>2021-11-20T23:07:30.436Z</time>
      </trkpt>
      <trkpt lat="47.506834" lon="8.061792">
        <ele>522.033754</ele>
        <time>2021-11-20T23:07:32.043Z</time>
      </trkpt>
      <trkpt lat="47.506868" lon="8.061294">
        <ele>520.976764</ele>
        <time>2021-11-20T23:07:36.772Z</time>
      </trkpt>
      <trkpt lat="47.507095" lon="8.060549">
        <ele>519.036037</ele>
        <time>2021-11-20T23:07:44.697Z</time>
      </trkpt>
      <trkpt lat="47.507282" lon="8.059981">
        <ele>517.329826</ele>
        <time>2021-11-20T23:07:50.750Z</time>
      </trkpt>
      <trkpt lat="47.507442" lon="8.059522">
        <ele>515.935115</ele>
        <time>2021-11-20T23:07:55.743Z</time>
      </trkpt>
      <trkpt lat="47.507796" lon="8.058923">
        <ele>513.786025</ele>
        <time>2021-11-20T23:08:03.436Z</time>
      </trkpt>
      <trkpt lat="47.508101" lon="8.058498">
        <ele>511.416605</ele>
        <time>2021-11-20T23:08:09.225Z</time>
      </trkpt>
      <trkpt lat="47.508257" lon="8.058324">
        <ele>509.882278</ele>
        <time>2021-11-20T23:08:11.773Z</time>
      </trkpt>
      <trkpt lat="47.509137" lon="8.057413">
        <ele>501.447061</ele>
        <time>2021-11-20T23:08:25.250Z</time>
      </trkpt>
      <trkpt lat="47.509761" lon="8.057079">
        <ele>495.403543</ele>
        <time>2021-11-20T23:08:33.298Z</time>
      </trkpt>
      <trkpt lat="47.509954" lon="8.057004">
        <ele>493.308193</ele>
        <time>2021-11-20T23:08:35.701Z</time>
      </trkpt>
      <trkpt lat="47.510082" lon="8.056966">
        <ele>491.937306</ele>
        <time>2021-11-20T23:08:37.299Z</time>
      </trkpt>
      <trkpt lat="47.510829" lon="8.056804">
        <ele>484.009339</ele>
        <time>2021-11-20T23:08:46.427Z</time>
      </trkpt>
      <trkpt lat="47.511847" lon="8.056597">
        <ele>472.916474</ele>
        <time>2021-11-20T23:08:58.883Z</time>
      </trkpt>
      <trkpt lat="47.512296" lon="8.056517">
        <ele>467.949728</ele>
        <time>2021-11-20T23:09:04.368Z</time>
      </trkpt>
      <trkpt lat="47.512855" lon="8.056583">
        <ele>461.790991</ele>
        <time>2021-11-20T23:09:11.069Z</time>
      </trkpt>
      <trkpt lat="47.513354" lon="8.056772">
        <ele>456.453817</ele>
        <time>2021-11-20T23:09:17.265Z</time>
      </trkpt>
      <trkpt lat="47.513766" lon="8.057043">
        <ele>451.905495</ele>
        <time>2021-11-20T23:09:22.704Z</time>
      </trkpt>
      <trkpt lat="47.513979" lon="8.057155">
        <ele>449.625085</ele>
        <time>2021-11-20T23:09:25.425Z</time>
      </trkpt>
      <trkpt lat="47.514860" lon="8.057684">
        <ele>440.617467</ele>
        <time>2021-11-20T23:09:37.233Z</time>
      </trkpt>
      <trkpt lat="47.514913" lon="8.057730">
        <ele>440.189939</ele>
        <time>2021-11-20T23:09:37.945Z</time>
      </trkpt>
      <trkpt lat="47.514980" lon="8.057838">
        <ele>439.500687</ele>
        <time>2021-11-20T23:09:39.213Z</time>
      </trkpt>
      <trkpt lat="47.515549" lon="8.058544">
        <ele>434.334436</ele>
        <time>2021-11-20T23:09:48.945Z</time>
      </trkpt>
      <trkpt lat="47.516592" lon="8.059424">
        <ele>425.918111</ele>
        <time>2021-11-20T23:10:04.504Z</time>
      </trkpt>
      <trkpt lat="47.516879" lon="8.059595">
        <ele>423.725975</ele>
        <time>2021-11-20T23:10:08.545Z</time>
      </trkpt>
      <trkpt lat="47.517045" lon="8.059678">
        <ele>422.484457</ele>
        <time>2021-11-20T23:10:10.745Z</time>
      </trkpt>
      <trkpt lat="47.517499" lon="8.059959">
        <ele>418.997696</ele>
        <time>2021-11-20T23:10:17.058Z</time>
      </trkpt>
      <trkpt lat="47.517603" lon="8.060042">
        <ele>418.160532</ele>
        <time>2021-11-20T23:10:18.545Z</time>
      </trkpt>
      <trkpt lat="47.517670" lon="8.060139">
        <ele>417.496547</ele>
        <time>2021-11-20T23:10:19.684Z</time>
      </trkpt>
      <trkpt lat="47.517774" lon="8.060359">
        <ele>416.258025</ele>
        <time>2021-11-20T23:10:22.010Z</time>
      </trkpt>
      <trkpt lat="47.517832" lon="8.060561">
        <ele>415.318310</ele>
        <time>2021-11-20T23:10:23.826Z</time>
      </trkpt>
      <trkpt lat="47.517920" lon="8.060669">
        <ele>414.593760</ele>
        <time>2021-11-20T23:10:25.289Z</time>
      </trkpt>
      <trkpt lat="47.518058" lon="8.060729">
        <ele>413.682027</ele>
        <time>2021-11-20T23:10:27.096Z</time>
      </trkpt>
      <trkpt lat="47.518109" lon="8.060687">
        <ele>413.312093</ele>
        <time>2021-11-20T23:10:27.812Z</time>
      </trkpt>
      <trkpt lat="47.518109" lon="8.060687">
        <ele>413.312093</ele>
        <time>2021-11-20T23:10:27.817Z</time>
      </trkpt>
      <trkpt lat="47.518153" lon="8.060621">
        <ele>412.915059</ele>
        <time>2021-11-20T23:10:28.595Z</time>
      </trkpt>
      <trkpt lat="47.518168" lon="8.060542">
        <ele>412.563734</ele>
        <time>2021-11-20T23:10:29.357Z</time>
      </trkpt>
      <trkpt lat="47.518185" lon="8.060410">
        <ele>411.988436</ele>
        <time>2021-11-20T23:10:30.601Z</time>
      </trkpt>
      <trkpt lat="47.518145" lon="8.060201">
        <ele>411.058437</ele>
        <time>2021-11-20T23:10:31.902Z</time>
      </trkpt>
      <trkpt lat="47.518115" lon="8.059928">
        <ele>409.874306</ele>
        <time>2021-11-20T23:10:33.681Z</time>
      </trkpt>
      <trkpt lat="47.518107" lon="8.059678">
        <ele>408.802812</ele>
        <time>2021-11-20T23:10:35.200Z</time>
      </trkpt>
      <trkpt lat="47.518111" lon="8.059250">
        <ele>406.970294</ele>
        <time>2021-11-20T23:10:37.932Z</time>
      </trkpt>
      <trkpt lat="47.518110" lon="8.059176">
        <ele>406.653424</ele>
        <time>2021-11-20T23:10:38.376Z</time>
      </trkpt>
      <trkpt lat="47.518153" lon="8.058825">
        <ele>405.175406</ele>
        <time>2021-11-20T23:10:40.761Z</time>
      </trkpt>
      <trkpt lat="47.518181" lon="8.058723">
        <ele>404.888868</ele>
        <time>2021-11-20T23:10:41.430Z</time>
      </trkpt>
      <trkpt lat="47.518245" lon="8.058536">
        <ele>404.343292</ele>
        <time>2021-11-20T23:10:42.751Z</time>
      </trkpt>
      <trkpt lat="47.518297" lon="8.058380">
        <ele>403.890555</ele>
        <time>2021-11-20T23:10:44.011Z</time>
      </trkpt>
      <trkpt lat="47.518370" lon="8.058169">
        <ele>403.273585</ele>
        <time>2021-11-20T23:10:45.455Z</time>
      </trkpt>
      <trkpt lat="47.518693" lon="8.057336">
        <ele>400.773870</ele>
        <time>2021-11-20T23:10:51.900Z</time>
      </trkpt>
      <trkpt lat="47.519179" lon="8.056358">
        <ele>397.564067</ele>
        <time>2021-11-20T23:11:00.420Z</time>
      </trkpt>
      <trkpt lat="47.519217" lon="8.056276">
        <ele>397.286991</ele>
        <time>2021-11-20T23:11:01.133Z</time>
      </trkpt>
      <trkpt lat="47.519301" lon="8.056122">
        <ele>396.735463</ele>
        <time>2021-11-20T23:11:02.480Z</time>
      </trkpt>
      <trkpt lat="47.519792" lon="8.055311">
        <ele>393.700903</ele>
        <time>2021-11-20T23:11:09.594Z</time>
      </trkpt>
      <trkpt lat="47.520109" lon="8.054903">
        <ele>391.968156</ele>
        <time>2021-11-20T23:11:13.655Z</time>
      </trkpt>
      <trkpt lat="47.520138" lon="8.054877">
        <ele>391.828296</ele>
        <time>2021-11-20T23:11:13.951Z</time>
      </trkpt>
      <trkpt lat="47.520200" lon="8.054838">
        <ele>391.550394</ele>
        <time>2021-11-20T23:11:14.553Z</time>
      </trkpt>
      <trkpt lat="47.520447" lon="8.054686">
        <ele>390.348196</ele>
        <time>2021-11-20T23:11:17.117Z</time>
      </trkpt>
      <trkpt lat="47.520495" lon="8.054640">
        <ele>390.060985</ele>
        <time>2021-11-20T23:11:17.611Z</time>
      </trkpt>
      <trkpt lat="47.520622" lon="8.054507">
        <ele>389.279600</ele>
        <time>2021-11-20T23:11:19.114Z</time>
      </trkpt>
      <trkpt lat="47.520983" lon="8.054002">
        <ele>386.784938</ele>
        <time>2021-11-20T23:11:23.852Z</time>
      </trkpt>
      <trkpt lat="47.521342" lon="8.053276">
        <ele>383.732445</ele>
        <time>2021-11-20T23:11:29.458Z</time>
      </trkpt>
      <trkpt lat="47.521468" lon="8.053086">
        <ele>382.829093</ele>
        <time>2021-11-20T23:11:31.174Z</time>
      </trkpt>
      <trkpt lat="47.521510" lon="8.053033">
        <ele>382.551897</ele>
        <time>2021-11-20T23:11:31.686Z</time>
      </trkpt>
      <trkpt lat="47.521555" lon="8.052973">
        <ele>382.247716</ele>
        <time>2021-11-20T23:11:32.253Z</time>
      </trkpt>
      <trkpt lat="47.521761" lon="8.052748">
        <ele>381.166423</ele>
        <time>2021-11-20T23:11:34.748Z</time>
      </trkpt>
      <trkpt lat="47.521902" lon="8.052655">
        <ele>380.566606</ele>
        <time>2021-11-20T23:11:36.258Z</time>
      </trkpt>
      <trkpt lat="47.522238" lon="8.052476">
        <ele>379.178993</ele>
        <time>2021-11-20T23:11:39.732Z</time>
      </trkpt>
      <trkpt lat="47.523089" lon="8.052118">
        <ele>375.741177</ele>
        <time>2021-11-20T23:11:48.412Z</time>
      </trkpt>
      <trkpt lat="47.523941" lon="8.051728">
        <ele>373.039257</ele>
        <time>2021-11-20T23:11:57.632Z</time>
      </trkpt>
      <trkpt lat="47.524373" lon="8.051538">
        <ele>371.802276</ele>
        <time>2021-11-20T23:12:02.376Z</time>
      </trkpt>
      <trkpt lat="47.525100" lon="8.051220">
        <ele>369.696667</ele>
        <time>2021-11-20T23:12:10.461Z</time>
      </trkpt>
      <trkpt lat="47.527655" lon="8.049761">
        <ele>360.942943</ele>
        <time>2021-11-20T23:12:38.268Z</time>
      </trkpt>
      <trkpt lat="47.527953" lon="8.049615">
        <ele>359.866514</ele>
        <time>2021-11-20T23:12:41.327Z</time>
      </trkpt>
      <trkpt lat="47.528839" lon="8.049183">
        <ele>356.968440</ele>
        <time>2021-11-20T23:12:50.556Z</time>
      </trkpt>
      <trkpt lat="47.529656" lon="8.048773">
        <ele>354.565908</ele>
        <time>2021-11-20T23:12:59.507Z</time>
      </trkpt>
      <trkpt lat="47.530227" lon="8.048487">
        <ele>352.997082</ele>
        <time>2021-11-20T23:13:06.139Z</time>
      </trkpt>
      <trkpt lat="47.530578" lon="8.048313">
        <ele>352.270747</ele>
        <time>2021-11-20T23:13:10.300Z</time>
      </trkpt>
      <trkpt lat="47.531509" lon="8.047769">
        <ele>350.306783</ele>
        <time>2021-11-20T23:13:21.549Z</time>
      </trkpt>
      <trkpt lat="47.531748" lon="8.047580">
        <ele>349.775123</ele>
        <time>2021-11-20T23:13:24.472Z</time>
      </trkpt>
      <trkpt lat="47.532024" lon="8.047221">
        <ele>348.889896</ele>
        <time>2021-11-20T23:13:28.343Z</time>
      </trkpt>
      <trkpt lat="47.532368" lon="8.046806">
        <ele>347.807360</ele>
        <time>2021-11-20T23:13:32.986Z</time>
      </trkpt>
      <trkpt lat="47.532987" lon="8.046028">
        <ele>345.826527</ele>
        <time>2021-11-20T23:13:41.575Z</time>
      </trkpt>
      <trkpt lat="47.533268" lon="8.045675">
        <ele>345.016737</ele>
        <time>2021-11-20T23:13:45.498Z</time>
      </trkpt>
      <trkpt lat="47.533321" lon="8.045604">
        <ele>344.879977</ele>
        <time>2021-11-20T23:13:46.275Z</time>
      </trkpt>
      <trkpt lat="47.533634" lon="8.045197">
        <ele>344.082898</ele>
        <time>2021-11-20T23:13:50.723Z</time>
      </trkpt>
      <trkpt lat="47.533862" lon="8.044961">
        <ele>343.550580</ele>
        <time>2021-11-20T23:13:53.782Z</time>
      </trkpt>
      <trkpt lat="47.533961" lon="8.044883">
        <ele>343.335984</ele>
        <time>2021-11-20T23:13:55.023Z</time>
      </trkpt>
      <trkpt lat="47.534054" lon="8.044829">
        <ele>343.144821</ele>
        <time>2021-11-20T23:13:56.147Z</time>
      </trkpt>
      <trkpt lat="47.534374" lon="8.044734">
        <ele>342.520250</ele>
        <time>2021-11-20T23:13:59.901Z</time>
      </trkpt>
      <trkpt lat="47.534636" lon="8.044665">
        <ele>342.010991</ele>
        <time>2021-11-20T23:14:02.977Z</time>
      </trkpt>
      <trkpt lat="47.534737" lon="8.044640">
        <ele>341.856278</ele>
        <time>2021-11-20T23:14:04.235Z</time>
      </trkpt>
      <trkpt lat="47.534992" lon="8.044570">
        <ele>341.603352</ele>
        <time>2021-11-20T23:14:07.184Z</time>
      </trkpt>
      <trkpt lat="47.536130" lon="8.044277">
        <ele>340.476865</ele>
        <time>2021-11-20T23:14:21.349Z</time>
      </trkpt>
      <trkpt lat="47.536364" lon="8.044230">
        <ele>340.246566</ele>
        <time>2021-11-20T23:14:24.217Z</time>
      </trkpt>
      <trkpt lat="47.536508" lon="8.044238">
        <ele>340.104546</ele>
        <time>2021-11-20T23:14:26.428Z</time>
      </trkpt>
      <trkpt lat="47.536646" lon="8.044284">
        <ele>339.961341</ele>
        <time>2021-11-20T23:14:28.155Z</time>
      </trkpt>
      <trkpt lat="47.536844" lon="8.044412">
        <ele>339.742627</ele>
        <time>2021-11-20T23:14:31.539Z</time>
      </trkpt>
      <trkpt lat="47.537460" lon="8.044932">
        <ele>339.024827</ele>
        <time>2021-11-20T23:14:40.521Z</time>
      </trkpt>
      <trkpt lat="47.537686" lon="8.045112">
        <ele>338.765048</ele>
        <time>2021-11-20T23:14:43.505Z</time>
      </trkpt>
      <trkpt lat="47.538203" lon="8.045387">
        <ele>338.100592</ele>
        <time>2021-11-20T23:14:49.766Z</time>
      </trkpt>
      <trkpt lat="47.538294" lon="8.045418">
        <ele>337.917133</ele>
        <time>2021-11-20T23:14:50.800Z</time>
      </trkpt>
      <trkpt lat="47.538340" lon="8.045430">
        <ele>337.825363</ele>
        <time>2021-11-20T23:14:51.389Z</time>
      </trkpt>
      <trkpt lat="47.538479" lon="8.045444">
        <ele>337.551632</ele>
        <time>2021-11-20T23:14:52.916Z</time>
      </trkpt>
      <trkpt lat="47.538763" lon="8.045382">
        <ele>336.987616</ele>
        <time>2021-11-20T23:14:56.136Z</time>
      </trkpt>
      <trkpt lat="47.538912" lon="8.045281">
        <ele>336.665672</ele>
        <time>2021-11-20T23:14:57.906Z</time>
      </trkpt>
      <trkpt lat="47.538984" lon="8.045208">
        <ele>336.494246</ele>
        <time>2021-11-20T23:14:58.840Z</time>
      </trkpt>
      <trkpt lat="47.539049" lon="8.045146">
        <ele>336.342351</ele>
        <time>2021-11-20T23:14:59.740Z</time>
      </trkpt>
      <trkpt lat="47.539168" lon="8.044994">
        <ele>336.033625</ele>
        <time>2021-11-20T23:15:01.365Z</time>
      </trkpt>
      <trkpt lat="47.539357" lon="8.044726">
        <ele>335.519574</ele>
        <time>2021-11-20T23:15:04.154Z</time>
      </trkpt>
      <trkpt lat="47.539485" lon="8.044571">
        <ele>335.194747</ele>
        <time>2021-11-20T23:15:05.897Z</time>
      </trkpt>
      <trkpt lat="47.539769" lon="8.044372">
        <ele>334.868490</ele>
        <time>2021-11-20T23:15:09.237Z</time>
      </trkpt>
      <trkpt lat="47.539955" lon="8.044378">
        <ele>335.003061</ele>
        <time>2021-11-20T23:15:11.518Z</time>
      </trkpt>
      <trkpt lat="47.540083" lon="8.044382">
        <ele>335.095667</ele>
        <time>2021-11-20T23:15:12.907Z</time>
      </trkpt>
      <trkpt lat="47.540105" lon="8.044383">
        <ele>335.111588</ele>
        <time>2021-11-20T23:15:13.155Z</time>
      </trkpt>
      <trkpt lat="47.540316" lon="8.044416">
        <ele>335.265058</ele>
        <time>2021-11-20T23:15:16.221Z</time>
      </trkpt>
      <trkpt lat="47.540345" lon="8.044329">
        <ele>335.312437</ele>
        <time>2021-11-20T23:15:17.097Z</time>
      </trkpt>
      <trkpt lat="47.540360" lon="8.044061">
        <ele>335.443749</ele>
        <time>2021-11-20T23:15:20.391Z</time>
      </trkpt>
      <trkpt lat="47.540394" lon="8.043626">
        <ele>335.657578</ele>
        <time>2021-11-20T23:15:27.593Z</time>
      </trkpt>
      <trkpt lat="47.540392" lon="8.043542">
        <ele>335.698620</ele>
        <time>2021-11-20T23:15:29.243Z</time>
      </trkpt>
      <trkpt lat="47.540358" lon="8.043349">
        <ele>335.796018</ele>
        <time>2021-11-20T23:15:33.479Z</time>
      </trkpt>
      <trkpt lat="47.540311" lon="8.043099">
        <ele>335.922737</ele>
        <time>2021-11-20T23:15:37.546Z</time>
      </trkpt>
      <trkpt lat="47.540230" lon="8.042774">
        <ele>336.091196</ele>
        <time>2021-11-20T23:15:43.759Z</time>
      </trkpt>
      <trkpt lat="47.540115" lon="8.042499">
        <ele>336.092471</ele>
        <time>2021-11-20T23:15:48.535Z</time>
      </trkpt>
      <trkpt lat="47.540094" lon="8.042446">
        <ele>336.092713</ele>
        <time>2021-11-20T23:15:49.892Z</time>
      </trkpt>
      <trkpt lat="47.540072" lon="8.042391">
        <ele>336.092964</ele>
        <time>2021-11-20T23:15:50.945Z</time>
      </trkpt>
      <trkpt lat="47.540034" lon="8.042303">
        <ele>336.093376</ele>
        <time>2021-11-20T23:15:53.948Z</time>
      </trkpt>
      <trkpt lat="47.540021" lon="8.042268">
        <ele>336.093533</ele>
        <time>2021-11-20T23:15:55.117Z</time>
      </trkpt>
      <trkpt lat="47.539991" lon="8.042065">
        <ele>336.094352</ele>
        <time>2021-11-20T23:16:00.434Z</time>
      </trkpt>
      <trkpt lat="47.539983" lon="8.041866">
        <ele>336.095137</ele>
        <time>2021-11-20T23:16:05.902Z</time>
      </trkpt>
      <trkpt lat="47.539998" lon="8.041644">
        <ele>336.096016</ele>
        <time>2021-11-20T23:16:08.708Z</time>
      </trkpt>
      <trkpt lat="47.540031" lon="8.041477">
        <ele>336.096701</ele>
        <time>2021-11-20T23:16:11.121Z</time>
      </trkpt>
      <trkpt lat="47.540079" lon="8.041350">
        <ele>336.097274</ele>
        <time>2021-11-20T23:16:12.974Z</time>
      </trkpt>
      <trkpt lat="47.540116" lon="8.041253">
        <ele>336.097713</ele>
        <time>2021-11-20T23:16:14.056Z</time>
      </trkpt>
      <trkpt lat="47.540240" lon="8.040995">
        <ele>336.098961</ele>
        <time>2021-11-20T23:16:16.956Z</time>
      </trkpt>
      <trkpt lat="47.540564" lon="8.040358">
        <ele>335.834625</ele>
        <time>2021-11-20T23:16:23.121Z</time>
      </trkpt>
      <trkpt lat="47.540612" lon="8.040244">
        <ele>335.495794</ele>
        <time>2021-11-20T23:16:24.160Z</time>
      </trkpt>
      <trkpt lat="47.540755" lon="8.039911">
        <ele>334.500500</ele>
        <time>2021-11-20T23:16:26.765Z</time>
      </trkpt>
      <trkpt lat="47.540973" lon="8.039326">
        <ele>332.815361</ele>
        <time>2021-11-20T23:16:31.035Z</time>
      </trkpt>
      <trkpt lat="47.541029" lon="8.038776">
        <ele>331.412656</ele>
        <time>2021-11-20T23:16:34.523Z</time>
      </trkpt>
      <trkpt lat="47.541015" lon="8.038511">
        <ele>330.742323</ele>
        <time>2021-11-20T23:16:36.158Z</time>
      </trkpt>
      <trkpt lat="47.541006" lon="8.038351">
        <ele>330.337430</ele>
        <time>2021-11-20T23:16:37.211Z</time>
      </trkpt>
      <trkpt lat="47.540394" lon="8.031575">
        <ele>321.862493</ele>
        <time>2021-11-20T23:17:29.030Z</time>
      </trkpt>
      <trkpt lat="47.540324" lon="8.030594">
        <ele>321.179915</ele>
        <time>2021-11-20T23:17:37.584Z</time>
      </trkpt>
      <trkpt lat="47.540275" lon="8.029790">
        <ele>320.780030</ele>
        <time>2021-11-20T23:17:44.921Z</time>
      </trkpt>
      <trkpt lat="47.540273" lon="8.028579">
        <ele>320.686257</ele>
        <time>2021-11-20T23:17:56.615Z</time>
      </trkpt>
      <trkpt lat="47.540306" lon="8.026756">
        <ele>320.875554</ele>
        <time>2021-11-20T23:18:15.266Z</time>
      </trkpt>
      <trkpt lat="47.540408" lon="8.025334">
        <ele>321.516769</ele>
        <time>2021-11-20T23:18:31.334Z</time>
      </trkpt>
      <trkpt lat="47.540490" lon="8.024315">
        <ele>322.742601</ele>
        <time>2021-11-20T23:18:45.116Z</time>
      </trkpt>
      <trkpt lat="47.540537" lon="8.023536">
        <ele>324.517804</ele>
        <time>2021-11-20T23:18:57.882Z</time>
      </trkpt>
      <trkpt lat="47.540454" lon="8.023022">
        <ele>325.717382</ele>
        <time>2021-11-20T23:19:07.783Z</time>
      </trkpt>
      <trkpt lat="47.540354" lon="8.022332">
        <ele>327.319215</ele>
        <time>2021-11-20T23:19:23.569Z</time>
      </trkpt>
      <trkpt lat="47.540204" lon="8.020975">
        <ele>333.222017</ele>
        <time>2021-11-20T23:20:01.092Z</time>
      </trkpt>
      <trkpt lat="47.540134" lon="8.020585">
        <ele>335.116332</ele>
        <time>2021-11-20T23:20:13.435Z</time>
      </trkpt>
      <trkpt lat="47.540098" lon="8.020321">
        <ele>336.380614</ele>
        <time>2021-11-20T23:20:22.218Z</time>
      </trkpt>
      <trkpt lat="47.540052" lon="8.019825">
        <ele>338.730776</ele>
        <time>2021-11-20T23:20:37.814Z</time>
      </trkpt>
      <trkpt lat="47.540031" lon="8.019456">
        <ele>340.444384</ele>
        <time>2021-11-20T23:20:49.069Z</time>
      </trkpt>
      <trkpt lat="47.540012" lon="8.018657">
        <ele>343.463448</ele>
        <time>2021-11-20T23:21:12.942Z</time>
      </trkpt>
      <trkpt lat="47.539979" lon="8.017566">
        <ele>347.587429</ele>
        <time>2021-11-20T23:21:42.217Z</time>
      </trkpt>
      <trkpt lat="47.539918" lon="8.015722">
        <ele>351.244483</ele>
        <time>2021-11-20T23:22:14.959Z</time>
      </trkpt>
      <trkpt lat="47.539908" lon="8.015397">
        <ele>351.492974</ele>
        <time>2021-11-20T23:22:19.612Z</time>
      </trkpt>
      <trkpt lat="47.539903" lon="8.015200">
        <ele>351.643547</ele>
        <time>2021-11-20T23:22:21.354Z</time>
      </trkpt>
      <trkpt lat="47.539798" lon="8.012369">
        <ele>351.178059</ele>
        <time>2021-11-20T23:22:45.655Z</time>
      </trkpt>
      <trkpt lat="47.539703" lon="8.011107">
        <ele>350.320666</ele>
        <time>2021-11-20T23:22:55.348Z</time>
      </trkpt>
      <trkpt lat="47.539645" lon="8.009866">
        <ele>349.556194</ele>
        <time>2021-11-20T23:23:05.299Z</time>
      </trkpt>
      <trkpt lat="47.539569" lon="8.007914">
        <ele>349.208707</ele>
        <time>2021-11-20T23:23:23.747Z</time>
      </trkpt>
      <trkpt lat="47.539590" lon="8.005890">
        <ele>349.451566</ele>
        <time>2021-11-20T23:23:49.346Z</time>
      </trkpt>
      <trkpt lat="47.539492" lon="8.004516">
        <ele>348.154537</ele>
        <time>2021-11-20T23:24:02.521Z</time>
      </trkpt>
      <trkpt lat="47.539434" lon="8.003156">
        <ele>345.674543</ele>
        <time>2021-11-20T23:24:11.669Z</time>
      </trkpt>
      <trkpt lat="47.539437" lon="8.002963">
        <ele>344.873492</ele>
        <time>2021-11-20T23:24:12.891Z</time>
      </trkpt>
      <trkpt lat="47.539437" lon="8.002525">
        <ele>343.056046</ele>
        <time>2021-11-20T23:24:15.629Z</time>
      </trkpt>
      <trkpt lat="47.539400" lon="8.001871">
        <ele>340.332811</ele>
        <time>2021-11-20T23:24:19.637Z</time>
      </trkpt>
      <trkpt lat="47.539365" lon="8.001150">
        <ele>337.333350</ele>
        <time>2021-11-20T23:24:23.978Z</time>
      </trkpt>
      <trkpt lat="47.539569" lon="7.998315">
        <ele>323.630392</ele>
        <time>2021-11-20T23:24:41.102Z</time>
      </trkpt>
      <trkpt lat="47.539590" lon="7.998122">
        <ele>322.888955</ele>
        <time>2021-11-20T23:24:42.288Z</time>
      </trkpt>
      <trkpt lat="47.539726" lon="7.997265">
        <ele>320.424226</ele>
        <time>2021-11-20T23:24:47.937Z</time>
      </trkpt>
      <trkpt lat="47.539838" lon="7.996117">
        <ele>317.176808</ele>
        <time>2021-11-20T23:24:55.591Z</time>
      </trkpt>
      <trkpt lat="47.539876" lon="7.995796">
        <ele>316.264400</ele>
        <time>2021-11-20T23:24:57.868Z</time>
      </trkpt>
      <trkpt lat="47.540013" lon="7.995140">
        <ele>315.315055</ele>
        <time>2021-11-20T23:25:03.209Z</time>
      </trkpt>
      <trkpt lat="47.540089" lon="7.994896">
        <ele>315.095750</ele>
        <time>2021-11-20T23:25:05.253Z</time>
      </trkpt>
      <trkpt lat="47.540316" lon="7.993620">
        <ele>314.018844</ele>
        <time>2021-11-20T23:25:16.166Z</time>
      </trkpt>
      <trkpt lat="47.540262" lon="7.992244">
        <ele>313.562141</ele>
        <time>2021-11-20T23:25:28.391Z</time>
      </trkpt>
      <trkpt lat="47.540194" lon="7.991768">
        <ele>313.575103</ele>
        <time>2021-11-20T23:25:33.345Z</time>
      </trkpt>
      <trkpt lat="47.540140" lon="7.991504">
        <ele>313.582452</ele>
        <time>2021-11-20T23:25:36.238Z</time>
      </trkpt>
      <trkpt lat="47.540104" lon="7.991287">
        <ele>313.588405</ele>
        <time>2021-11-20T23:25:53.217Z</time>
      </trkpt>
      <trkpt lat="47.540056" lon="7.990982">
        <ele>313.596748</ele>
        <time>2021-11-20T23:25:56.651Z</time>
      </trkpt>
      <trkpt lat="47.540018" lon="7.990553">
        <ele>313.608275</ele>
        <time>2021-11-20T23:26:01.479Z</time>
      </trkpt>
      <trkpt lat="47.540011" lon="7.990131">
        <ele>313.715056</ele>
        <time>2021-11-20T23:26:06.320Z</time>
      </trkpt>
      <trkpt lat="47.539990" lon="7.989097">
        <ele>314.092704</ele>
        <time>2021-11-20T23:26:18.328Z</time>
      </trkpt>
      <trkpt lat="47.539978" lon="7.988189">
        <ele>314.424246</ele>
        <time>2021-11-20T23:26:29.150Z</time>
      </trkpt>
      <trkpt lat="47.540321" lon="7.987087">
        <ele>314.672747</ele>
        <time>2021-11-20T23:26:42.436Z</time>
      </trkpt>
      <trkpt lat="47.540335" lon="7.986933">
        <ele>314.690430</ele>
        <time>2021-11-20T23:26:44.317Z</time>
      </trkpt>
      <trkpt lat="47.540347" lon="7.986737">
        <ele>314.712824</ele>
        <time>2021-11-20T23:26:46.446Z</time>
      </trkpt>
      <trkpt lat="47.539952" lon="7.986630">
        <ele>314.780511</ele>
        <time>2021-11-20T23:26:52.692Z</time>
      </trkpt>
      <trkpt lat="47.539549" lon="7.986535">
        <ele>314.849297</ele>
        <time>2021-11-20T23:26:58.246Z</time>
      </trkpt>
      <trkpt lat="47.539415" lon="7.986507">
        <ele>314.872108</ele>
        <time>2021-11-20T23:27:00.193Z</time>
      </trkpt>
      <trkpt lat="47.539274" lon="7.986488">
        <ele>314.924517</ele>
        <time>2021-11-20T23:27:01.905Z</time>
      </trkpt>
      <trkpt lat="47.538630" lon="7.986438">
        <ele>315.415152</ele>
        <time>2021-11-20T23:27:12.869Z</time>
      </trkpt>
      <trkpt lat="47.538514" lon="7.986428">
        <ele>315.503555</ele>
        <time>2021-11-20T23:27:14.417Z</time>
      </trkpt>
      <trkpt lat="47.538277" lon="7.986431">
        <ele>315.683874</ele>
        <time>2021-11-20T23:27:19.508Z</time>
      </trkpt>
      <trkpt lat="47.537897" lon="7.986428">
        <ele>315.972987</ele>
        <time>2021-11-20T23:27:27.094Z</time>
      </trkpt>
      <trkpt lat="47.537821" lon="7.986433">
        <ele>316.030865</ele>
        <time>2021-11-20T23:27:28.094Z</time>
      </trkpt>
      <trkpt lat="47.537821" lon="7.986433">
        <ele>316.030865</ele>
        <time>2021-11-20T23:27:28.163Z</time>
      </trkpt>
      <trkpt lat="47.537821" lon="7.986433">
        <ele>316.030865</ele>
        <time>2021-11-20T23:27:28.169Z</time>
      </trkpt>
      <trkpt lat="47.537815" lon="7.986191">
        <ele>316.155247</ele>
        <time>2021-11-20T23:27:31.558Z</time>
      </trkpt>
      <trkpt lat="47.537812" lon="7.986127">
        <ele>316.188198</ele>
        <time>2021-11-20T23:27:33.081Z</time>
      </trkpt>
      <trkpt lat="47.537884" lon="7.985939">
        <ele>316.306583</ele>
        <time>2021-11-20T23:27:35.273Z</time>
      </trkpt>
      <trkpt lat="47.538208" lon="7.985592">
        <ele>316.662968</ele>
        <time>2021-11-20T23:27:43.221Z</time>
      </trkpt>
      <trkpt lat="47.538891" lon="7.984830">
        <ele>317.425138</ele>
        <time>2021-11-20T23:28:00.374Z</time>
      </trkpt>
      <trkpt lat="47.538988" lon="7.984674">
        <ele>317.552763</ele>
        <time>2021-11-20T23:28:03.745Z</time>
      </trkpt>
      <trkpt lat="47.539141" lon="7.984006">
        <ele>317.649457</ele>
        <time>2021-11-20T23:28:11.034Z</time>
      </trkpt>
      <trkpt lat="47.539266" lon="7.983513">
        <ele>317.083870</ele>
        <time>2021-11-20T23:28:15.232Z</time>
      </trkpt>
      <trkpt lat="47.539359" lon="7.983508">
        <ele>316.935821</ele>
        <time>2021-11-20T23:28:16.663Z</time>
      </trkpt>
      <trkpt lat="47.539746" lon="7.983424">
        <ele>316.313574</ele>
        <time>2021-11-20T23:28:22.969Z</time>
      </trkpt>
      <trkpt lat="47.540009" lon="7.983581">
        <ele>315.862474</ele>
        <time>2021-11-20T23:28:27.532Z</time>
      </trkpt>
      <trkpt lat="47.540197" lon="7.983795">
        <ele>315.485282</ele>
        <time>2021-11-20T23:28:31.216Z</time>
      </trkpt>
      <trkpt lat="47.540570" lon="7.984220">
        <ele>314.584462</ele>
        <time>2021-11-20T23:28:38.378Z</time>
      </trkpt>
      <trkpt lat="47.540609" lon="7.984254">
        <ele>314.470565</ele>
        <time>2021-11-20T23:28:39.012Z</time>
      </trkpt>
      <trkpt lat="47.540750" lon="7.984343">
        <ele>314.084808</ele>
        <time>2021-11-20T23:28:41.244Z</time>
      </trkpt>
      <trkpt lat="47.541183" lon="7.984395">
        <ele>312.991415</ele>
        <time>2021-11-20T23:28:47.708Z</time>
      </trkpt>
      <trkpt lat="47.541734" lon="7.984406">
        <ele>311.604478</ele>
        <time>2021-11-20T23:28:55.955Z</time>
      </trkpt>
      <trkpt lat="47.542126" lon="7.984398">
        <ele>310.617760</ele>
        <time>2021-11-20T23:29:02.019Z</time>
      </trkpt>
      <trkpt lat="47.542208" lon="7.984399">
        <ele>310.448232</ele>
        <time>2021-11-20T23:29:02.912Z</time>
      </trkpt>
      <trkpt lat="47.542173" lon="7.984165">
        <ele>310.292354</ele>
        <time>2021-11-20T23:29:04.756Z</time>
      </trkpt>
      <trkpt lat="47.542145" lon="7.983983">
        <ele>310.170951</ele>
        <time>2021-11-20T23:29:06.197Z</time>
      </trkpt>
      <trkpt lat="47.542068" lon="7.983338">
        <ele>309.744950</ele>
        <time>2021-11-20T23:29:11.277Z</time>
      </trkpt>
      <trkpt lat="47.542087" lon="7.982565">
        <ele>309.241876</ele>
        <time>2021-11-20T23:29:17.597Z</time>
      </trkpt>
      <trkpt lat="47.542122" lon="7.980765">
        <ele>309.301948</ele>
        <time>2021-11-20T23:29:36.379Z</time>
      </trkpt>
      <trkpt lat="47.542138" lon="7.980233">
        <ele>309.594470</ele>
        <time>2021-11-20T23:29:43.164Z</time>
      </trkpt>
      <trkpt lat="47.542153" lon="7.979253">
        <ele>310.132931</ele>
        <time>2021-11-20T23:29:56.639Z</time>
      </trkpt>
      <trkpt lat="47.542119" lon="7.977479">
        <ele>311.983006</ele>
        <time>2021-11-20T23:30:22.331Z</time>
      </trkpt>
      <trkpt lat="47.542030" lon="7.976464">
        <ele>313.085567</ele>
        <time>2021-11-20T23:30:37.268Z</time>
      </trkpt>
      <trkpt lat="47.541613" lon="7.974143">
        <ele>314.876197</ele>
        <time>2021-11-20T23:31:09.296Z</time>
      </trkpt>
      <trkpt lat="47.541444" lon="7.973570">
        <ele>314.969519</ele>
        <time>2021-11-20T23:31:16.392Z</time>
      </trkpt>
      <trkpt lat="47.541111" lon="7.971844">
        <ele>314.503874</ele>
        <time>2021-11-20T23:31:32.570Z</time>
      </trkpt>
      <trkpt lat="47.541050" lon="7.971427">
        <ele>314.393194</ele>
        <time>2021-11-20T23:31:36.071Z</time>
      </trkpt>
      <trkpt lat="47.541007" lon="7.971034">
        <ele>314.093038</ele>
        <time>2021-11-20T23:31:39.242Z</time>
      </trkpt>
      <trkpt lat="47.540930" lon="7.969589">
        <ele>312.843049</ele>
        <time>2021-11-20T23:31:50.592Z</time>
      </trkpt>
      <trkpt lat="47.540988" lon="7.968696">
        <ele>312.066276</ele>
        <time>2021-11-20T23:31:57.665Z</time>
      </trkpt>
      <trkpt lat="47.541122" lon="7.967754">
        <ele>310.891346</ele>
        <time>2021-11-20T23:32:05.697Z</time>
      </trkpt>
      <trkpt lat="47.541502" lon="7.965586">
        <ele>308.017657</ele>
        <time>2021-11-20T23:32:21.959Z</time>
      </trkpt>
      <trkpt lat="47.541593" lon="7.965571">
        <ele>307.817400</ele>
        <time>2021-11-20T23:32:22.930Z</time>
      </trkpt>
      <trkpt lat="47.541714" lon="7.965522">
        <ele>307.543047</ele>
        <time>2021-11-20T23:32:24.288Z</time>
      </trkpt>
      <trkpt lat="47.542210" lon="7.965313">
        <ele>306.415200</ele>
        <time>2021-11-20T23:32:29.947Z</time>
      </trkpt>
      <trkpt lat="47.542271" lon="7.965269">
        <ele>306.266810</ele>
        <time>2021-11-20T23:32:30.993Z</time>
      </trkpt>
      <trkpt lat="47.542253" lon="7.965169">
        <ele>306.114010</ele>
        <time>2021-11-20T23:32:32.099Z</time>
      </trkpt>
      <trkpt lat="47.542511" lon="7.963476">
        <ele>303.922769</ele>
        <time>2021-11-20T23:32:50.255Z</time>
      </trkpt>
      <trkpt lat="47.542512" lon="7.963400">
        <ele>303.841638</ele>
        <time>2021-11-20T23:32:51.126Z</time>
      </trkpt>
      <trkpt lat="47.542516" lon="7.962915">
        <ele>303.323957</ele>
        <time>2021-11-20T23:32:56.715Z</time>
      </trkpt>
      <trkpt lat="47.542513" lon="7.962471">
        <ele>302.850051</ele>
        <time>2021-11-20T23:33:01.789Z</time>
      </trkpt>
      <trkpt lat="47.542619" lon="7.961728">
        <ele>302.040970</ele>
        <time>2021-11-20T23:33:10.603Z</time>
      </trkpt>
      <trkpt lat="47.542689" lon="7.961423">
        <ele>301.759863</ele>
        <time>2021-11-20T23:33:14.098Z</time>
      </trkpt>
      <trkpt lat="47.542731" lon="7.961265">
        <ele>301.611686</ele>
        <time>2021-11-20T23:33:16.021Z</time>
      </trkpt>
      <trkpt lat="47.542800" lon="7.960973">
        <ele>301.341725</ele>
        <time>2021-11-20T23:33:19.383Z</time>
      </trkpt>
      <trkpt lat="47.542861" lon="7.960776">
        <ele>301.152599</ele>
        <time>2021-11-20T23:33:21.749Z</time>
      </trkpt>
      <trkpt lat="47.542960" lon="7.960501">
        <ele>300.880642</ele>
        <time>2021-11-20T23:33:25.110Z</time>
      </trkpt>
      <trkpt lat="47.543084" lon="7.960240">
        <ele>300.602140</ele>
        <time>2021-11-20T23:33:28.664Z</time>
      </trkpt>
      <trkpt lat="47.543357" lon="7.959668">
        <ele>299.990859</ele>
        <time>2021-11-20T23:33:36.596Z</time>
      </trkpt>
      <trkpt lat="47.543374" lon="7.959437">
        <ele>299.788095</ele>
        <time>2021-11-20T23:33:39.268Z</time>
      </trkpt>
      <trkpt lat="47.543322" lon="7.959242">
        <ele>299.729611</ele>
        <time>2021-11-20T23:33:41.835Z</time>
      </trkpt>
      <trkpt lat="47.543178" lon="7.959043">
        <ele>299.745334</ele>
        <time>2021-11-20T23:33:45.524Z</time>
      </trkpt>
      <trkpt lat="47.542693" lon="7.958608">
        <ele>299.790602</ele>
        <time>2021-11-20T23:33:57.821Z</time>
      </trkpt>
      <trkpt lat="47.542441" lon="7.958428">
        <ele>299.812939</ele>
        <time>2021-11-20T23:34:03.605Z</time>
      </trkpt>
      <trkpt lat="47.542259" lon="7.958287">
        <ele>299.829338</ele>
        <time>2021-11-20T23:34:08.338Z</time>
      </trkpt>
      <trkpt lat="47.541830" lon="7.958033">
        <ele>299.866609</ele>
        <time>2021-11-20T23:34:18.022Z</time>
      </trkpt>
      <trkpt lat="47.541700" lon="7.957963">
        <ele>299.894898</ele>
        <time>2021-11-20T23:34:21.389Z</time>
      </trkpt>
      <trkpt lat="47.541539" lon="7.957892">
        <ele>299.929252</ele>
        <time>2021-11-20T23:34:24.855Z</time>
      </trkpt>
      <trkpt lat="47.541305" lon="7.957787">
        <ele>299.979255</ele>
        <time>2021-11-20T23:34:30.469Z</time>
      </trkpt>
      <trkpt lat="47.541355" lon="7.957559">
        <ele>300.012352</ele>
        <time>2021-11-20T23:34:32.753Z</time>
      </trkpt>
      <trkpt lat="47.541450" lon="7.956897">
        <ele>300.105788</ele>
        <time>2021-11-20T23:34:40.450Z</time>
      </trkpt>
      <trkpt lat="47.541464" lon="7.956698">
        <ele>300.133410</ele>
        <time>2021-11-20T23:34:42.434Z</time>
      </trkpt>
      <trkpt lat="47.541471" lon="7.956577">
        <ele>300.150176</ele>
        <time>2021-11-20T23:34:43.585Z</time>
      </trkpt>
      <trkpt lat="47.541476" lon="7.956492">
        <ele>300.161956</ele>
        <time>2021-11-20T23:34:44.391Z</time>
      </trkpt>
      <trkpt lat="47.541533" lon="7.955526">
        <ele>300.240302</ele>
        <time>2021-11-20T23:34:53.744Z</time>
      </trkpt>
      <trkpt lat="47.541554" lon="7.955311">
        <ele>300.243436</ele>
        <time>2021-11-20T23:34:55.785Z</time>
      </trkpt>
      <trkpt lat="47.541735" lon="7.953892">
        <ele>300.264270</ele>
        <time>2021-11-20T23:35:10.000Z</time>
      </trkpt>
      <trkpt lat="47.541773" lon="7.953695">
        <ele>300.267225</ele>
        <time>2021-11-20T23:35:12.249Z</time>
      </trkpt>
      <trkpt lat="47.541791" lon="7.953601">
        <ele>300.268635</ele>
        <time>2021-11-20T23:35:13.285Z</time>
      </trkpt>
      <trkpt lat="47.541991" lon="7.952667">
        <ele>300.405246</ele>
        <time>2021-11-20T23:35:24.142Z</time>
      </trkpt>
      <trkpt lat="47.542169" lon="7.951815">
        <ele>300.568057</ele>
        <time>2021-11-20T23:35:33.880Z</time>
      </trkpt>
      <trkpt lat="47.542192" lon="7.951713">
        <ele>300.587688</ele>
        <time>2021-11-20T23:35:35.143Z</time>
      </trkpt>
      <trkpt lat="47.542357" lon="7.951037">
        <ele>300.718910</ele>
        <time>2021-11-20T23:35:42.607Z</time>
      </trkpt>
      <trkpt lat="47.542444" lon="7.950687">
        <ele>300.801124</ele>
        <time>2021-11-20T23:35:46.438Z</time>
      </trkpt>
      <trkpt lat="47.542546" lon="7.950274">
        <ele>300.921427</ele>
        <time>2021-11-20T23:35:50.785Z</time>
      </trkpt>
      <trkpt lat="47.542554" lon="7.950231">
        <ele>300.933628</ele>
        <time>2021-11-20T23:35:51.272Z</time>
      </trkpt>
      <trkpt lat="47.542560" lon="7.950202">
        <ele>300.941926</ele>
        <time>2021-11-20T23:35:51.605Z</time>
      </trkpt>
      <trkpt lat="47.542609" lon="7.949914">
        <ele>301.023174</ele>
        <time>2021-11-20T23:35:54.604Z</time>
      </trkpt>
      <trkpt lat="47.542719" lon="7.949175">
        <ele>301.230188</ele>
        <time>2021-11-20T23:36:02.507Z</time>
      </trkpt>
      <trkpt lat="47.542826" lon="7.948298">
        <ele>301.473984</ele>
        <time>2021-11-20T23:36:13.450Z</time>
      </trkpt>
      <trkpt lat="47.542838" lon="7.948225">
        <ele>301.516335</ele>
        <time>2021-11-20T23:36:14.278Z</time>
      </trkpt>
      <trkpt lat="47.542875" lon="7.948001">
        <ele>301.776124</ele>
        <time>2021-11-20T23:36:17.161Z</time>
      </trkpt>
      <trkpt lat="47.542928" lon="7.947798">
        <ele>302.021320</ele>
        <time>2021-11-20T23:36:20.084Z</time>
      </trkpt>
      <trkpt lat="47.542957" lon="7.947651">
        <ele>302.193848</ele>
        <time>2021-11-20T23:36:21.792Z</time>
      </trkpt>
      <trkpt lat="47.543050" lon="7.947411">
        <ele>302.505597</ele>
        <time>2021-11-20T23:36:26.156Z</time>
      </trkpt>
      <trkpt lat="47.543087" lon="7.947317">
        <ele>302.628179</ele>
        <time>2021-11-20T23:36:27.435Z</time>
      </trkpt>
      <trkpt lat="47.543092" lon="7.947257">
        <ele>302.696284</ele>
        <time>2021-11-20T23:36:28.225Z</time>
      </trkpt>
      <trkpt lat="47.543097" lon="7.947186">
        <ele>302.776702</ele>
        <time>2021-11-20T23:36:29.074Z</time>
      </trkpt>
      <trkpt lat="47.543086" lon="7.947052">
        <ele>302.928770</ele>
        <time>2021-11-20T23:36:30.904Z</time>
      </trkpt>
      <trkpt lat="47.543056" lon="7.946935">
        <ele>303.069762</ele>
        <time>2021-11-20T23:36:33.271Z</time>
      </trkpt>
      <trkpt lat="47.543045" lon="7.946881">
        <ele>303.133305</ele>
        <time>2021-11-20T23:36:34.383Z</time>
      </trkpt>
      <trkpt lat="47.542982" lon="7.946547">
        <ele>303.523981</ele>
        <time>2021-11-20T23:36:38.982Z</time>
      </trkpt>
      <trkpt lat="47.542974" lon="7.946495">
        <ele>303.584063</ele>
        <time>2021-11-20T23:36:40.196Z</time>
      </trkpt>
      <trkpt lat="47.542960" lon="7.946400">
        <ele>303.693604</ele>
        <time>2021-11-20T23:36:42.032Z</time>
      </trkpt>
      <trkpt lat="47.542916" lon="7.945730">
        <ele>304.451948</ele>
        <time>2021-11-20T23:36:52.608Z</time>
      </trkpt>
      <trkpt lat="47.542913" lon="7.945267">
        <ele>304.887506</ele>
        <time>2021-11-20T23:37:00.095Z</time>
      </trkpt>
      <trkpt lat="47.543007" lon="7.943867">
        <ele>306.190847</ele>
        <time>2021-11-20T23:37:20.834Z</time>
      </trkpt>
      <trkpt lat="47.543161" lon="7.942213">
        <ele>306.555242</ele>
        <time>2021-11-20T23:37:39.240Z</time>
      </trkpt>
      <trkpt lat="47.543435" lon="7.940670">
        <ele>305.792854</ele>
        <time>2021-11-20T23:37:52.188Z</time>
      </trkpt>
      <trkpt lat="47.543826" lon="7.939433">
        <ele>304.351478</ele>
        <time>2021-11-20T23:38:02.590Z</time>
      </trkpt>
      <trkpt lat="47.544472" lon="7.937932">
        <ele>302.270943</ele>
        <time>2021-11-20T23:38:15.913Z</time>
      </trkpt>
      <trkpt lat="47.544705" lon="7.937395">
        <ele>301.530977</ele>
        <time>2021-11-20T23:38:20.753Z</time>
      </trkpt>
      <trkpt lat="47.544903" lon="7.936917">
        <ele>300.880899</ele>
        <time>2021-11-20T23:38:25.014Z</time>
      </trkpt>
      <trkpt lat="47.545074" lon="7.936484">
        <ele>300.299402</ele>
        <time>2021-11-20T23:38:28.844Z</time>
      </trkpt>
      <trkpt lat="47.545457" lon="7.935110">
        <ele>299.085174</ele>
        <time>2021-11-20T23:38:40.213Z</time>
      </trkpt>
      <trkpt lat="47.545674" lon="7.933625">
        <ele>298.318786</ele>
        <time>2021-11-20T23:38:53.293Z</time>
      </trkpt>
      <trkpt lat="47.545702" lon="7.933290">
        <ele>298.148521</ele>
        <time>2021-11-20T23:38:56.873Z</time>
      </trkpt>
      <trkpt lat="47.545724" lon="7.932758">
        <ele>298.627156</ele>
        <time>2021-11-20T23:39:03.140Z</time>
      </trkpt>
      <trkpt lat="47.545721" lon="7.931992">
        <ele>299.380118</ele>
        <time>2021-11-20T23:39:13.179Z</time>
      </trkpt>
      <trkpt lat="47.545696" lon="7.931497">
        <ele>299.868044</ele>
        <time>2021-11-20T23:39:20.385Z</time>
      </trkpt>
      <trkpt lat="47.545661" lon="7.930955">
        <ele>300.403243</ele>
        <time>2021-11-20T23:39:29.080Z</time>
      </trkpt>
      <trkpt lat="47.545563" lon="7.929641">
        <ele>301.475313</ele>
        <time>2021-11-20T23:39:51.420Z</time>
      </trkpt>
      <trkpt lat="47.545475" lon="7.928419">
        <ele>302.394242</ele>
        <time>2021-11-20T23:40:07.722Z</time>
      </trkpt>
      <trkpt lat="47.545421" lon="7.927686">
        <ele>302.265877</ele>
        <time>2021-11-20T23:40:13.826Z</time>
      </trkpt>
      <trkpt lat="47.545406" lon="7.927306">
        <ele>301.586586</ele>
        <time>2021-11-20T23:40:16.730Z</time>
      </trkpt>
      <trkpt lat="47.545407" lon="7.927001">
        <ele>301.042288</ele>
        <time>2021-11-20T23:40:19.016Z</time>
      </trkpt>
      <trkpt lat="47.545409" lon="7.926773">
        <ele>300.635375</ele>
        <time>2021-11-20T23:40:20.645Z</time>
      </trkpt>
      <trkpt lat="47.545417" lon="7.925848">
        <ele>298.984522</ele>
        <time>2021-11-20T23:40:26.980Z</time>
      </trkpt>
      <trkpt lat="47.545446" lon="7.925350">
        <ele>298.092510</ele>
        <time>2021-11-20T23:40:30.283Z</time>
      </trkpt>
      <trkpt lat="47.545466" lon="7.924880">
        <ele>297.046311</ele>
        <time>2021-11-20T23:40:33.333Z</time>
      </trkpt>
      <trkpt lat="47.545481" lon="7.924396">
        <ele>295.940434</ele>
        <time>2021-11-20T23:40:36.415Z</time>
      </trkpt>
      <trkpt lat="47.545521" lon="7.923709">
        <ele>294.366559</ele>
        <time>2021-11-20T23:40:40.949Z</time>
      </trkpt>
      <trkpt lat="47.545536" lon="7.923407">
        <ele>293.675391</ele>
        <time>2021-11-20T23:40:43.296Z</time>
      </trkpt>
      <trkpt lat="47.545551" lon="7.923172">
        <ele>293.136620</ele>
        <time>2021-11-20T23:40:44.815Z</time>
      </trkpt>
      <trkpt lat="47.545553" lon="7.923142">
        <ele>293.067813</ele>
        <time>2021-11-20T23:40:45.017Z</time>
      </trkpt>
      <trkpt lat="47.545575" lon="7.922979">
        <ele>292.688408</ele>
        <time>2021-11-20T23:40:46.651Z</time>
      </trkpt>
      <trkpt lat="47.545587" lon="7.922895">
        <ele>292.492434</ele>
        <time>2021-11-20T23:40:47.426Z</time>
      </trkpt>
      <trkpt lat="47.545641" lon="7.922610">
        <ele>291.878604</ele>
        <time>2021-11-20T23:40:49.426Z</time>
      </trkpt>
      <trkpt lat="47.545690" lon="7.922369">
        <ele>291.694540</ele>
        <time>2021-11-20T23:40:52.111Z</time>
      </trkpt>
      <trkpt lat="47.545699" lon="7.922325">
        <ele>291.660918</ele>
        <time>2021-11-20T23:40:52.372Z</time>
      </trkpt>
      <trkpt lat="47.545714" lon="7.922249">
        <ele>291.603013</ele>
        <time>2021-11-20T23:40:52.975Z</time>
      </trkpt>
      <trkpt lat="47.545778" lon="7.921947">
        <ele>291.371533</ele>
        <time>2021-11-20T23:40:56.109Z</time>
      </trkpt>
      <trkpt lat="47.545810" lon="7.921755">
        <ele>291.226907</ele>
        <time>2021-11-20T23:40:57.468Z</time>
      </trkpt>
      <trkpt lat="47.545881" lon="7.921096">
        <ele>290.738884</ele>
        <time>2021-11-20T23:41:02.836Z</time>
      </trkpt>
      <trkpt lat="47.545913" lon="7.920765">
        <ele>290.494356</ele>
        <time>2021-11-20T23:41:05.647Z</time>
      </trkpt>
      <trkpt lat="47.545973" lon="7.920313">
        <ele>290.157481</ele>
        <time>2021-11-20T23:41:10.794Z</time>
      </trkpt>
      <trkpt lat="47.546128" lon="7.919617">
        <ele>289.865291</ele>
        <time>2021-11-20T23:41:17.257Z</time>
      </trkpt>
      <trkpt lat="47.546262" lon="7.919081">
        <ele>289.749141</ele>
        <time>2021-11-20T23:41:23.256Z</time>
      </trkpt>
      <trkpt lat="47.546821" lon="7.916867">
        <ele>290.212784</ele>
        <time>2021-11-20T23:41:44.437Z</time>
      </trkpt>
      <trkpt lat="47.547032" lon="7.916218">
        <ele>290.994938</ele>
        <time>2021-11-20T23:41:53.848Z</time>
      </trkpt>
      <trkpt lat="47.547091" lon="7.916039">
        <ele>291.211228</ele>
        <time>2021-11-20T23:41:55.771Z</time>
      </trkpt>
      <trkpt lat="47.547113" lon="7.915971">
        <ele>291.293104</ele>
        <time>2021-11-20T23:41:56.848Z</time>
      </trkpt>
      <trkpt lat="47.547423" lon="7.915080">
        <ele>292.544463</ele>
        <time>2021-11-20T23:42:15.647Z</time>
      </trkpt>
      <trkpt lat="47.547377" lon="7.915045">
        <ele>292.819724</ele>
        <time>2021-11-20T23:42:17.959Z</time>
      </trkpt>
      <trkpt lat="47.547057" lon="7.914734">
        <ele>294.856881</ele>
        <time>2021-11-20T23:42:33.995Z</time>
      </trkpt>
      <trkpt lat="47.547016" lon="7.914680">
        <ele>295.148896</ele>
        <time>2021-11-20T23:42:36.739Z</time>
      </trkpt>
      <trkpt lat="47.546955" lon="7.914608">
        <ele>295.564051</ele>
        <time>2021-11-20T23:42:40.921Z</time>
      </trkpt>
      <trkpt lat="47.546695" lon="7.914336">
        <ele>297.258298</ele>
        <time>2021-11-20T23:42:53.762Z</time>
      </trkpt>
      <trkpt lat="47.546432" lon="7.914049">
        <ele>298.997030</ele>
        <time>2021-11-20T23:43:07.734Z</time>
      </trkpt>
      <trkpt lat="47.546064" lon="7.913662">
        <ele>301.399235</ele>
        <time>2021-11-20T23:43:28.689Z</time>
      </trkpt>
      <trkpt lat="47.546113" lon="7.913536">
        <ele>301.906720</ele>
        <time>2021-11-20T23:43:31.589Z</time>
      </trkpt>
      <trkpt lat="47.546177" lon="7.913377">
        <ele>302.299723</ele>
        <time>2021-11-20T23:43:35.737Z</time>
      </trkpt>
      <trkpt lat="47.546231" lon="7.913244">
        <ele>302.629212</ele>
        <time>2021-11-20T23:43:40.637Z</time>
      </trkpt>
      <trkpt lat="47.546526" lon="7.912513">
        <ele>304.437255</ele>
        <time>2021-11-20T23:43:59.095Z</time>
      </trkpt>
      <trkpt lat="47.547348" lon="7.911011">
        <ele>307.488771</ele>
        <time>2021-11-20T23:44:27.697Z</time>
      </trkpt>
      <trkpt lat="47.547648" lon="7.910267">
        <ele>307.390992</ele>
        <time>2021-11-20T23:44:35.661Z</time>
      </trkpt>
      <trkpt lat="47.547859" lon="7.909845">
        <ele>307.331740</ele>
        <time>2021-11-20T23:44:42.101Z</time>
      </trkpt>
      <trkpt lat="47.548222" lon="7.909154">
        <ele>307.177861</ele>
        <time>2021-11-20T23:44:52.582Z</time>
      </trkpt>
      <trkpt lat="47.548279" lon="7.909060">
        <ele>307.069373</ele>
        <time>2021-11-20T23:44:53.901Z</time>
      </trkpt>
      <trkpt lat="47.548638" lon="7.908599">
        <ele>306.465080</ele>
        <time>2021-11-20T23:45:01.804Z</time>
      </trkpt>
      <trkpt lat="47.549039" lon="7.907742">
        <ele>305.569805</ele>
        <time>2021-11-20T23:45:13.125Z</time>
      </trkpt>
      <trkpt lat="47.549519" lon="7.906378">
        <ele>304.965186</ele>
        <time>2021-11-20T23:45:31.602Z</time>
      </trkpt>
      <trkpt lat="47.549674" lon="7.905336">
        <ele>304.980456</ele>
        <time>2021-11-20T23:45:46.372Z</time>
      </trkpt>
      <trkpt lat="47.549793" lon="7.905202">
        <ele>304.983625</ele>
        <time>2021-11-20T23:45:49.698Z</time>
      </trkpt>
      <trkpt lat="47.549867" lon="7.905155">
        <ele>304.985332</ele>
        <time>2021-11-20T23:45:51.413Z</time>
      </trkpt>
      <trkpt lat="47.549868" lon="7.905010">
        <ele>304.987407</ele>
        <time>2021-11-20T23:45:53.728Z</time>
      </trkpt>
      <trkpt lat="47.550025" lon="7.904774">
        <ele>305.046271</ele>
        <time>2021-11-20T23:45:58.919Z</time>
      </trkpt>
      <trkpt lat="47.550302" lon="7.904164">
        <ele>306.061375</ele>
        <time>2021-11-20T23:46:11.217Z</time>
      </trkpt>
      <trkpt lat="47.550498" lon="7.903445">
        <ele>307.132007</ele>
        <time>2021-11-20T23:46:25.677Z</time>
      </trkpt>
      <trkpt lat="47.550688" lon="7.902451">
        <ele>308.558390</ele>
        <time>2021-11-20T23:46:47.455Z</time>
      </trkpt>
      <trkpt lat="47.550757" lon="7.901591">
        <ele>310.798971</ele>
        <time>2021-11-20T23:47:07.251Z</time>
      </trkpt>
      <trkpt lat="47.550769" lon="7.901362">
        <ele>311.422006</ele>
        <time>2021-11-20T23:47:13.159Z</time>
      </trkpt>
      <trkpt lat="47.550801" lon="7.900244">
        <ele>314.457322</ele>
        <time>2021-11-20T23:47:37.556Z</time>
      </trkpt>
      <trkpt lat="47.550819" lon="7.898109">
        <ele>319.805227</ele>
        <time>2021-11-20T23:48:24.597Z</time>
      </trkpt>
      <trkpt lat="47.550648" lon="7.896481">
        <ele>322.930267</ele>
        <time>2021-11-20T23:48:52.252Z</time>
      </trkpt>
      <trkpt lat="47.550639" lon="7.896345">
        <ele>323.056069</ele>
        <time>2021-11-20T23:48:54.627Z</time>
      </trkpt>
      <trkpt lat="47.550660" lon="7.896255">
        <ele>323.143734</ele>
        <time>2021-11-20T23:48:55.427Z</time>
      </trkpt>
      <trkpt lat="47.550838" lon="7.895509">
        <ele>323.872149</ele>
        <time>2021-11-20T23:49:05.595Z</time>
      </trkpt>
      <trkpt lat="47.550878" lon="7.895158">
        <ele>324.199850</ele>
        <time>2021-11-20T23:49:09.658Z</time>
      </trkpt>
      <trkpt lat="47.550908" lon="7.894308">
        <ele>325.120303</ele>
        <time>2021-11-20T23:49:20.130Z</time>
      </trkpt>
      <trkpt lat="47.550892" lon="7.893176">
        <ele>327.185663</ele>
        <time>2021-11-20T23:49:34.847Z</time>
      </trkpt>
      <trkpt lat="47.550904" lon="7.891725">
        <ele>329.984359</ele>
        <time>2021-11-20T23:50:04.609Z</time>
      </trkpt>
      <trkpt lat="47.550915" lon="7.890600">
        <ele>334.477025</ele>
        <time>2021-11-20T23:50:33.450Z</time>
      </trkpt>
      <trkpt lat="47.550833" lon="7.889069">
        <ele>340.613769</ele>
        <time>2021-11-20T23:51:16.083Z</time>
      </trkpt>
      <trkpt lat="47.550831" lon="7.888611">
        <ele>342.471405</ele>
        <time>2021-11-20T23:51:28.653Z</time>
      </trkpt>
      <trkpt lat="47.550789" lon="7.887816">
        <ele>345.705701</ele>
        <time>2021-11-20T23:51:49.265Z</time>
      </trkpt>
      <trkpt lat="47.550758" lon="7.887295">
        <ele>347.827018</ele>
        <time>2021-11-20T23:52:03.087Z</time>
      </trkpt>
      <trkpt lat="47.550677" lon="7.886476">
        <ele>351.178909</ele>
        <time>2021-11-20T23:52:24.575Z</time>
      </trkpt>
      <trkpt lat="47.550548" lon="7.885799">
        <ele>353.512325</ele>
        <time>2021-11-20T23:52:41.779Z</time>
      </trkpt>
      <trkpt lat="47.550391" lon="7.885109">
        <ele>355.927653</ele>
        <time>2021-11-20T23:52:59.416Z</time>
      </trkpt>
      <trkpt lat="47.550332" lon="7.884727">
        <ele>357.227523</ele>
        <time>2021-11-20T23:53:08.106Z</time>
      </trkpt>
      <trkpt lat="47.550234" lon="7.883221">
        <ele>361.613218</ele>
        <time>2021-11-20T23:53:40.938Z</time>
      </trkpt>
      <trkpt lat="47.549927" lon="7.881490">
        <ele>365.881174</ele>
        <time>2021-11-20T23:54:13.201Z</time>
      </trkpt>
      <trkpt lat="47.549726" lon="7.880786">
        <ele>367.960662</ele>
        <time>2021-11-20T23:54:29.178Z</time>
      </trkpt>
      <trkpt lat="47.549327" lon="7.879547">
        <ele>371.854541</ele>
        <time>2021-11-20T23:54:58.962Z</time>
      </trkpt>
      <trkpt lat="47.549318" lon="7.879398">
        <ele>372.278862</ele>
        <time>2021-11-20T23:55:02.150Z</time>
      </trkpt>
      <trkpt lat="47.549140" lon="7.879391">
        <ele>373.027160</ele>
        <time>2021-11-20T23:55:09.021Z</time>
      </trkpt>
      <trkpt lat="47.548718" lon="7.879258">
        <ele>374.482816</ele>
        <time>2021-11-20T23:55:22.692Z</time>
      </trkpt>
      <trkpt lat="47.548422" lon="7.878959">
        <ele>375.411158</ele>
        <time>2021-11-20T23:55:33.338Z</time>
      </trkpt>
      <trkpt lat="47.548234" lon="7.878638">
        <ele>376.154494</ele>
        <time>2021-11-20T23:55:41.770Z</time>
      </trkpt>
      <trkpt lat="47.547992" lon="7.877974">
        <ele>377.474355</ele>
        <time>2021-11-20T23:55:54.868Z</time>
      </trkpt>
      <trkpt lat="47.547574" lon="7.876801">
        <ele>377.552352</ele>
        <time>2021-11-20T23:56:08.631Z</time>
      </trkpt>
      <trkpt lat="47.547126" lon="7.875801">
        <ele>375.811527</ele>
        <time>2021-11-20T23:56:17.414Z</time>
      </trkpt>
      <trkpt lat="47.546309" lon="7.874154">
        <ele>369.745150</ele>
        <time>2021-11-20T23:56:30.602Z</time>
      </trkpt>
      <trkpt lat="47.546135" lon="7.873859">
        <ele>368.227702</ele>
        <time>2021-11-20T23:56:32.984Z</time>
      </trkpt>
      <trkpt lat="47.546077" lon="7.873763">
        <ele>367.728656</ele>
        <time>2021-11-20T23:56:33.795Z</time>
      </trkpt>
      <trkpt lat="47.545934" lon="7.873549">
        <ele>366.562261</ele>
        <time>2021-11-20T23:56:35.600Z</time>
      </trkpt>
      <trkpt lat="47.545746" lon="7.873302">
        <ele>365.120311</ele>
        <time>2021-11-20T23:56:37.888Z</time>
      </trkpt>
      <trkpt lat="47.545515" lon="7.873015">
        <ele>363.199344</ele>
        <time>2021-11-20T23:56:40.587Z</time>
      </trkpt>
      <trkpt lat="47.545478" lon="7.872968">
        <ele>362.865828</ele>
        <time>2021-11-20T23:56:41.028Z</time>
      </trkpt>
      <trkpt lat="47.545375" lon="7.872836">
        <ele>361.933889</ele>
        <time>2021-11-20T23:56:42.222Z</time>
      </trkpt>
      <trkpt lat="47.545131" lon="7.872664">
        <ele>360.084843</ele>
        <time>2021-11-20T23:56:44.681Z</time>
      </trkpt>
      <trkpt lat="47.544883" lon="7.872555">
        <ele>358.314694</ele>
        <time>2021-11-20T23:56:47.003Z</time>
      </trkpt>
      <trkpt lat="47.544390" lon="7.872423">
        <ele>354.886490</ele>
        <time>2021-11-20T23:56:51.465Z</time>
      </trkpt>
      <trkpt lat="47.543332" lon="7.872237">
        <ele>348.733907</ele>
        <time>2021-11-20T23:57:01.227Z</time>
      </trkpt>
      <trkpt lat="47.543251" lon="7.872152">
        <ele>348.227258</ele>
        <time>2021-11-20T23:57:02.177Z</time>
      </trkpt>
      <trkpt lat="47.543233" lon="7.872082">
        <ele>347.969171</ele>
        <time>2021-11-20T23:57:02.598Z</time>
      </trkpt>
      <trkpt lat="47.543013" lon="7.872182">
        <ele>346.794601</ele>
        <time>2021-11-20T23:57:04.825Z</time>
      </trkpt>
      <trkpt lat="47.542919" lon="7.872226">
        <ele>346.291435</ele>
        <time>2021-11-20T23:57:05.754Z</time>
      </trkpt>
      <trkpt lat="47.542814" lon="7.872280">
        <ele>345.724128</ele>
        <time>2021-11-20T23:57:06.806Z</time>
      </trkpt>
      <trkpt lat="47.542714" lon="7.872334">
        <ele>345.180866</ele>
        <time>2021-11-20T23:57:07.873Z</time>
      </trkpt>
      <trkpt lat="47.542537" lon="7.872430">
        <ele>344.218794</ele>
        <time>2021-11-20T23:57:09.618Z</time>
      </trkpt>
      <trkpt lat="47.542436" lon="7.872494">
        <ele>343.658099</ele>
        <time>2021-11-20T23:57:10.914Z</time>
      </trkpt>
      <trkpt lat="47.542394" lon="7.872341">
        <ele>343.089019</ele>
        <time>2021-11-20T23:57:11.997Z</time>
      </trkpt>
      <trkpt lat="47.542218" lon="7.871866">
        <ele>342.893964</ele>
        <time>2021-11-20T23:57:15.668Z</time>
      </trkpt>
      <trkpt lat="47.542091" lon="7.871721">
        <ele>342.893964</ele>
        <time>2021-11-20T23:57:17.194Z</time>
      </trkpt>
      <trkpt lat="47.542067" lon="7.871664">
        <ele>342.893964</ele>
        <time>2021-11-20T23:57:17.890Z</time>
      </trkpt>
      <trkpt lat="47.542039" lon="7.871556">
        <ele>342.893964</ele>
        <time>2021-11-20T23:57:18.755Z</time>
      </trkpt>
      <trkpt lat="47.541953" lon="7.871286">
        <ele>342.893964</ele>
        <time>2021-11-20T23:57:20.979Z</time>
      </trkpt>
      <trkpt lat="47.541833" lon="7.871100">
        <ele>342.893964</ele>
        <time>2021-11-20T23:57:22.975Z</time>
      </trkpt>
      <trkpt lat="47.541796" lon="7.871042">
        <ele>342.893964</ele>
        <time>2021-11-20T23:57:23.527Z</time>
      </trkpt>
      <trkpt lat="47.541770" lon="7.870998">
        <ele>342.893964</ele>
        <time>2021-11-20T23:57:23.994Z</time>
      </trkpt>
    </trkseg>
  </trk>
</gpx>